| time (UTC) | temp C | wind direction | speed KPH | gust KPH | rain 1hr cm | rain 24hr cm | rain mn cm | humidity % | barometer mb |
| 20260508220530 | 19 | 247 | 8.0 | 17.7 | 0.00 | 0.00 | 0.00 | 52 | 1010.5 |
| 20260508220428 | 19 | 195 | 6.4 | 17.7 | 0.00 | 0.00 | 0.00 | 52 | 1010.5 |
| 20260508220331 | 19 | 193 | 8.0 | 17.7 | 0.00 | 0.00 | 0.00 | 52 | 1010.5 |
| 20260508220230 | 19 | 198 | 3.2 | 17.7 | 0.00 | 0.00 | 0.00 | 51 | 1010.5 |
| 20260508220200 | 19 | 191 | 6.4 | 17.7 | 0.00 | 0.00 | 0.00 | 51 | 1010.5 |
| 20260508220037 | 19 | 222 | 4.8 | 17.7 | 0.00 | 0.00 | 0.00 | 52 | 1010.5 |
| 20260508215936 | 19 | 265 | 1.6 | 17.7 | 0.00 | 0.00 | 0.00 | 52 | 1010.5 |
| 20260508215855 | 19 | 282 | 8.0 | 17.7 | 0.00 | 0.00 | 0.00 | 53 | 1010.5 |
| 20260508215733 | 19 | 243 | 4.8 | 11.3 | 0.00 | 0.00 | 0.00 | 52 | 1010.5 |
| 20260508215651 | 19 | 287 | 1.6 | 11.3 | 0.00 | 0.00 | 0.00 | 51 | 1010.5 |
| 20260508215532 | 19 | 323 | 6.4 | 11.3 | 0.00 | 0.00 | 0.00 | 52 | 1010.5 |
| 20260508215432 | 19 | 203 | 1.6 | 12.9 | 0.00 | 0.00 | 0.00 | 52 | 1010.5 |
| 20260508215351 | 19 | 311 | 3.2 | 12.9 | 0.00 | 0.00 | 0.00 | 51 | 1010.5 |
| 20260508215232 | 19 | 313 | 6.4 | 12.9 | 0.00 | 0.00 | 0.00 | 52 | 1010.5 |
| 20260508215129 | 19 | 260 | 3.2 | 12.9 | 0.00 | 0.00 | 0.00 | 52 | 1010.5 |
| 20260508215028 | 19 | 209 | 3.2 | 12.9 | 0.00 | 0.00 | 0.00 | 52 | 1010.5 |
| 20260508214926 | 19 | 237 | 4.8 | 12.9 | 0.00 | 0.00 | 0.00 | 51 | 1010.5 |
| 20260508214829 | 19 | 246 | 3.2 | 12.9 | 0.00 | 0.00 | 0.00 | 52 | 1010.5 |
| 20260508214743 | 19 | 230 | 4.8 | 12.9 | 0.00 | 0.00 | 0.00 | 52 | 1010.5 |
| 20260508214651 | 19 | 251 | 8.0 | 12.9 | 0.00 | 0.00 | 0.00 | 51 | 1010.5 |
| 20260508214528 | 19 | 193 | 6.4 | 12.9 | 0.00 | 0.00 | 0.00 | 50 | 1010.5 |
| 20260508214427 | 19 | 191 | 3.2 | 12.9 | 0.00 | 0.00 | 0.00 | 50 | 1010.5 |
| 20260508214325 | 19 | 134 | 3.2 | 12.9 | 0.00 | 0.00 | 0.00 | 51 | 1010.4 |
| 20260508214224 | 19 | 213 | 8.0 | 12.9 | 0.00 | 0.00 | 0.00 | 51 | 1010.4 |
| 20260508214126 | 19 | 134 | 8.0 | 12.9 | 0.00 | 0.00 | 0.00 | 51 | 1010.4 |
| 20260508214044 | 19 | 210 | 4.8 | 11.3 | 0.00 | 0.00 | 0.00 | 51 | 1010.4 |
| 20260508214003 | 19 | 209 | 4.8 | 11.3 | 0.00 | 0.00 | 0.00 | 51 | 1010.4 |
| 20260508213840 | 19 | 203 | 6.4 | 11.3 | 0.00 | 0.00 | 0.00 | 50 | 1010.4 |
| 20260508213758 | 19 | 229 | 4.8 | 11.3 | 0.00 | 0.00 | 0.00 | 50 | 1010.4 |
| 20260508213635 | 19 | 196 | 4.8 | 11.3 | 0.00 | 0.00 | 0.00 | 51 | 1010.4 |
| 20260508213534 | 19 | 202 | 4.8 | 12.9 | 0.00 | 0.00 | 0.00 | 50 | 1010.4 |
| 20260508213431 | 19 | 145 | 6.4 | 17.7 | 0.00 | 0.00 | 0.00 | 50 | 1010.4 |
| 20260508213334 | 19 | 188 | 8.0 | 17.7 | 0.00 | 0.00 | 0.00 | 51 | 1010.4 |
| 20260508213233 | 19 | 110 | 6.4 | 17.7 | 0.00 | 0.00 | 0.00 | 50 | 1010.4 |
| 20260508213205 | 19 | 230 | 1.6 | 17.7 | 0.00 | 0.00 | 0.00 | 50 | 1010.4 |
| 20260508213041 | 19 | 168 | 1.6 | 17.7 | 0.00 | 0.00 | 0.00 | 49 | 1010.4 |
| 20260508213000 | 19 | 223 | 3.2 | 17.7 | 0.00 | 0.00 | 0.00 | 51 | 1010.4 |
| 20260508212837 | 19 | 191 | 1.6 | 17.7 | 0.00 | 0.00 | 0.00 | 50 | 1010.6 |
| 20260508212736 | 19 | 319 | 4.8 | 17.7 | 0.00 | 0.00 | 0.00 | 50 | 1010.6 |
| 20260508212634 | 19 | 224 | 11.3 | 17.7 | 0.00 | 0.00 | 0.00 | 50 | 1010.6 |
| 20260508212541 | 19 | 184 | 9.7 | 17.7 | 0.00 | 0.00 | 0.00 | 50 | 1010.6 |
| 20260508212439 | 19 | 217 | 4.8 | 17.7 | 0.00 | 0.00 | 0.00 | 51 | 1010.6 |
| 20260508212338 | 19 | 268 | 6.4 | 17.7 | 0.00 | 0.00 | 0.00 | 51 | 1010.6 |
| 20260508212237 | 19 | 256 | 8.0 | 17.7 | 0.00 | 0.00 | 0.00 | 51 | 1010.6 |
| 20260508212135 | 19 | 230 | 4.8 | 17.7 | 0.00 | 0.00 | 0.00 | 51 | 1010.6 |
| 20260508212034 | 19 | 277 | 8.0 | 17.7 | 0.00 | 0.00 | 0.00 | 51 | 1010.6 |
| 20260508211937 | 19 | 277 | 4.8 | 17.7 | 0.00 | 0.00 | 0.00 | 50 | 1010.6 |
| 20260508211835 | 19 | 294 | 8.0 | 17.7 | 0.00 | 0.00 | 0.00 | 50 | 1010.6 |
| 20260508211734 | 19 | 191 | 11.3 | 17.7 | 0.00 | 0.00 | 0.00 | 51 | 1010.6 |
| 20260508211704 | 19 | 272 | 9.7 | 17.7 | 0.00 | 0.00 | 0.00 | 51 | 1010.6 |
| 20260508211542 | 19 | 267 | 4.8 | 12.9 | 0.00 | 0.00 | 0.00 | 51 | 1010.6 |
| 20260508211439 | 19 | 240 | 1.6 | 12.9 | 0.00 | 0.00 | 0.00 | 50 | 1010.6 |
| 20260508211337 | 19 | 220 | 1.6 | 12.9 | 0.00 | 0.00 | 0.00 | 49 | 1010.4 |
| 20260508211235 | 19 | 160 | 3.2 | 12.9 | 0.00 | 0.00 | 0.00 | 47 | 1010.4 |
| 20260508211137 | 19 | 179 | 3.2 | 17.7 | 0.00 | 0.00 | 0.00 | 48 | 1010.4 |
| 20260508211036 | 19 | 258 | 6.4 | 17.7 | 0.00 | 0.00 | 0.00 | 50 | 1010.4 |
| 20260508210934 | 19 | 275 | 9.7 | 17.7 | 0.00 | 0.00 | 0.00 | 50 | 1010.4 |
| 20260508210832 | 19 | 271 | 4.8 | 17.7 | 0.00 | 0.00 | 0.00 | 48 | 1010.4 |
| 20260508210730 | 19 | 216 | 3.2 | 17.7 | 0.00 | 0.00 | 0.00 | 47 | 1010.4 |
| 20260508210628 | 19 | 233 | 1.6 | 17.7 | 0.00 | 0.00 | 0.00 | 47 | 1010.4 |
| 20260508210546 | 19 | 256 | 6.4 | 17.7 | 0.00 | 0.00 | 0.00 | 47 | 1010.4 |
| 20260508210428 | 19 | 313 | 8.0 | 17.7 | 0.00 | 0.00 | 0.00 | 49 | 1010.4 |
| 20260508210326 | 19 | 232 | 11.3 | 17.7 | 0.00 | 0.00 | 0.00 | 49 | 1010.4 |
| 20260508210237 | 19 | 261 | 8.0 | 11.3 | 0.00 | 0.00 | 0.00 | 49 | 1010.4 |
| 20260508210146 | 19 | 263 | 3.2 | 11.3 | 0.00 | 0.00 | 0.00 | 48 | 1010.4 |
| 20260508210043 | 19 | 234 | 1.6 | 11.3 | 0.00 | 0.00 | 0.00 | 47 | 1010.4 |
| 20260508205941 | 19 | 236 | 1.6 | 14.5 | 0.00 | 0.00 | 0.00 | 47 | 1010.4 |
| 20260508205842 | 19 | 171 | 3.2 | 16.1 | 0.00 | 0.00 | 0.00 | 47 | 1009.6 |
| 20260508205800 | 19 | 189 | 3.2 | 16.1 | 0.00 | 0.00 | 0.00 | 48 | 1009.6 |
| 20260508205642 | 19 | 308 | 3.2 | 16.1 | 0.00 | 0.00 | 0.00 | 47 | 1009.6 |
| 20260508205540 | 18 | 247 | 3.2 | 16.1 | 0.00 | 0.00 | 0.00 | 46 | 1009.6 |
| 20260508205437 | 18 | 161 | 4.8 | 16.1 | 0.00 | 0.00 | 0.00 | 46 | 1009.6 |
| 20260508205336 | 18 | 254 | 6.4 | 16.1 | 0.00 | 0.00 | 0.00 | 47 | 1009.6 |
| 20260508205234 | 18 | 203 | 6.4 | 16.1 | 0.00 | 0.00 | 0.00 | 47 | 1009.6 |
| 20260508205152 | 18 | 223 | 9.7 | 16.1 | 0.00 | 0.00 | 0.00 | 47 | 1009.6 |
| 20260508205029 | 18 | 138 | 9.7 | 16.1 | 0.00 | 0.00 | 0.00 | 47 | 1009.6 |
| 20260508204932 | 18 | 272 | 3.2 | 12.9 | 0.00 | 0.00 | 0.00 | 47 | 1009.6 |
| 20260508204831 | 18 | 213 | 6.4 | 12.9 | 0.00 | 0.00 | 0.00 | 47 | 1009.6 |
| 20260508204740 | 18 | 260 | 8.0 | 14.5 | 0.00 | 0.00 | 0.00 | 46 | 1009.6 |
| 20260508204650 | 18 | 304 | 4.8 | 22.5 | 0.00 | 0.00 | 0.00 | 45 | 1009.6 |
| 20260508204528 | 18 | 285 | 3.2 | 22.5 | 0.00 | 0.00 | 0.00 | 46 | 1009.6 |
| 20260508204448 | 18 | 270 | 9.7 | 22.5 | 0.00 | 0.00 | 0.00 | 46 | 1009.6 |
| 20260508204346 | 18 | 169 | 4.8 | 22.5 | 0.00 | 0.00 | 0.00 | 47 | 1010.1 |
| 20260508204243 | 18 | 325 | 3.2 | 22.5 | 0.00 | 0.00 | 0.00 | 47 | 1010.1 |
| 20260508204141 | 18 | 251 | 3.2 | 22.5 | 0.00 | 0.00 | 0.00 | 48 | 1010.1 |
| 20260508204105 | 18 | 240 | 4.8 | 22.5 | 0.00 | 0.00 | 0.00 | 49 | 1010.1 |
| 20260508204005 | 18 | 288 | 8.0 | 22.5 | 0.00 | 0.00 | 0.00 | 48 | 1010.1 |
| 20260508203842 | 18 | 267 | 11.3 | 22.5 | 0.00 | 0.00 | 0.00 | 48 | 1010.1 |
| 20260508203741 | 18 | 270 | 4.8 | 16.1 | 0.00 | 0.00 | 0.00 | 48 | 1010.1 |
| 20260508203640 | 18 | 253 | 9.7 | 16.1 | 0.00 | 0.00 | 0.00 | 50 | 1010.1 |
| 20260508203535 | 18 | 215 | 6.4 | 17.7 | 0.00 | 0.00 | 0.00 | 48 | 1010.1 |
| 20260508203435 | 18 | 236 | 4.8 | 17.7 | 0.00 | 0.00 | 0.00 | 48 | 1010.1 |
| 20260508203332 | 18 | 230 | 6.4 | 17.7 | 0.00 | 0.00 | 0.00 | 46 | 1010.1 |
| 20260508203255 | 18 | 193 | 1.6 | 17.7 | 0.00 | 0.00 | 0.00 | 45 | 1010.1 |
| 20260508203226 | 18 | 168 | 1.6 | 17.7 | 0.00 | 0.00 | 0.00 | 47 | 1010.1 |
| 20260508203102 | 18 | 143 | 4.8 | 17.7 | 0.00 | 0.00 | 0.00 | 50 | 1010.1 |
| 20260508203001 | 18 | 299 | 4.8 | 17.7 | 0.00 | 0.00 | 0.00 | 49 | 1010.1 |
| 20260508202841 | 18 | 195 | 6.4 | 17.7 | 0.00 | 0.00 | 0.00 | 49 | 1010.4 |
| 20260508202739 | 18 | 244 | 8.0 | 17.7 | 0.00 | 0.00 | 0.00 | 50 | 1010.4 |
| 20260508202637 | 18 | 236 | 8.0 | 17.7 | 0.00 | 0.00 | 0.00 | 48 | 1010.4 |
| 20260508202536 | 18 | 126 | 6.4 | 17.7 | 0.00 | 0.00 | 0.00 | 48 | 1010.4 |
| 20260508202439 | 18 | 240 | 6.4 | 17.7 | 0.00 | 0.00 | 0.00 | 47 | 1010.4 |
| 20260508202336 | 18 | 141 | 6.4 | 17.7 | 0.00 | 0.00 | 0.00 | 48 | 1010.4 |
| 20260508202235 | 18 | 216 | 3.2 | 17.7 | 0.00 | 0.00 | 0.00 | 51 | 1010.4 |
| 20260508202133 | 18 | 292 | 8.0 | 17.7 | 0.00 | 0.00 | 0.00 | 51 | 1010.4 |
| 20260508202030 | 18 | 263 | 6.4 | 17.7 | 0.00 | 0.00 | 0.00 | 51 | 1010.4 |
| 20260508201929 | 18 | 212 | 8.0 | 17.7 | 0.00 | 0.00 | 0.00 | 51 | 1010.4 |
| 20260508201829 | 18 | 182 | 11.3 | 17.7 | 0.00 | 0.00 | 0.00 | 51 | 1010.4 |
| 20260508201739 | 18 | 301 | 6.4 | 16.1 | 0.00 | 0.00 | 0.00 | 51 | 1010.4 |
| 20260508201653 | 18 | 294 | 4.8 | 16.1 | 0.00 | 0.00 | 0.00 | 52 | 1010.4 |
| 20260508201530 | 18 | 271 | 9.7 | 16.1 | 0.00 | 0.00 | 0.00 | 51 | 1010.4 |
| 20260508201449 | 18 | 277 | 6.4 | 16.1 | 0.00 | 0.00 | 0.00 | 51 | 1010.4 |
| 20260508201327 | 18 | 247 | 8.0 | 16.1 | 0.00 | 0.00 | 0.00 | 50 | 1010.2 |
| 20260508201244 | 18 | 161 | 4.8 | 12.9 | 0.00 | 0.00 | 0.00 | 52 | 1010.2 |
| 20260508201203 | 18 | 157 | 1.6 | 11.3 | 0.00 | 0.00 | 0.00 | 53 | 1010.2 |
| 20260508201041 | 18 | 176 | 3.2 | 11.3 | 0.00 | 0.00 | 0.00 | 53 | 1010.2 |
| 20260508200939 | 18 | 133 | 6.4 | 11.3 | 0.00 | 0.00 | 0.00 | 53 | 1010.2 |
| 20260508200844 | 18 | 154 | 4.8 | 11.3 | 0.00 | 0.00 | 0.00 | 50 | 1010.2 |
| 20260508200722 | 18 | 257 | 3.2 | 9.7 | 0.00 | 0.00 | 0.00 | 49 | 1010.2 |
| 20260508200624 | 18 | 161 | 1.6 | 9.7 | 0.00 | 0.00 | 0.00 | 50 | 1010.2 |
| 20260508200542 | 18 | 237 | 3.2 | 9.7 | 0.00 | 0.00 | 0.00 | 50 | 1010.2 |
| 20260508200441 | 18 | 291 | 6.4 | 9.7 | 0.00 | 0.00 | 0.00 | 48 | 1010.2 |
| 20260508200339 | 18 | 301 | 6.4 | 9.7 | 0.00 | 0.00 | 0.00 | 47 | 1010.2 |
| 20260508200222 | 18 | 141 | 6.4 | 9.7 | 0.00 | 0.00 | 0.00 | 47 | 1010.2 |
| 20260508200157 | 18 | 150 | 6.4 | 9.7 | 0.00 | 0.00 | 0.00 | 47 | 1010.2 |
| 20260508200057 | 18 | 128 | 3.2 | 8.0 | 0.00 | 0.00 | 0.00 | 46 | 1010.2 |
| 20260508195937 | 18 | 123 | 0.0 | 9.7 | 0.00 | 0.00 | 0.00 | 49 | 1010.2 |
| 20260508195855 | 18 | 138 | 1.6 | 9.7 | 0.00 | 0.00 | 0.00 | 50 | 1010.0 |
| 20260508195732 | 18 | 128 | 1.6 | 9.7 | 0.00 | 0.00 | 0.00 | 50 | 1010.0 |
| 20260508195631 | 18 | 219 | 0.0 | 16.1 | 0.00 | 0.00 | 0.00 | 49 | 1010.0 |
| 20260508195550 | 18 | 178 | 0.0 | 16.1 | 0.00 | 0.00 | 0.00 | 49 | 1010.0 |
| 20260508195429 | 18 | 203 | 0.0 | 16.1 | 0.00 | 0.00 | 0.00 | 48 | 1010.0 |
| 20260508195332 | 18 | 165 | 3.2 | 16.1 | 0.00 | 0.00 | 0.00 | 49 | 1010.0 |
| 20260508195231 | 18 | 195 | 1.6 | 16.1 | 0.00 | 0.00 | 0.00 | 50 | 1010.0 |
| 20260508195130 | 18 | 184 | 4.8 | 16.1 | 0.00 | 0.00 | 0.00 | 50 | 1010.0 |
| 20260508195047 | 18 | 209 | 3.2 | 16.1 | 0.00 | 0.00 | 0.00 | 49 | 1010.0 |
| 20260508194924 | 18 | 100 | 3.2 | 16.1 | 0.00 | 0.00 | 0.00 | 49 | 1010.0 |
| 20260508194843 | 18 | 90 | 8.0 | 16.1 | 0.00 | 0.00 | 0.00 | 48 | 1010.0 |
| 20260508194733 | 18 | 227 | 1.6 | 14.5 | 0.00 | 0.00 | 0.00 | 46 | 1010.0 |
| 20260508194647 | 18 | 154 | 4.8 | 14.5 | 0.00 | 0.00 | 0.00 | 46 | 1010.0 |
| 20260508194525 | 18 | 168 | 1.6 | 14.5 | 0.00 | 0.00 | 0.00 | 47 | 1010.0 |
| 20260508194444 | 18 | 263 | 1.6 | 14.5 | 0.00 | 0.00 | 0.00 | 47 | 1010.0 |
| 20260508194341 | 18 | 185 | 6.4 | 14.5 | 0.00 | 0.00 | 0.00 | 48 | 1010.3 |
| 20260508194240 | 18 | 172 | 3.2 | 14.5 | 0.00 | 0.00 | 0.00 | 47 | 1010.3 |
| 20260508194138 | 18 | 189 | 9.7 | 14.5 | 0.00 | 0.00 | 0.00 | 50 | 1010.3 |
| 20260508194036 | 18 | 213 | 8.0 | 14.5 | 0.00 | 0.00 | 0.00 | 50 | 1010.3 |
| 20260508193938 | 18 | 162 | 3.2 | 12.9 | 0.00 | 0.00 | 0.00 | 51 | 1010.3 |
| 20260508193857 | 18 | 232 | 1.6 | 12.9 | 0.00 | 0.00 | 0.00 | 50 | 1010.3 |
| 20260508193734 | 18 | 270 | 3.2 | 12.9 | 0.00 | 0.00 | 0.00 | 49 | 1010.3 |
| 20260508193632 | 18 | 152 | 1.6 | 8.0 | 0.00 | 0.00 | 0.00 | 49 | 1010.3 |
| 20260508193532 | 18 | 120 | 0.0 | 8.0 | 0.00 | 0.00 | 0.00 | 49 | 1010.3 |
| 20260508193430 | 18 | 140 | 1.6 | 8.0 | 0.00 | 0.00 | 0.00 | 48 | 1010.3 |
| 20260508193328 | 18 | 110 | 3.2 | 8.0 | 0.00 | 0.00 | 0.00 | 47 | 1010.3 |
| 20260508193237 | 18 | 205 | 6.4 | 8.0 | 0.00 | 0.00 | 0.00 | 46 | 1010.3 |
| 20260508193150 | 18 | 136 | 3.2 | 8.0 | 0.00 | 0.00 | 0.00 | 47 | 1010.3 |
| 20260508193047 | 18 | 112 | 4.8 | 9.7 | 0.00 | 0.00 | 0.00 | 47 | 1010.3 |
| 20260508192925 | 18 | 162 | 0.0 | 9.7 | 0.00 | 0.00 | 0.00 | 46 | 1010.3 |
| 20260508192843 | 18 | 167 | 1.6 | 9.7 | 0.00 | 0.00 | 0.00 | 48 | 1010.7 |
| 20260508192742 | 18 | 117 | 0.0 | 9.7 | 0.00 | 0.00 | 0.00 | 46 | 1010.7 |
| 20260508192640 | 18 | 138 | 0.0 | 9.7 | 0.00 | 0.00 | 0.00 | 49 | 1010.7 |
| 20260508192538 | 18 | 137 | 0.0 | 9.7 | 0.00 | 0.00 | 0.00 | 48 | 1010.7 |
| 20260508192437 | 18 | 189 | 1.6 | 9.7 | 0.00 | 0.00 | 0.00 | 48 | 1010.7 |
| 20260508192340 | 18 | 175 | 1.6 | 12.9 | 0.00 | 0.00 | 0.00 | 49 | 1010.7 |
| 20260508192258 | 18 | 150 | 3.2 | 12.9 | 0.00 | 0.00 | 0.00 | 47 | 1010.7 |
| 20260508192137 | 18 | 128 | 6.4 | 12.9 | 0.00 | 0.00 | 0.00 | 49 | 1010.7 |
| 20260508192036 | 18 | 124 | 6.4 | 12.9 | 0.00 | 0.00 | 0.00 | 50 | 1010.7 |
| 20260508191933 | 18 | 136 | 3.2 | 12.9 | 0.00 | 0.00 | 0.00 | 47 | 1010.7 |
| 20260508191832 | 18 | 154 | 0.0 | 12.9 | 0.00 | 0.00 | 0.00 | 45 | 1010.7 |
| 20260508191731 | 18 | 141 | 3.2 | 12.9 | 0.00 | 0.00 | 0.00 | 48 | 1010.7 |
| 20260508191705 | 18 | 179 | 6.4 | 12.9 | 0.00 | 0.00 | 0.00 | 48 | 1010.7 |
| 20260508191540 | 18 | 134 | 8.0 | 12.9 | 0.00 | 0.00 | 0.00 | 48 | 1010.7 |
| 20260508191438 | 18 | 109 | 0.0 | 12.9 | 0.00 | 0.00 | 0.00 | 48 | 1010.7 |
| 20260508191357 | 18 | 133 | 6.4 | 12.9 | 0.00 | 0.00 | 0.00 | 49 | 1011.9 |
| 20260508191235 | 18 | 137 | 9.7 | 12.9 | 0.00 | 0.00 | 0.00 | 45 | 1011.9 |
| 20260508191134 | 18 | 215 | 9.7 | 11.3 | 0.00 | 0.00 | 0.00 | 45 | 1011.9 |
| 20260508191032 | 18 | 251 | 8.0 | 11.3 | 0.00 | 0.00 | 0.00 | 49 | 1011.9 |
| 20260508190932 | 18 | 210 | 8.0 | 11.3 | 0.00 | 0.00 | 0.00 | 48 | 1011.9 |
| 20260508190836 | 18 | 138 | 9.7 | 11.3 | 0.00 | 0.00 | 0.00 | 49 | 1011.9 |
| 20260508190734 | 18 | 130 | 6.4 | 11.3 | 0.00 | 0.00 | 0.00 | 46 | 1011.9 |
| 20260508190653 | 18 | 215 | 1.6 | 16.1 | 0.00 | 0.00 | 0.00 | 45 | 1011.9 |
| 20260508190532 | 18 | 168 | 3.2 | 16.1 | 0.00 | 0.00 | 0.00 | 44 | 1011.9 |
| 20260508190431 | 18 | 185 | 4.8 | 16.1 | 0.00 | 0.00 | 0.00 | 46 | 1011.9 |
| 20260508190331 | 18 | 172 | 1.6 | 16.1 | 0.00 | 0.00 | 0.00 | 47 | 1011.9 |
| 20260508190228 | 18 | 145 | 4.8 | 16.1 | 0.00 | 0.00 | 0.00 | 45 | 1011.9 |
| 20260508190200 | 18 | 205 | 4.8 | 16.1 | 0.00 | 0.00 | 0.00 | 45 | 1011.9 |
| 20260508190100 | 18 | 257 | 4.8 | 16.1 | 0.00 | 0.00 | 0.00 | 45 | 1011.9 |
| 20260508185937 | 18 | 217 | 4.8 | 16.1 | 0.00 | 0.00 | 0.00 | 45 | 1011.9 |
| 20260508185836 | 18 | 263 | 6.4 | 16.1 | 0.00 | 0.00 | 0.00 | 46 | 1011.8 |
| 20260508185735 | 18 | 95 | 6.4 | 14.5 | 0.00 | 0.00 | 0.00 | 48 | 1011.8 |
| 20260508185633 | 18 | 126 | 9.7 | 14.5 | 0.00 | 0.00 | 0.00 | 46 | 1011.8 |
| 20260508185531 | 18 | 199 | 9.7 | 14.5 | 0.00 | 0.00 | 0.00 | 48 | 1011.8 |
| 20260508185429 | 18 | 200 | 4.8 | 9.7 | 0.00 | 0.00 | 0.00 | 46 | 1011.8 |
| 20260508185332 | 18 | 195 | 4.8 | 9.7 | 0.00 | 0.00 | 0.00 | 47 | 1011.8 |
| 20260508185230 | 18 | 212 | 1.6 | 9.7 | 0.00 | 0.00 | 0.00 | 48 | 1011.8 |
| 20260508185128 | 18 | 247 | 4.8 | 9.7 | 0.00 | 0.00 | 0.00 | 48 | 1011.8 |
| 20260508185027 | 18 | 186 | 3.2 | 9.7 | 0.00 | 0.00 | 0.00 | 48 | 1011.8 |
| 20260508184928 | 18 | 158 | 3.2 | 9.7 | 0.00 | 0.00 | 0.00 | 48 | 1011.8 |
| 20260508184828 | 18 | 172 | 3.2 | 9.7 | 0.00 | 0.00 | 0.00 | 47 | 1011.8 |
| 20260508184742 | 18 | 160 | 0.0 | 9.7 | 0.00 | 0.00 | 0.00 | 46 | 1011.8 |
| 20260508184649 | 18 | 240 | 3.2 | 9.7 | 0.00 | 0.00 | 0.00 | 46 | 1011.8 |
| 20260508184527 | 18 | 154 | 1.6 | 9.7 | 0.00 | 0.00 | 0.00 | 44 | 1011.8 |
| 20260508184446 | 18 | 179 | 3.2 | 9.7 | 0.00 | 0.00 | 0.00 | 43 | 1011.8 |
| 20260508184342 | 18 | 219 | 3.2 | 11.3 | 0.00 | 0.00 | 0.00 | 46 | 1011.9 |
| 20260508184241 | 18 | 140 | 3.2 | 11.3 | 0.00 | 0.00 | 0.00 | 48 | 1011.9 |
| 20260508184140 | 18 | 278 | 3.2 | 11.3 | 0.00 | 0.00 | 0.00 | 46 | 1011.9 |
| 20260508184038 | 18 | 133 | 0.0 | 11.3 | 0.00 | 0.00 | 0.00 | 46 | 1011.9 |
| 20260508183956 | 18 | 158 | 0.0 | 12.9 | 0.00 | 0.00 | 0.00 | 45 | 1011.9 |
| 20260508183837 | 18 | 124 | 3.2 | 12.9 | 0.00 | 0.00 | 0.00 | 45 | 1011.9 |
| 20260508183735 | 18 | 161 | 1.6 | 12.9 | 0.00 | 0.00 | 0.00 | 46 | 1011.9 |
| 20260508183634 | 18 | 202 | 0.0 | 12.9 | 0.00 | 0.00 | 0.00 | 47 | 1011.9 |
| 20260508183533 | 18 | 162 | 4.8 | 12.9 | 0.00 | 0.00 | 0.00 | 47 | 1011.9 |
| 20260508183430 | 18 | 243 | 9.7 | 12.9 | 0.00 | 0.00 | 0.00 | 48 | 1011.9 |
| 20260508183328 | 18 | 157 | 4.8 | 12.9 | 0.00 | 0.00 | 0.00 | 47 | 1011.9 |
| 20260508183257 | 18 | 202 | 1.6 | 12.9 | 0.00 | 0.00 | 0.00 | 46 | 1011.9 |
| 20260508183146 | 18 | 175 | 6.4 | 12.9 | 0.00 | 0.00 | 0.00 | 46 | 1011.9 |
| 20260508183047 | 18 | 278 | 8.0 | 12.9 | 0.00 | 0.00 | 0.00 | 46 | 1011.9 |
| 20260508183006 | 19 | 140 | 8.0 | 17.7 | 0.00 | 0.00 | 0.00 | 50 | 1011.9 |
| 20260508182904 | 19 | 189 | 11.3 | 17.7 | 0.00 | 0.00 | 0.00 | 50 | 1012.3 |
| 20260508182741 | 19 | 165 | 4.8 | 17.7 | 0.00 | 0.00 | 0.00 | 47 | 1012.3 |
| 20260508182638 | 19 | 260 | 3.2 | 17.7 | 0.00 | 0.00 | 0.00 | 49 | 1012.3 |
| 20260508182536 | 19 | 195 | 1.6 | 17.7 | 0.00 | 0.00 | 0.00 | 48 | 1012.3 |
| 20260508182435 | 19 | 251 | 4.8 | 17.7 | 0.00 | 0.00 | 0.00 | 48 | 1012.3 |
| 20260508182335 | 19 | 133 | 6.4 | 17.7 | 0.00 | 0.00 | 0.00 | 47 | 1012.3 |
| 20260508182237 | 19 | 280 | 8.0 | 17.7 | 0.00 | 0.00 | 0.00 | 48 | 1012.3 |
| 20260508182135 | 19 | 179 | 12.9 | 17.7 | 0.00 | 0.00 | 0.00 | 45 | 1012.3 |
| 20260508182033 | 19 | 246 | 9.7 | 12.9 | 0.00 | 0.00 | 0.00 | 45 | 1012.3 |
| 20260508181930 | 19 | 230 | 9.7 | 12.9 | 0.00 | 0.00 | 0.00 | 47 | 1012.3 |
| 20260508181829 | 19 | 137 | 4.8 | 12.9 | 0.00 | 0.00 | 0.00 | 47 | 1012.3 |
| 20260508181728 | 19 | 121 | 4.8 | 12.9 | 0.00 | 0.00 | 0.00 | 44 | 1012.3 |
| 20260508181658 | 19 | 165 | 6.4 | 12.9 | 0.00 | 0.00 | 0.00 | 44 | 1012.3 |
| 20260508181555 | 19 | 133 | 8.0 | 12.9 | 0.00 | 0.00 | 0.00 | 44 | 1012.3 |
| 20260508181437 | 19 | 176 | 6.4 | 12.9 | 0.00 | 0.00 | 0.00 | 44 | 1012.3 |
| 20260508181335 | 19 | 282 | 4.8 | 12.9 | 0.00 | 0.00 | 0.00 | 44 | 1012.5 |
| 20260508181234 | 19 | 199 | 4.8 | 12.9 | 0.00 | 0.00 | 0.00 | 45 | 1012.5 |
| 20260508181131 | 19 | 234 | 3.2 | 12.9 | 0.00 | 0.00 | 0.00 | 45 | 1012.5 |
| 20260508181030 | 19 | 174 | 6.4 | 12.9 | 0.00 | 0.00 | 0.00 | 45 | 1012.5 |
| 20260508180929 | 19 | 215 | 9.7 | 12.9 | 0.00 | 0.00 | 0.00 | 45 | 1012.5 |
| 20260508180828 | 20 | 236 | 9.7 | 12.9 | 0.00 | 0.00 | 0.00 | 45 | 1012.5 |
| 20260508180730 | 20 | 151 | 4.8 | 11.3 | 0.00 | 0.00 | 0.00 | 43 | 1012.5 |
| 20260508180629 | 20 | 258 | 4.8 | 11.3 | 0.00 | 0.00 | 0.00 | 44 | 1012.5 |
| 20260508180529 | 20 | 316 | 1.6 | 14.5 | 0.00 | 0.00 | 0.00 | 44 | 1012.5 |
| 20260508180428 | 20 | 110 | 0.0 | 16.1 | 0.00 | 0.00 | 0.00 | 44 | 1012.5 |
| 20260508180347 | 20 | 124 | 3.2 | 16.1 | 0.00 | 0.00 | 0.00 | 44 | 1012.5 |
| 20260508180235 | 20 | 217 | 1.6 | 16.1 | 0.00 | 0.00 | 0.00 | 36 | 1012.5 |
| 20260508180144 | 20 | 206 | 0.0 | 16.1 | 0.00 | 0.00 | 0.00 | 36 | 1012.5 |
| 20260508180025 | 20 | 104 | 6.4 | 16.1 | 0.00 | 0.00 | 0.00 | 36 | 1012.5 |
| 20260508175927 | 20 | 114 | 6.4 | 16.1 | 0.00 | 0.00 | 0.00 | 36 | 1012.5 |
| 20260508175846 | 20 | 116 | 8.0 | 16.1 | 0.00 | 0.00 | 0.00 | 39 | 1012.8 |
| 20260508175743 | 20 | 239 | 11.3 | 16.1 | 0.00 | 0.00 | 0.00 | 39 | 1012.8 |
| 20260508175642 | 20 | 123 | 8.0 | 16.1 | 0.00 | 0.00 | 0.00 | 42 | 1012.8 |
| 20260508175540 | 20 | 222 | 3.2 | 11.3 | 0.00 | 0.00 | 0.00 | 38 | 1012.8 |
| 20260508175438 | 20 | 234 | 4.8 | 11.3 | 0.00 | 0.00 | 0.00 | 38 | 1012.8 |
| 20260508175358 | 20 | 155 | 1.6 | 12.9 | 0.00 | 0.00 | 0.00 | 38 | 1012.8 |
| 20260508175255 | 20 | 219 | 3.2 | 12.9 | 0.00 | 0.00 | 0.00 | 40 | 1012.8 |
| 20260508175136 | 20 | 175 | 4.8 | 16.1 | 0.00 | 0.00 | 0.00 | 40 | 1012.8 |
| 20260508175035 | 20 | 318 | 6.4 | 17.7 | 0.00 | 0.00 | 0.00 | 40 | 1012.8 |
| 20260508174933 | 20 | 186 | 8.0 | 17.7 | 0.00 | 0.00 | 0.00 | 40 | 1012.8 |
| 20260508174832 | 20 | 215 | 3.2 | 17.7 | 0.00 | 0.00 | 0.00 | 40 | 1012.8 |
| 20260508174729 | 20 | 254 | 6.4 | 17.7 | 0.00 | 0.00 | 0.00 | 38 | 1012.8 |
| 20260508174657 | 20 | 206 | 8.0 | 17.7 | 0.00 | 0.00 | 0.00 | 38 | 1012.8 |
| 20260508174535 | 20 | 315 | 9.7 | 17.7 | 0.00 | 0.00 | 0.00 | 45 | 1012.8 |
| 20260508174438 | 20 | 205 | 9.7 | 17.7 | 0.00 | 0.00 | 0.00 | 45 | 1012.8 |
| 20260508174335 | 20 | 172 | 9.7 | 17.7 | 0.00 | 0.00 | 0.00 | 45 | 1013.0 |
| 20260508174234 | 20 | 223 | 11.3 | 17.7 | 0.00 | 0.00 | 0.00 | 45 | 1013.0 |
| 20260508174132 | 20 | 203 | 6.4 | 16.1 | 0.00 | 0.00 | 0.00 | 46 | 1013.0 |
| 20260508174031 | 20 | 229 | 4.8 | 16.1 | 0.00 | 0.00 | 0.00 | 45 | 1013.0 |
| 20260508173929 | 20 | 199 | 4.8 | 16.1 | 0.00 | 0.00 | 0.00 | 41 | 1013.0 |
| 20260508173827 | 20 | 178 | 8.0 | 16.1 | 0.00 | 0.00 | 0.00 | 40 | 1013.0 |
| 20260508173750 | 20 | 144 | 6.4 | 16.1 | 0.00 | 0.00 | 0.00 | 39 | 1013.0 |
| 20260508173627 | 20 | 157 | 4.8 | 16.1 | 0.00 | 0.00 | 0.00 | 42 | 1013.0 |
| 20260508173528 | 20 | 196 | 6.4 | 12.9 | 0.00 | 0.00 | 0.00 | 41 | 1013.0 |
| 20260508173426 | 20 | 326 | 0.0 | 12.9 | 0.00 | 0.00 | 0.00 | 39 | 1013.0 |
| 20260508173325 | 20 | 224 | 0.0 | 22.5 | 0.00 | 0.00 | 0.00 | 42 | 1013.0 |
| 20260508173224 | 20 | 291 | 4.8 | 22.5 | 0.00 | 0.00 | 0.00 | 45 | 1013.0 |
| 20260508173159 | 20 | 325 | 8.0 | 22.5 | 0.00 | 0.00 | 0.00 | 45 | 1013.0 |
| 20260508173055 | 20 | 311 | 8.0 | 22.5 | 0.00 | 0.00 | 0.00 | 43 | 1013.0 |
| 20260508172936 | 20 | 250 | 1.6 | 22.5 | 0.00 | 0.00 | 0.00 | 43 | 1013.0 |
| 20260508172855 | 20 | 263 | 3.2 | 22.5 | 0.00 | 0.00 | 0.00 | 42 | 1013.5 |
| 20260508172752 | 20 | 247 | 4.8 | 22.5 | 0.00 | 0.00 | 0.00 | 46 | 1013.5 |
| 20260508172712 | 20 | 222 | 4.8 | 22.5 | 0.00 | 0.00 | 0.00 | 46 | 1013.5 |
| 20260508172547 | 19 | 198 | 9.7 | 22.5 | 0.00 | 0.00 | 0.00 | 44 | 1013.5 |
| 20260508172505 | 19 | 306 | 9.7 | 22.5 | 0.00 | 0.00 | 0.00 | 44 | 1013.5 |
| 20260508172342 | 19 | 128 | 4.8 | 20.9 | 0.00 | 0.00 | 0.00 | 44 | 1013.5 |
| 20260508172240 | 19 | 62 | 6.4 | 20.9 | 0.00 | 0.00 | 0.00 | 41 | 1013.5 |
| 20260508172139 | 19 | 103 | 9.7 | 20.9 | 0.00 | 0.00 | 0.00 | 44 | 1013.5 |
| 20260508172057 | 19 | 191 | 1.6 | 12.9 | 0.00 | 0.00 | 0.00 | 44 | 1013.5 |
| 20260508171938 | 19 | 217 | 3.2 | 12.9 | 0.00 | 0.00 | 0.00 | 46 | 1013.5 |
| 20260508171836 | 19 | 248 | 4.8 | 12.9 | 0.00 | 0.00 | 0.00 | 44 | 1013.5 |
| 20260508171734 | 19 | 210 | 4.8 | 12.9 | 0.00 | 0.00 | 0.00 | 44 | 1013.5 |
| 20260508171704 | 19 | 213 | 1.6 | 19.3 | 0.00 | 0.00 | 0.00 | 44 | 1013.5 |
| 20260508171603 | 19 | 209 | 4.8 | 19.3 | 0.00 | 0.00 | 0.00 | 47 | 1013.5 |
| 20260508171439 | 19 | 278 | 4.8 | 19.3 | 0.00 | 0.00 | 0.00 | 46 | 1013.5 |
| 20260508171340 | 19 | 265 | 1.6 | 19.3 | 0.00 | 0.00 | 0.00 | 45 | 1013.9 |
| 20260508171238 | 19 | 268 | 6.4 | 19.3 | 0.00 | 0.00 | 0.00 | 48 | 1013.9 |
| 20260508171141 | 19 | 272 | 6.4 | 19.3 | 0.00 | 0.00 | 0.00 | 48 | 1013.9 |
| 20260508171100 | 18 | 256 | 6.4 | 19.3 | 0.00 | 0.00 | 0.00 | 48 | 1013.9 |
| 20260508170937 | 18 | 278 | 8.0 | 19.3 | 0.00 | 0.00 | 0.00 | 48 | 1013.9 |
| 20260508170836 | 18 | 258 | 6.4 | 19.3 | 0.00 | 0.00 | 0.00 | 47 | 1013.9 |
| 20260508170735 | 18 | 227 | 9.7 | 19.3 | 0.00 | 0.00 | 0.00 | 45 | 1013.9 |
| 20260508170632 | 18 | 209 | 1.6 | 17.7 | 0.00 | 0.00 | 0.00 | 46 | 1013.9 |
| 20260508170532 | 18 | 175 | 3.2 | 17.7 | 0.00 | 0.00 | 0.00 | 49 | 1013.9 |
| 20260508170450 | 18 | 185 | 1.6 | 17.7 | 0.00 | 0.00 | 0.00 | 48 | 1013.9 |
| 20260508170332 | 18 | 189 | 1.6 | 17.7 | 0.00 | 0.00 | 0.00 | 48 | 1013.9 |
| 20260508170241 | 18 | 169 | 3.2 | 17.7 | 0.00 | 0.00 | 0.00 | 46 | 1013.9 |
| 20260508170151 | 18 | 138 | 1.6 | 17.7 | 0.00 | 0.00 | 0.00 | 47 | 1013.9 |
| 20260508170048 | 18 | 147 | 6.4 | 17.7 | 0.00 | 0.00 | 0.00 | 47 | 1013.9 |
| 20260508165945 | 18 | 216 | 11.3 | 17.7 | 0.00 | 0.00 | 0.00 | 45 | 1013.9 |
| 20260508165904 | 18 | 97 | 9.7 | 17.7 | 0.00 | 0.00 | 0.00 | 44 | 1013.8 |
| 20260508165742 | 18 | 168 | 1.6 | 16.1 | 0.00 | 0.00 | 0.00 | 44 | 1013.8 |
| 20260508165641 | 18 | 182 | 1.6 | 16.1 | 0.00 | 0.00 | 0.00 | 48 | 1013.8 |
| 20260508165600 | 18 | 174 | 4.8 | 16.1 | 0.00 | 0.00 | 0.00 | 47 | 1013.8 |
| 20260508165441 | 18 | 179 | 6.4 | 16.1 | 0.00 | 0.00 | 0.00 | 47 | 1013.8 |
| 20260508165340 | 18 | 165 | 1.6 | 16.1 | 0.00 | 0.00 | 0.00 | 45 | 1013.8 |
| 20260508165239 | 18 | 147 | 6.4 | 16.1 | 0.00 | 0.00 | 0.00 | 46 | 1013.8 |
| 20260508165203 | 18 | 120 | 8.0 | 16.1 | 0.00 | 0.00 | 0.00 | 44 | 1013.8 |
| 20260508165039 | 18 | 280 | 9.7 | 16.1 | 0.00 | 0.00 | 0.00 | 44 | 1013.8 |
| 20260508164938 | 18 | 141 | 9.7 | 16.1 | 0.00 | 0.00 | 0.00 | 46 | 1013.8 |
| 20260508164836 | 18 | 193 | 1.6 | 14.5 | 0.00 | 0.00 | 0.00 | 46 | 1013.8 |
| 20260508164738 | 18 | 160 | 1.6 | 14.5 | 0.00 | 0.00 | 0.00 | 48 | 1013.8 |
| 20260508164708 | 18 | 254 | 3.2 | 14.5 | 0.00 | 0.00 | 0.00 | 44 | 1013.8 |
| 20260508164524 | 18 | 192 | 3.2 | 14.5 | 0.00 | 0.00 | 0.00 | 44 | 1013.8 |
| 20260508164424 | 18 | 203 | 8.0 | 14.5 | 0.00 | 0.00 | 0.00 | 47 | 1013.8 |
| 20260508164343 | 18 | 219 | 8.0 | 14.5 | 0.00 | 0.00 | 0.00 | 47 | 1013.7 |
| 20260508164242 | 18 | 230 | 4.8 | 12.9 | 0.00 | 0.00 | 0.00 | 44 | 1013.7 |
| 20260508164139 | 18 | 158 | 6.4 | 12.9 | 0.00 | 0.00 | 0.00 | 48 | 1013.7 |
| 20260508164043 | 18 | 248 | 1.6 | 12.9 | 0.00 | 0.00 | 0.00 | 48 | 1013.7 |
| 20260508163941 | 18 | 299 | 1.6 | 12.9 | 0.00 | 0.00 | 0.00 | 47 | 1013.7 |
| 20260508163859 | 18 | 284 | 1.6 | 12.9 | 0.00 | 0.00 | 0.00 | 47 | 1013.7 |
| 20260508163736 | 18 | 285 | 3.2 | 12.9 | 0.00 | 0.00 | 0.00 | 47 | 1013.7 |
| 20260508163635 | 18 | 282 | 1.6 | 12.9 | 0.00 | 0.00 | 0.00 | 47 | 1013.7 |
| 20260508163533 | 18 | 277 | 8.0 | 12.9 | 0.00 | 0.00 | 0.00 | 49 | 1013.7 |
| 20260508163432 | 18 | 189 | 8.0 | 12.9 | 0.00 | 0.00 | 0.00 | 49 | 1013.7 |
| 20260508163350 | 18 | 205 | 4.8 | 12.9 | 0.00 | 0.00 | 0.00 | 49 | 1013.7 |
| 20260508163233 | 18 | 219 | 4.8 | 12.9 | 0.00 | 0.00 | 0.00 | 48 | 1013.7 |
| 20260508163205 | 18 | 232 | 3.2 | 12.9 | 0.00 | 0.00 | 0.00 | 48 | 1013.7 |
| 20260508163041 | 18 | 147 | 1.6 | 16.1 | 0.00 | 0.00 | 0.00 | 47 | 1013.7 |
| 20260508162939 | 18 | 127 | 1.6 | 20.9 | 0.00 | 0.00 | 0.00 | 47 | 1013.7 |
| 20260508162837 | 18 | 116 | 3.2 | 20.9 | 0.00 | 0.00 | 0.00 | 47 | 1014.0 |
| 20260508162735 | 18 | 178 | 8.0 | 20.9 | 0.00 | 0.00 | 0.00 | 47 | 1014.0 |
| 20260508162634 | 18 | 158 | 9.7 | 20.9 | 0.00 | 0.00 | 0.00 | 47 | 1014.0 |
| 20260508162537 | 18 | 141 | 4.8 | 20.9 | 0.00 | 0.00 | 0.00 | 47 | 1014.0 |
| 20260508162435 | 18 | 219 | 0.0 | 20.9 | 0.00 | 0.00 | 0.00 | 48 | 1014.0 |
| 20260508162333 | 18 | 236 | 6.4 | 20.9 | 0.00 | 0.00 | 0.00 | 51 | 1014.0 |
| 20260508162232 | 18 | 206 | 11.3 | 20.9 | 0.00 | 0.00 | 0.00 | 52 | 1014.0 |
| 20260508162130 | 18 | 217 | 14.5 | 20.9 | 0.00 | 0.00 | 0.00 | 52 | 1014.0 |
| 20260508162030 | 17 | 157 | 8.0 | 17.7 | 0.00 | 0.00 | 0.00 | 52 | 1014.0 |
| 20260508161928 | 17 | 295 | 6.4 | 17.7 | 0.00 | 0.00 | 0.00 | 53 | 1014.0 |
| 20260508161830 | 17 | 234 | 6.4 | 17.7 | 0.00 | 0.00 | 0.00 | 53 | 1014.0 |
| 20260508161749 | 17 | 209 | 6.4 | 17.7 | 0.00 | 0.00 | 0.00 | 50 | 1014.0 |
| 20260508161719 | 17 | 196 | 4.8 | 17.7 | 0.00 | 0.00 | 0.00 | 50 | 1014.0 |
| 20260508161557 | 17 | 92 | 3.2 | 17.7 | 0.00 | 0.00 | 0.00 | 48 | 1014.0 |
| 20260508161434 | 17 | 92 | 9.7 | 17.7 | 0.00 | 0.00 | 0.00 | 50 | 1014.0 |
| 20260508161352 | 17 | 136 | 8.0 | 17.7 | 0.00 | 0.00 | 0.00 | 50 | 1014.2 |
| 20260508161230 | 17 | 154 | 11.3 | 17.7 | 0.00 | 0.00 | 0.00 | 50 | 1014.2 |
| 20260508161128 | 17 | 145 | 6.4 | 12.9 | 0.00 | 0.00 | 0.00 | 51 | 1014.2 |
| 20260508161030 | 17 | 152 | 8.0 | 12.9 | 0.00 | 0.00 | 0.00 | 52 | 1014.2 |
| 20260508160949 | 17 | 219 | 3.2 | 12.9 | 0.00 | 0.00 | 0.00 | 53 | 1014.2 |
| 20260508160827 | 17 | 248 | 8.0 | 12.9 | 0.00 | 0.00 | 0.00 | 53 | 1014.2 |
| 20260508160746 | 17 | 184 | 3.2 | 12.9 | 0.00 | 0.00 | 0.00 | 52 | 1014.2 |
| 20260508160703 | 17 | 251 | 1.6 | 12.9 | 0.00 | 0.00 | 0.00 | 51 | 1014.2 |
| 20260508160540 | 17 | 127 | 4.8 | 12.9 | 0.00 | 0.00 | 0.00 | 51 | 1014.2 |
| 20260508160439 | 17 | 258 | 8.0 | 12.9 | 0.00 | 0.00 | 0.00 | 50 | 1014.2 |
| 20260508160337 | 17 | 230 | 3.2 | 12.9 | 0.00 | 0.00 | 0.00 | 49 | 1014.2 |
| 20260508160240 | 17 | 216 | 1.6 | 16.1 | 0.00 | 0.00 | 0.00 | 50 | 1014.2 |
| 20260508160210 | 17 | 189 | 4.8 | 16.1 | 0.00 | 0.00 | 0.00 | 51 | 1014.2 |
| 20260508160027 | 17 | 157 | 6.4 | 16.1 | 0.00 | 0.00 | 0.00 | 53 | 1014.2 |
| 20260508155924 | 17 | 254 | 3.2 | 19.3 | 0.00 | 0.00 | 0.00 | 51 | 1014.2 |
| 20260508155846 | 17 | 168 | 1.6 | 19.3 | 0.00 | 0.00 | 0.00 | 50 | 1013.4 |
| 20260508155803 | 17 | 136 | 4.8 | 19.3 | 0.00 | 0.00 | 0.00 | 54 | 1013.4 |
| 20260508155702 | 17 | 119 | 6.4 | 19.3 | 0.00 | 0.00 | 0.00 | 51 | 1013.4 |
| 20260508155537 | 17 | 176 | 6.4 | 19.3 | 0.00 | 0.00 | 0.00 | 53 | 1013.4 |
| 20260508155456 | 17 | 195 | 6.4 | 19.3 | 0.00 | 0.00 | 0.00 | 54 | 1013.4 |
| 20260508155335 | 17 | 205 | 8.0 | 19.3 | 0.00 | 0.00 | 0.00 | 53 | 1013.4 |
| 20260508155237 | 17 | 96 | 11.3 | 19.3 | 0.00 | 0.00 | 0.00 | 53 | 1013.4 |
| 20260508155136 | 17 | 148 | 16.1 | 19.3 | 0.00 | 0.00 | 0.00 | 50 | 1013.4 |
| 20260508155055 | 17 | 186 | 11.3 | 17.7 | 0.00 | 0.00 | 0.00 | 53 | 1013.4 |
| 20260508154932 | 17 | 176 | 8.0 | 17.7 | 0.00 | 0.00 | 0.00 | 53 | 1013.4 |
| 20260508154829 | 17 | 223 | 11.3 | 17.7 | 0.00 | 0.00 | 0.00 | 51 | 1013.4 |
| 20260508154727 | 17 | 179 | 8.0 | 12.9 | 0.00 | 0.00 | 0.00 | 53 | 1013.4 |
| 20260508154657 | 17 | 264 | 6.4 | 12.9 | 0.00 | 0.00 | 0.00 | 53 | 1013.4 |
| 20260508154558 | 17 | 150 | 6.4 | 12.9 | 0.00 | 0.00 | 0.00 | 52 | 1013.4 |
| 20260508154422 | 16 | 160 | 8.0 | 12.9 | 0.00 | 0.00 | 0.00 | 50 | 1013.4 |
| 20260508154324 | 16 | 127 | 1.6 | 14.5 | 0.00 | 0.00 | 0.00 | 48 | 1013.5 |
| 20260508154242 | 16 | 123 | 0.0 | 14.5 | 0.00 | 0.00 | 0.00 | 48 | 1013.5 |
| 20260508154140 | 16 | 123 | 6.4 | 19.3 | 0.00 | 0.00 | 0.00 | 50 | 1013.5 |
| 20260508154040 | 16 | 199 | 6.4 | 19.3 | 0.00 | 0.00 | 0.00 | 51 | 1013.5 |
| 20260508154000 | 16 | 227 | 4.8 | 19.3 | 0.00 | 0.00 | 0.00 | 51 | 1013.5 |
| 20260508153858 | 16 | 210 | 3.2 | 19.3 | 0.00 | 0.00 | 0.00 | 48 | 1013.5 |
| 20260508153737 | 16 | 213 | 4.8 | 19.3 | 0.00 | 0.00 | 0.00 | 49 | 1013.5 |
| 20260508153637 | 16 | 206 | 4.8 | 19.3 | 0.00 | 0.00 | 0.00 | 49 | 1013.5 |
| 20260508153535 | 16 | 227 | 9.7 | 19.3 | 0.00 | 0.00 | 0.00 | 47 | 1013.5 |
| 20260508153433 | 16 | 256 | 8.0 | 19.3 | 0.00 | 0.00 | 0.00 | 47 | 1013.5 |
| 20260508153350 | 16 | 278 | 12.9 | 19.3 | 0.00 | 0.00 | 0.00 | 46 | 1013.5 |
| 20260508153229 | 16 | 165 | 11.3 | 17.7 | 0.00 | 0.00 | 0.00 | 52 | 1013.5 |
| 20260508153159 | 16 | 148 | 6.4 | 17.7 | 0.00 | 0.00 | 0.00 | 52 | 1013.5 |
| 20260508153040 | 16 | 220 | 6.4 | 17.7 | 0.00 | 0.00 | 0.00 | 50 | 1013.5 |
| 20260508152938 | 16 | 116 | 9.7 | 17.7 | 0.00 | 0.00 | 0.00 | 51 | 1013.5 |
| 20260508152840 | 16 | 138 | 9.7 | 17.7 | 0.00 | 0.00 | 0.00 | 52 | 1013.6 |
| 20260508152740 | 16 | 181 | 8.0 | 17.7 | 0.00 | 0.00 | 0.00 | 53 | 1013.6 |
| 20260508152638 | 16 | 154 | 11.3 | 19.3 | 0.00 | 0.00 | 0.00 | 54 | 1013.6 |
| 20260508152536 | 16 | 130 | 9.7 | 19.3 | 0.00 | 0.00 | 0.00 | 53 | 1013.6 |
| 20260508152434 | 16 | 144 | 8.0 | 19.3 | 0.00 | 0.00 | 0.00 | 53 | 1013.6 |
| 20260508152332 | 16 | 172 | 6.4 | 19.3 | 0.00 | 0.00 | 0.00 | 53 | 1013.6 |
| 20260508152250 | 16 | 100 | 6.4 | 19.3 | 0.00 | 0.00 | 0.00 | 54 | 1013.6 |
| 20260508152131 | 16 | 223 | 11.3 | 19.3 | 0.00 | 0.00 | 0.00 | 53 | 1013.6 |
| 20260508152028 | 16 | 182 | 8.0 | 19.3 | 0.00 | 0.00 | 0.00 | 53 | 1013.6 |
| 20260508151927 | 16 | 96 | 0.0 | 19.3 | 0.00 | 0.00 | 0.00 | 53 | 1013.6 |
| 20260508151829 | 16 | 96 | 9.7 | 19.3 | 0.00 | 0.00 | 0.00 | 54 | 1013.6 |
| 20260508151726 | 16 | 113 | 9.7 | 16.1 | 0.00 | 0.00 | 0.00 | 52 | 1013.6 |
| 20260508151657 | 16 | 167 | 9.7 | 16.1 | 0.00 | 0.00 | 0.00 | 52 | 1013.6 |
| 20260508151538 | 16 | 121 | 11.3 | 19.3 | 0.00 | 0.00 | 0.00 | 50 | 1013.6 |
| 20260508151441 | 15 | 124 | 8.0 | 19.3 | 0.00 | 0.00 | 0.00 | 50 | 1013.6 |
| 20260508151339 | 15 | 112 | 1.6 | 19.3 | 0.00 | 0.00 | 0.00 | 50 | 1013.9 |
| 20260508151238 | 15 | 193 | 3.2 | 19.3 | 0.00 | 0.00 | 0.00 | 52 | 1013.9 |
| 20260508151137 | 15 | 158 | 3.2 | 19.3 | 0.00 | 0.00 | 0.00 | 53 | 1013.9 |
| 20260508151037 | 15 | 138 | 6.4 | 19.3 | 0.00 | 0.00 | 0.00 | 52 | 1013.9 |
| 20260508150935 | 15 | 205 | 8.0 | 19.3 | 0.00 | 0.00 | 0.00 | 54 | 1013.9 |
| 20260508150838 | 15 | 264 | 9.7 | 19.3 | 0.00 | 0.00 | 0.00 | 53 | 1013.9 |
| 20260508150736 | 15 | 103 | 9.7 | 19.3 | 0.00 | 0.00 | 0.00 | 53 | 1013.9 |
| 20260508150634 | 15 | 178 | 12.9 | 19.3 | 0.00 | 0.00 | 0.00 | 52 | 1013.9 |
| 20260508150532 | 15 | 131 | 4.8 | 19.3 | 0.00 | 0.00 | 0.00 | 52 | 1013.9 |
| 20260508150430 | 15 | 179 | 3.2 | 19.3 | 0.00 | 0.00 | 0.00 | 53 | 1013.9 |
| 20260508150328 | 15 | 226 | 3.2 | 19.3 | 0.00 | 0.00 | 0.00 | 53 | 1013.9 |
| 20260508150237 | 15 | 172 | 6.4 | 19.3 | 0.00 | 0.00 | 0.00 | 52 | 1013.9 |
| 20260508150148 | 15 | 167 | 4.8 | 19.3 | 0.00 | 0.00 | 0.00 | 54 | 1013.9 |
| 20260508150029 | 15 | 172 | 4.8 | 19.3 | 0.00 | 0.00 | 0.00 | 54 | 1013.9 |
| 20260508145948 | 15 | 143 | 3.2 | 19.3 | 0.00 | 0.00 | 0.00 | 54 | 1013.9 |
| 20260508145825 | 15 | 200 | 9.7 | 19.3 | 0.00 | 0.00 | 0.00 | 53 | 1013.9 |
| 20260508145744 | 15 | 210 | 3.2 | 19.3 | 0.00 | 0.00 | 0.00 | 53 | 1013.9 |
| 20260508145703 | 15 | 147 | 4.8 | 19.3 | 0.00 | 0.00 | 0.00 | 55 | 1013.9 |
| 20260508145539 | 15 | 121 | 11.3 | 19.3 | 0.00 | 0.00 | 0.00 | 54 | 1013.9 |
| 20260508145439 | 15 | 208 | 11.3 | 19.3 | 0.00 | 0.00 | 0.00 | 53 | 1013.9 |
| 20260508145356 | 15 | 270 | 12.9 | 19.3 | 0.00 | 0.00 | 0.00 | 55 | 1013.9 |
| 20260508145238 | 15 | 117 | 14.5 | 19.3 | 0.00 | 0.00 | 0.00 | 54 | 1013.9 |
| 20260508145137 | 15 | 203 | 4.8 | 17.7 | 0.00 | 0.00 | 0.00 | 53 | 1013.9 |
| 20260508145035 | 15 | 185 | 4.8 | 17.7 | 0.00 | 0.00 | 0.00 | 53 | 1013.9 |
| 20260508144934 | 15 | 162 | 8.0 | 17.7 | 0.00 | 0.00 | 0.00 | 54 | 1013.9 |
| 20260508144833 | 15 | 155 | 1.6 | 17.7 | 0.00 | 0.00 | 0.00 | 52 | 1013.9 |
| 20260508144743 | 15 | 148 | 4.8 | 17.7 | 0.00 | 0.00 | 0.00 | 52 | 1013.9 |
| 20260508144652 | 15 | 138 | 1.6 | 17.7 | 0.00 | 0.00 | 0.00 | 53 | 1013.9 |
| 20260508144531 | 15 | 169 | 6.4 | 17.7 | 0.00 | 0.00 | 0.00 | 53 | 1013.9 |
| 20260508144430 | 15 | 130 | 11.3 | 17.7 | 0.00 | 0.00 | 0.00 | 55 | 1013.9 |
| 20260508144348 | 15 | 138 | 14.5 | 17.7 | 0.00 | 0.00 | 0.00 | 54 | 1014.1 |
| 20260508144246 | 15 | 123 | 12.9 | 16.1 | 0.00 | 0.00 | 0.00 | 53 | 1014.1 |
| 20260508144204 | 15 | 220 | 9.7 | 16.1 | 0.00 | 0.00 | 0.00 | 56 | 1014.1 |
| 20260508144040 | 15 | 165 | 6.4 | 12.9 | 0.00 | 0.00 | 0.00 | 56 | 1014.1 |
| 20260508143938 | 15 | 169 | 6.4 | 14.5 | 0.00 | 0.00 | 0.00 | 55 | 1014.1 |
| 20260508143859 | 14 | 114 | 3.2 | 14.5 | 0.00 | 0.00 | 0.00 | 56 | 1014.1 |
| 20260508143736 | 14 | 143 | 4.8 | 14.5 | 0.00 | 0.00 | 0.00 | 55 | 1014.1 |
| 20260508143638 | 14 | 203 | 8.0 | 14.5 | 0.00 | 0.00 | 0.00 | 57 | 1014.1 |
| 20260508143536 | 14 | 155 | 4.8 | 14.5 | 0.00 | 0.00 | 0.00 | 57 | 1014.1 |
| 20260508143434 | 14 | 226 | 3.2 | 14.5 | 0.00 | 0.00 | 0.00 | 57 | 1014.1 |
| 20260508143332 | 14 | 151 | 1.6 | 14.5 | 0.00 | 0.00 | 0.00 | 57 | 1014.1 |
| 20260508143242 | 14 | 158 | 8.0 | 14.5 | 0.00 | 0.00 | 0.00 | 56 | 1014.1 |
| 20260508143153 | 14 | 304 | 9.7 | 16.1 | 0.00 | 0.00 | 0.00 | 57 | 1014.1 |
| 20260508143029 | 14 | 161 | 1.6 | 16.1 | 0.00 | 0.00 | 0.00 | 57 | 1014.1 |
| 20260508142931 | 14 | 206 | 8.0 | 16.1 | 0.00 | 0.00 | 0.00 | 55 | 1014.1 |
| 20260508142831 | 14 | 160 | 0.0 | 16.1 | 0.00 | 0.00 | 0.00 | 54 | 1014.2 |
| 20260508142730 | 14 | 208 | 3.2 | 16.1 | 0.00 | 0.00 | 0.00 | 54 | 1014.2 |
| 20260508142652 | 14 | 306 | 3.2 | 16.1 | 0.00 | 0.00 | 0.00 | 56 | 1014.2 |
| 20260508142530 | 14 | 117 | 4.8 | 16.1 | 0.00 | 0.00 | 0.00 | 56 | 1014.2 |
| 20260508142427 | 14 | 155 | 6.4 | 16.1 | 0.00 | 0.00 | 0.00 | 56 | 1014.2 |
| 20260508142323 | 14 | 275 | 11.3 | 16.1 | 0.00 | 0.00 | 0.00 | 53 | 1014.2 |
| 20260508142242 | 14 | 131 | 6.4 | 12.9 | 0.00 | 0.00 | 0.00 | 53 | 1014.2 |
| 20260508142202 | 14 | 261 | 3.2 | 12.9 | 0.00 | 0.00 | 0.00 | 55 | 1014.2 |
| 20260508142039 | 13 | 93 | 0.0 | 14.5 | 0.00 | 0.00 | 0.00 | 55 | 1014.2 |
| 20260508141937 | 13 | 174 | 1.6 | 14.5 | 0.00 | 0.00 | 0.00 | 56 | 1014.2 |
| 20260508141856 | 13 | 256 | 1.6 | 14.5 | 0.00 | 0.00 | 0.00 | 55 | 1014.2 |
| 20260508141733 | 13 | 251 | 6.4 | 14.5 | 0.00 | 0.00 | 0.00 | 55 | 1014.2 |
| 20260508141703 | 13 | 203 | 8.0 | 14.5 | 0.00 | 0.00 | 0.00 | 55 | 1014.2 |
| 20260508141600 | 13 | 222 | 4.8 | 17.7 | 0.00 | 0.00 | 0.00 | 53 | 1014.2 |
| 20260508141438 | 13 | 172 | 4.8 | 19.3 | 0.00 | 0.00 | 0.00 | 52 | 1014.2 |
| 20260508141340 | 13 | 233 | 9.7 | 19.3 | 0.00 | 0.00 | 0.00 | 53 | 1014.1 |
| 20260508141239 | 13 | 312 | 8.0 | 19.3 | 0.00 | 0.00 | 0.00 | 54 | 1014.1 |
| 20260508141138 | 13 | 186 | 6.4 | 19.3 | 0.00 | 0.00 | 0.00 | 52 | 1014.1 |
| 20260508141036 | 13 | 258 | 6.4 | 19.3 | 0.00 | 0.00 | 0.00 | 52 | 1014.1 |
| 20260508140934 | 13 | 192 | 9.7 | 19.3 | 0.00 | 0.00 | 0.00 | 52 | 1014.1 |
| 20260508140853 | 13 | 112 | 11.3 | 19.3 | 0.00 | 0.00 | 0.00 | 53 | 1014.1 |
| 20260508140751 | 13 | 110 | 11.3 | 19.3 | 0.00 | 0.00 | 0.00 | 54 | 1014.1 |
| 20260508140628 | 13 | 311 | 14.5 | 19.3 | 0.00 | 0.00 | 0.00 | 54 | 1014.1 |
| 20260508140532 | 13 | 326 | 9.7 | 17.7 | 0.00 | 0.00 | 0.00 | 55 | 1014.1 |
| 20260508140430 | 13 | 160 | 9.7 | 19.3 | 0.00 | 0.00 | 0.00 | 57 | 1014.1 |
| 20260508140327 | 13 | 326 | 6.4 | 19.3 | 0.00 | 0.00 | 0.00 | 57 | 1014.1 |
| 20260508140258 | 13 | 261 | 9.7 | 19.3 | 0.00 | 0.00 | 0.00 | 56 | 1014.1 |
| 20260508140147 | 13 | 275 | 6.4 | 19.3 | 0.00 | 0.00 | 0.00 | 55 | 1014.1 |
| 20260508140043 | 13 | 145 | 4.8 | 19.3 | 0.00 | 0.00 | 0.00 | 56 | 1014.1 |
| 20260508140002 | 13 | 251 | 6.4 | 19.3 | 0.00 | 0.00 | 0.00 | 58 | 1014.1 |
| 20260508135839 | 13 | 289 | 9.7 | 19.3 | 0.00 | 0.00 | 0.00 | 57 | 1014.1 |
| 20260508135741 | 13 | 265 | 11.3 | 19.3 | 0.00 | 0.00 | 0.00 | 57 | 1014.1 |
| 20260508135640 | 13 | 174 | 14.5 | 19.3 | 0.00 | 0.00 | 0.00 | 57 | 1014.1 |
| 20260508135559 | 13 | 239 | 11.3 | 19.3 | 0.00 | 0.00 | 0.00 | 58 | 1014.1 |
| 20260508135436 | 13 | 237 | 6.4 | 19.3 | 0.00 | 0.00 | 0.00 | 58 | 1014.1 |
| 20260508135334 | 13 | 145 | 9.7 | 19.3 | 0.00 | 0.00 | 0.00 | 58 | 1014.1 |
| 20260508135232 | 13 | 155 | 8.0 | 19.3 | 0.00 | 0.00 | 0.00 | 55 | 1014.1 |
| 20260508135150 | 13 | 90 | 11.3 | 19.3 | 0.00 | 0.00 | 0.00 | 56 | 1014.1 |
| 20260508135028 | 13 | 193 | 9.7 | 19.3 | 0.00 | 0.00 | 0.00 | 57 | 1014.1 |
| 20260508134929 | 13 | 268 | 14.5 | 20.9 | 0.00 | 0.00 | 0.00 | 56 | 1014.1 |
| 20260508134828 | 13 | 328 | 14.5 | 20.9 | 0.00 | 0.00 | 0.00 | 56 | 1014.1 |
| 20260508134728 | 13 | 274 | 14.5 | 20.9 | 0.00 | 0.00 | 0.00 | 58 | 1014.1 |
| 20260508134658 | 13 | 315 | 9.7 | 20.9 | 0.00 | 0.00 | 0.00 | 58 | 1014.1 |
| 20260508134539 | 13 | 152 | 11.3 | 20.9 | 0.00 | 0.00 | 0.00 | 58 | 1014.1 |
| 20260508134437 | 13 | 295 | 14.5 | 20.9 | 0.00 | 0.00 | 0.00 | 57 | 1014.1 |
| 20260508134336 | 13 | 185 | 9.7 | 20.9 | 0.00 | 0.00 | 0.00 | 56 | 1014.3 |
| 20260508134237 | 13 | 330 | 12.9 | 20.9 | 0.00 | 0.00 | 0.00 | 57 | 1014.3 |
| 20260508134135 | 13 | 162 | 16.1 | 20.9 | 0.00 | 0.00 | 0.00 | 57 | 1014.3 |
| 20260508134035 | 13 | 171 | 12.9 | 20.9 | 0.00 | 0.00 | 0.00 | 56 | 1014.3 |
| 20260508133933 | 13 | 253 | 12.9 | 20.9 | 0.00 | 0.00 | 0.00 | 55 | 1014.3 |
| 20260508133831 | 13 | 198 | 17.7 | 20.9 | 0.00 | 0.00 | 0.00 | 55 | 1014.3 |
| 20260508133730 | 12 | 95 | 17.7 | 20.9 | 0.00 | 0.00 | 0.00 | 57 | 1014.3 |
| 20260508133633 | 12 | 195 | 12.9 | 20.9 | 0.00 | 0.00 | 0.00 | 57 | 1014.3 |
| 20260508133532 | 12 | 116 | 12.9 | 20.9 | 0.00 | 0.00 | 0.00 | 58 | 1014.3 |
| 20260508133431 | 12 | 171 | 9.7 | 17.7 | 0.00 | 0.00 | 0.00 | 57 | 1014.3 |
| 20260508133329 | 12 | 261 | 16.1 | 17.7 | 0.00 | 0.00 | 0.00 | 56 | 1014.3 |
| 20260508133247 | 12 | 188 | 8.0 | 17.7 | 0.00 | 0.00 | 0.00 | 56 | 1014.3 |
| 20260508133219 | 12 | 285 | 6.4 | 19.3 | 0.00 | 0.00 | 0.00 | 55 | 1014.3 |
| 20260508133054 | 12 | 174 | 12.9 | 19.3 | 0.00 | 0.00 | 0.00 | 58 | 1014.3 |
| 20260508132932 | 12 | 126 | 11.3 | 19.3 | 0.00 | 0.00 | 0.00 | 58 | 1014.3 |
| 20260508132835 | 12 | 229 | 12.9 | 19.3 | 0.00 | 0.00 | 0.00 | 57 | 1014.1 |
| 20260508132733 | 12 | 137 | 12.9 | 19.3 | 0.00 | 0.00 | 0.00 | 61 | 1014.1 |
| 20260508132631 | 12 | 157 | 9.7 | 19.3 | 0.00 | 0.00 | 0.00 | 60 | 1014.1 |
| 20260508132549 | 12 | 280 | 4.8 | 19.3 | 0.00 | 0.00 | 0.00 | 60 | 1014.1 |
| 20260508132429 | 12 | 322 | 8.0 | 19.3 | 0.00 | 0.00 | 0.00 | 60 | 1014.1 |
| 20260508132328 | 12 | 112 | 12.9 | 19.3 | 0.00 | 0.00 | 0.00 | 61 | 1014.1 |
| 20260508132227 | 12 | 284 | 8.0 | 16.1 | 0.00 | 0.00 | 0.00 | 64 | 1014.1 |
| 20260508132125 | 12 | 230 | 6.4 | 16.1 | 0.00 | 0.00 | 0.00 | 64 | 1014.1 |
| 20260508132027 | 12 | 287 | 11.3 | 14.5 | 0.00 | 0.00 | 0.00 | 63 | 1014.1 |
| 20260508131926 | 12 | 250 | 4.8 | 12.9 | 0.00 | 0.00 | 0.00 | 62 | 1014.1 |
| 20260508131843 | 12 | 230 | 4.8 | 12.9 | 0.00 | 0.00 | 0.00 | 63 | 1014.1 |
| 20260508131742 | 12 | 192 | 6.4 | 16.1 | 0.00 | 0.00 | 0.00 | 64 | 1014.1 |
| 20260508131712 | 12 | 215 | 8.0 | 16.1 | 0.00 | 0.00 | 0.00 | 64 | 1014.1 |
| 20260508131528 | 12 | 246 | 6.4 | 16.1 | 0.00 | 0.00 | 0.00 | 62 | 1014.1 |
| 20260508131427 | 12 | 299 | 8.0 | 16.1 | 0.00 | 0.00 | 0.00 | 62 | 1014.1 |
| 20260508131325 | 12 | 175 | 11.3 | 16.1 | 0.00 | 0.00 | 0.00 | 63 | 1013.9 |
| 20260508131229 | 12 | 267 | 8.0 | 16.1 | 0.00 | 0.00 | 0.00 | 63 | 1013.9 |
| 20260508131128 | 12 | 244 | 9.7 | 16.1 | 0.00 | 0.00 | 0.00 | 64 | 1013.9 |
| 20260508131027 | 12 | 316 | 9.7 | 16.1 | 0.00 | 0.00 | 0.00 | 64 | 1013.9 |
| 20260508130927 | 12 | 191 | 12.9 | 16.1 | 0.00 | 0.00 | 0.00 | 64 | 1013.9 |
| 20260508130847 | 12 | 257 | 11.3 | 16.1 | 0.00 | 0.00 | 0.00 | 64 | 1013.9 |
| 20260508130744 | 12 | 196 | 11.3 | 14.5 | 0.00 | 0.00 | 0.00 | 64 | 1013.9 |
| 20260508130640 | 12 | 123 | 11.3 | 14.5 | 0.00 | 0.00 | 0.00 | 66 | 1013.9 |
| 20260508130539 | 12 | 292 | 9.7 | 14.5 | 0.00 | 0.00 | 0.00 | 66 | 1013.9 |
| 20260508130501 | 12 | 292 | 9.7 | 14.5 | 0.00 | 0.00 | 0.00 | 66 | 1013.9 |
| 20260508130338 | 12 | 292 | 9.7 | 14.5 | 0.00 | 0.00 | 0.00 | 66 | 1013.9 |
| 20260508130257 | 12 | 305 | 9.7 | 14.5 | 0.00 | 0.00 | 0.00 | 66 | 1013.9 |
| 20260508130205 | 12 | 124 | 9.7 | 14.5 | 0.00 | 0.00 | 0.00 | 66 | 1013.9 |
| 20260508130042 | 12 | 320 | 11.3 | 16.1 | 0.00 | 0.00 | 0.00 | 67 | 1013.9 |
| 20260508125940 | 12 | 329 | 8.0 | 16.1 | 0.00 | 0.00 | 0.00 | 67 | 1013.9 |
| 20260508125839 | 12 | 295 | 9.7 | 16.1 | 0.00 | 0.00 | 0.00 | 66 | 1013.8 |
| 20260508125757 | 12 | 141 | 9.7 | 17.7 | 0.00 | 0.00 | 0.00 | 66 | 1013.8 |
| 20260508125640 | 12 | 330 | 9.7 | 17.7 | 0.00 | 0.00 | 0.00 | 66 | 1013.8 |
| 20260508125539 | 12 | 326 | 9.7 | 17.7 | 0.00 | 0.00 | 0.00 | 65 | 1013.8 |
| 20260508125458 | 12 | 323 | 9.7 | 17.7 | 0.00 | 0.00 | 0.00 | 65 | 1013.8 |
| 20260508125335 | 12 | 284 | 9.7 | 19.3 | 0.00 | 0.00 | 0.00 | 65 | 1013.8 |
| 20260508125233 | 12 | 304 | 11.3 | 19.3 | 0.00 | 0.00 | 0.00 | 64 | 1013.8 |
| 20260508125132 | 11 | 291 | 12.9 | 19.3 | 0.00 | 0.00 | 0.00 | 64 | 1013.8 |
| 20260508125050 | 11 | 268 | 9.7 | 19.3 | 0.00 | 0.00 | 0.00 | 64 | 1013.8 |
| 20260508124928 | 11 | 151 | 11.3 | 19.3 | 0.00 | 0.00 | 0.00 | 65 | 1013.8 |
| 20260508124830 | 11 | 116 | 9.7 | 19.3 | 0.00 | 0.00 | 0.00 | 66 | 1013.8 |
| 20260508124740 | 11 | 144 | 14.5 | 19.3 | 0.00 | 0.00 | 0.00 | 66 | 1013.8 |
| 20260508124648 | 11 | 133 | 14.5 | 19.3 | 0.00 | 0.00 | 0.00 | 67 | 1013.8 |
| 20260508124525 | 11 | 253 | 12.9 | 19.3 | 0.00 | 0.00 | 0.00 | 68 | 1013.8 |
| 20260508124424 | 11 | 188 | 11.3 | 19.3 | 0.00 | 0.00 | 0.00 | 68 | 1013.8 |
| 20260508124342 | 11 | 114 | 8.0 | 19.3 | 0.00 | 0.00 | 0.00 | 68 | 1013.9 |
| 20260508124242 | 11 | 219 | 11.3 | 19.3 | 0.00 | 0.00 | 0.00 | 68 | 1013.9 |
| 20260508124124 | 11 | 185 | 9.7 | 19.3 | 0.00 | 0.00 | 0.00 | 69 | 1013.9 |
| 20260508124043 | 11 | 168 | 12.9 | 19.3 | 0.00 | 0.00 | 0.00 | 69 | 1013.9 |
| 20260508124002 | 11 | 294 | 14.5 | 19.3 | 0.00 | 0.00 | 0.00 | 69 | 1013.9 |
| 20260508123841 | 11 | 257 | 11.3 | 17.7 | 0.00 | 0.00 | 0.00 | 69 | 1013.9 |
| 20260508123740 | 11 | 189 | 11.3 | 14.5 | 0.00 | 0.00 | 0.00 | 69 | 1013.9 |
| 20260508123638 | 11 | 326 | 9.7 | 14.5 | 0.00 | 0.00 | 0.00 | 69 | 1013.9 |
| 20260508123557 | 11 | 222 | 6.4 | 14.5 | 0.00 | 0.00 | 0.00 | 69 | 1013.9 |
| 20260508123433 | 11 | 312 | 11.3 | 14.5 | 0.00 | 0.00 | 0.00 | 69 | 1013.9 |
| 20260508123336 | 11 | 271 | 9.7 | 14.5 | 0.00 | 0.00 | 0.00 | 69 | 1013.9 |
| 20260508123235 | 11 | 332 | 11.3 | 14.5 | 0.00 | 0.00 | 0.00 | 69 | 1013.9 |
| 20260508123205 | 11 | 174 | 9.7 | 14.5 | 0.00 | 0.00 | 0.00 | 69 | 1013.9 |
| 20260508123042 | 11 | 176 | 9.7 | 16.1 | 0.00 | 0.00 | 0.00 | 69 | 1013.9 |
| 20260508122940 | 11 | 329 | 9.7 | 16.1 | 0.00 | 0.00 | 0.00 | 69 | 1013.9 |
| 20260508122837 | 11 | 332 | 9.7 | 16.1 | 0.00 | 0.00 | 0.00 | 69 | 1014.1 |
| 20260508122737 | 11 | 230 | 9.7 | 16.1 | 0.00 | 0.00 | 0.00 | 69 | 1014.1 |
| 20260508122640 | 11 | 291 | 9.7 | 16.1 | 0.00 | 0.00 | 0.00 | 69 | 1014.1 |
| 20260508122537 | 11 | 312 | 9.7 | 16.1 | 0.00 | 0.00 | 0.00 | 69 | 1014.1 |
| 20260508122455 | 11 | 272 | 11.3 | 16.1 | 0.00 | 0.00 | 0.00 | 69 | 1014.1 |
| 20260508122332 | 11 | 313 | 8.0 | 16.1 | 0.00 | 0.00 | 0.00 | 70 | 1014.1 |
| 20260508122231 | 11 | 260 | 8.0 | 17.7 | 0.00 | 0.00 | 0.00 | 70 | 1014.1 |
| 20260508122129 | 11 | 302 | 6.4 | 17.7 | 0.00 | 0.00 | 0.00 | 70 | 1014.1 |
| 20260508122028 | 11 | 261 | 12.9 | 17.7 | 0.00 | 0.00 | 0.00 | 70 | 1014.1 |
| 20260508121930 | 10 | 157 | 11.3 | 17.7 | 0.00 | 0.00 | 0.00 | 71 | 1014.1 |
| 20260508121848 | 10 | 246 | 9.7 | 17.7 | 0.00 | 0.00 | 0.00 | 71 | 1014.1 |
| 20260508121726 | 10 | 332 | 11.3 | 17.7 | 0.00 | 0.00 | 0.00 | 71 | 1014.1 |
| 20260508121656 | 10 | 275 | 9.7 | 17.7 | 0.00 | 0.00 | 0.00 | 71 | 1014.1 |
| 20260508121533 | 10 | 332 | 8.0 | 17.7 | 0.00 | 0.00 | 0.00 | 70 | 1014.1 |
| 20260508121431 | 10 | 329 | 9.7 | 17.7 | 0.00 | 0.00 | 0.00 | 71 | 1014.1 |
| 20260508121328 | 10 | 160 | 11.3 | 17.7 | 0.00 | 0.00 | 0.00 | 71 | 1013.9 |
| 20260508121248 | 10 | 112 | 11.3 | 16.1 | 0.00 | 0.00 | 0.00 | 71 | 1013.9 |
| 20260508121129 | 10 | 264 | 8.0 | 16.1 | 0.00 | 0.00 | 0.00 | 71 | 1013.9 |
| 20260508121032 | 10 | 289 | 11.3 | 16.1 | 0.00 | 0.00 | 0.00 | 70 | 1013.9 |
| 20260508120929 | 10 | 264 | 11.3 | 16.1 | 0.00 | 0.00 | 0.00 | 71 | 1013.9 |
| 20260508120830 | 10 | 316 | 11.3 | 16.1 | 0.00 | 0.00 | 0.00 | 70 | 1013.9 |
| 20260508120748 | 10 | 326 | 9.7 | 14.5 | 0.00 | 0.00 | 0.00 | 71 | 1013.9 |
| 20260508120626 | 10 | 131 | 11.3 | 14.5 | 0.00 | 0.00 | 0.00 | 71 | 1013.9 |
| 20260508120529 | 10 | 326 | 11.3 | 14.5 | 0.00 | 0.00 | 0.00 | 71 | 1013.9 |
| 20260508120427 | 10 | 333 | 8.0 | 12.9 | 0.00 | 0.00 | 0.00 | 71 | 1013.9 |
| 20260508120329 | 10 | 181 | 9.7 | 12.9 | 0.00 | 0.00 | 0.00 | 71 | 1013.9 |
| 20260508120227 | 10 | 200 | 11.3 | 14.5 | 0.00 | 0.00 | 0.00 | 71 | 1013.9 |
| 20260508120158 | 10 | 130 | 9.7 | 14.5 | 0.00 | 0.00 | 0.00 | 71 | 1013.9 |
| 20260508120034 | 10 | 145 | 8.0 | 14.5 | 0.00 | 0.00 | 0.00 | 71 | 1013.9 |
| 20260508115933 | 10 | 260 | 11.3 | 16.1 | 0.00 | 0.00 | 0.00 | 71 | 1013.9 |
| 20260508115831 | 10 | 128 | 11.3 | 16.1 | 0.00 | 0.00 | 0.00 | 72 | 1013.7 |
| 20260508115729 | 10 | 274 | 9.7 | 16.1 | 0.00 | 0.00 | 0.00 | 72 | 1013.7 |
| 20260508115652 | 10 | 227 | 9.7 | 16.1 | 0.00 | 0.00 | 0.00 | 72 | 1013.7 |
| 20260508115530 | 10 | 222 | 9.7 | 16.1 | 0.00 | 0.00 | 0.00 | 72 | 1013.7 |
| 20260508115428 | 10 | 233 | 11.3 | 16.1 | 0.00 | 0.00 | 0.00 | 72 | 1013.7 |
| 20260508115327 | 10 | 330 | 9.7 | 16.1 | 0.00 | 0.00 | 0.00 | 72 | 1013.7 |
| 20260508115225 | 10 | 322 | 9.7 | 16.1 | 0.00 | 0.00 | 0.00 | 72 | 1013.7 |
| 20260508115143 | 10 | 301 | 11.3 | 16.1 | 0.00 | 0.00 | 0.00 | 72 | 1013.7 |
| 20260508115042 | 10 | 322 | 11.3 | 16.1 | 0.00 | 0.00 | 0.00 | 72 | 1013.7 |
| 20260508114924 | 10 | 107 | 9.7 | 12.9 | 0.00 | 0.00 | 0.00 | 72 | 1013.7 |
| 20260508114846 | 10 | 332 | 9.7 | 12.9 | 0.00 | 0.00 | 0.00 | 72 | 1013.7 |
| 20260508114742 | 10 | 123 | 9.7 | 12.9 | 0.00 | 0.00 | 0.00 | 72 | 1013.7 |
| 20260508114713 | 10 | 332 | 9.7 | 12.9 | 0.00 | 0.00 | 0.00 | 71 | 1013.7 |
| 20260508114530 | 10 | 330 | 9.7 | 12.9 | 0.00 | 0.00 | 0.00 | 72 | 1013.7 |
| 20260508114430 | 10 | 258 | 11.3 | 12.9 | 0.00 | 0.00 | 0.00 | 72 | 1013.7 |
| 20260508114327 | 10 | 138 | 11.3 | 12.9 | 0.00 | 0.00 | 0.00 | 72 | 1013.6 |
| 20260508114227 | 10 | 329 | 9.7 | 16.1 | 0.00 | 0.00 | 0.00 | 71 | 1013.6 |
| 20260508114128 | 10 | 332 | 11.3 | 16.1 | 0.00 | 0.00 | 0.00 | 71 | 1013.6 |
| 20260508114027 | 10 | 264 | 9.7 | 16.1 | 0.00 | 0.00 | 0.00 | 71 | 1013.6 |
| 20260508113924 | 10 | 278 | 8.0 | 16.1 | 0.00 | 0.00 | 0.00 | 71 | 1013.6 |
| 20260508113843 | 10 | 265 | 8.0 | 16.1 | 0.00 | 0.00 | 0.00 | 71 | 1013.6 |
| 20260508113741 | 10 | 178 | 9.7 | 16.1 | 0.00 | 0.00 | 0.00 | 71 | 1013.6 |
| 20260508113700 | 10 | 332 | 8.0 | 16.1 | 0.00 | 0.00 | 0.00 | 70 | 1013.6 |
| 20260508113537 | 10 | 277 | 8.0 | 16.1 | 0.00 | 0.00 | 0.00 | 70 | 1013.6 |
| 20260508113439 | 10 | 292 | 9.7 | 16.1 | 0.00 | 0.00 | 0.00 | 70 | 1013.6 |
| 20260508113340 | 10 | 272 | 11.3 | 16.1 | 0.00 | 0.00 | 0.00 | 70 | 1013.6 |
| 20260508113237 | 10 | 169 | 11.3 | 16.1 | 0.00 | 0.00 | 0.00 | 70 | 1013.6 |
| 20260508113207 | 10 | 128 | 9.7 | 16.1 | 0.00 | 0.00 | 0.00 | 70 | 1013.6 |
| 20260508113043 | 10 | 258 | 11.3 | 16.1 | 0.00 | 0.00 | 0.00 | 70 | 1013.6 |
| 20260508112941 | 10 | 243 | 9.7 | 14.5 | 0.00 | 0.00 | 0.00 | 71 | 1013.6 |
| 20260508112840 | 10 | 154 | 11.3 | 12.9 | 0.00 | 0.00 | 0.00 | 71 | 1013.3 |
| 20260508112800 | 10 | 248 | 9.7 | 12.9 | 0.00 | 0.00 | 0.00 | 70 | 1013.3 |
| 20260508112656 | 10 | 203 | 11.3 | 12.9 | 0.00 | 0.00 | 0.00 | 70 | 1013.3 |
| 20260508112559 | 10 | 241 | 11.3 | 12.9 | 0.00 | 0.00 | 0.00 | 70 | 1013.3 |
| 20260508112434 | 10 | 100 | 9.7 | 14.5 | 0.00 | 0.00 | 0.00 | 70 | 1013.3 |
| 20260508112336 | 10 | 298 | 11.3 | 14.5 | 0.00 | 0.00 | 0.00 | 70 | 1013.3 |
| 20260508112236 | 10 | 328 | 9.7 | 14.5 | 0.00 | 0.00 | 0.00 | 70 | 1013.3 |
| 20260508112134 | 10 | 275 | 9.7 | 14.5 | 0.00 | 0.00 | 0.00 | 70 | 1013.3 |
| 20260508112033 | 10 | 224 | 11.3 | 16.1 | 0.00 | 0.00 | 0.00 | 70 | 1013.3 |
| 20260508111930 | 10 | 160 | 9.7 | 16.1 | 0.00 | 0.00 | 0.00 | 70 | 1013.3 |
| 20260508111828 | 10 | 199 | 9.7 | 16.1 | 0.00 | 0.00 | 0.00 | 70 | 1013.3 |
| 20260508111740 | 10 | 195 | 11.3 | 16.1 | 0.00 | 0.00 | 0.00 | 70 | 1013.3 |
| 20260508111650 | 10 | 251 | 11.3 | 16.1 | 0.00 | 0.00 | 0.00 | 70 | 1013.3 |
| 20260508111528 | 10 | 144 | 9.7 | 16.1 | 0.00 | 0.00 | 0.00 | 70 | 1013.3 |
| 20260508111425 | 10 | 323 | 9.7 | 16.1 | 0.00 | 0.00 | 0.00 | 69 | 1013.3 |
| 20260508111324 | 10 | 268 | 9.7 | 16.1 | 0.00 | 0.00 | 0.00 | 70 | 1012.8 |
| 20260508111243 | 10 | 270 | 11.3 | 16.1 | 0.00 | 0.00 | 0.00 | 70 | 1012.8 |
| 20260508111142 | 10 | 267 | 11.3 | 16.1 | 0.00 | 0.00 | 0.00 | 69 | 1012.8 |
| 20260508111101 | 10 | 215 | 9.7 | 16.1 | 0.00 | 0.00 | 0.00 | 69 | 1012.8 |
| 20260508111001 | 10 | 330 | 11.3 | 16.1 | 0.00 | 0.00 | 0.00 | 69 | 1012.8 |
| 20260508110839 | 10 | 325 | 9.7 | 16.1 | 0.00 | 0.00 | 0.00 | 69 | 1012.8 |
| 20260508110738 | 10 | 298 | 9.7 | 16.1 | 0.00 | 0.00 | 0.00 | 69 | 1012.8 |
| 20260508110635 | 10 | 284 | 11.3 | 16.1 | 0.00 | 0.00 | 0.00 | 69 | 1012.8 |
| 20260508110534 | 10 | 202 | 11.3 | 16.1 | 0.00 | 0.00 | 0.00 | 69 | 1012.8 |
| 20260508110432 | 10 | 136 | 11.3 | 16.1 | 0.00 | 0.00 | 0.00 | 69 | 1012.8 |
| 20260508110330 | 10 | 332 | 9.7 | 16.1 | 0.00 | 0.00 | 0.00 | 69 | 1012.8 |
| 20260508110252 | 10 | 277 | 9.7 | 16.1 | 0.00 | 0.00 | 0.00 | 69 | 1012.8 |
| 20260508110202 | 10 | 136 | 9.7 | 16.1 | 0.00 | 0.00 | 0.00 | 69 | 1012.8 |
| 20260508110039 | 10 | 251 | 9.7 | 16.1 | 0.00 | 0.00 | 0.00 | 69 | 1012.8 |
| 20260508105957 | 10 | 179 | 11.3 | 16.1 | 0.00 | 0.00 | 0.00 | 69 | 1012.8 |
| 20260508105834 | 10 | 280 | 9.7 | 16.1 | 0.00 | 0.00 | 0.00 | 69 | 1012.6 |
| 20260508105734 | 10 | 265 | 11.3 | 16.1 | 0.00 | 0.00 | 0.00 | 69 | 1012.6 |
| 20260508105635 | 10 | 316 | 9.7 | 16.1 | 0.00 | 0.00 | 0.00 | 69 | 1012.6 |
| 20260508105533 | 10 | 263 | 11.3 | 16.1 | 0.00 | 0.00 | 0.00 | 69 | 1012.6 |
| 20260508105436 | 10 | 323 | 11.3 | 16.1 | 0.00 | 0.00 | 0.00 | 69 | 1012.6 |
| 20260508105334 | 10 | 296 | 12.9 | 16.1 | 0.00 | 0.00 | 0.00 | 69 | 1012.6 |
| 20260508105252 | 10 | 213 | 11.3 | 16.1 | 0.00 | 0.00 | 0.00 | 69 | 1012.6 |
| 20260508105130 | 10 | 130 | 11.3 | 16.1 | 0.00 | 0.00 | 0.00 | 69 | 1012.6 |
| 20260508105049 | 10 | 164 | 9.7 | 17.7 | 0.00 | 0.00 | 0.00 | 69 | 1012.6 |
| 20260508104926 | 10 | 330 | 11.3 | 17.7 | 0.00 | 0.00 | 0.00 | 69 | 1012.6 |
| 20260508104823 | 10 | 145 | 9.7 | 17.7 | 0.00 | 0.00 | 0.00 | 69 | 1012.6 |
| 20260508104738 | 10 | 302 | 12.9 | 17.7 | 0.00 | 0.00 | 0.00 | 69 | 1012.6 |
| 20260508104645 | 10 | 232 | 12.9 | 17.7 | 0.00 | 0.00 | 0.00 | 68 | 1012.6 |
| 20260508104544 | 10 | 306 | 11.3 | 17.7 | 0.00 | 0.00 | 0.00 | 68 | 1012.6 |
| 20260508104442 | 10 | 196 | 12.9 | 17.7 | 0.00 | 0.00 | 0.00 | 68 | 1012.6 |
| 20260508104341 | 10 | 254 | 12.9 | 17.7 | 0.00 | 0.00 | 0.00 | 69 | 1012.4 |
| 20260508104239 | 10 | 157 | 12.9 | 17.7 | 0.00 | 0.00 | 0.00 | 68 | 1012.4 |
| 20260508104137 | 10 | 176 | 11.3 | 16.1 | 0.00 | 0.00 | 0.00 | 68 | 1012.4 |
| 20260508104037 | 10 | 131 | 9.7 | 16.1 | 0.00 | 0.00 | 0.00 | 68 | 1012.4 |
| 20260508103940 | 10 | 332 | 9.7 | 16.1 | 0.00 | 0.00 | 0.00 | 68 | 1012.4 |
| 20260508103838 | 10 | 209 | 11.3 | 16.1 | 0.00 | 0.00 | 0.00 | 68 | 1012.4 |
| 20260508103737 | 10 | 328 | 9.7 | 16.1 | 0.00 | 0.00 | 0.00 | 68 | 1012.4 |
| 20260508103634 | 10 | 208 | 8.0 | 16.1 | 0.00 | 0.00 | 0.00 | 68 | 1012.4 |
| 20260508103553 | 10 | 230 | 9.7 | 16.1 | 0.00 | 0.00 | 0.00 | 67 | 1012.4 |
| 20260508103431 | 10 | 227 | 11.3 | 16.1 | 0.00 | 0.00 | 0.00 | 67 | 1012.4 |
| 20260508103330 | 10 | 143 | 11.3 | 16.1 | 0.00 | 0.00 | 0.00 | 67 | 1012.4 |
| 20260508103240 | 10 | 162 | 12.9 | 19.3 | 0.00 | 0.00 | 0.00 | 67 | 1012.4 |
| 20260508103154 | 10 | 305 | 11.3 | 19.3 | 0.00 | 0.00 | 0.00 | 67 | 1012.4 |
| 20260508103030 | 10 | 308 | 11.3 | 19.3 | 0.00 | 0.00 | 0.00 | 67 | 1012.4 |
| 20260508102929 | 10 | 260 | 9.7 | 19.3 | 0.00 | 0.00 | 0.00 | 67 | 1012.4 |
| 20260508102827 | 10 | 186 | 11.3 | 19.3 | 0.00 | 0.00 | 0.00 | 67 | 1012.3 |
| 20260508102745 | 10 | 203 | 11.3 | 19.3 | 0.00 | 0.00 | 0.00 | 67 | 1012.3 |
| 20260508102642 | 10 | 208 | 9.7 | 19.3 | 0.00 | 0.00 | 0.00 | 66 | 1012.3 |
| 20260508102540 | 10 | 93 | 9.7 | 19.3 | 0.00 | 0.00 | 0.00 | 67 | 1012.3 |
| 20260508102438 | 10 | 319 | 12.9 | 19.3 | 0.00 | 0.00 | 0.00 | 66 | 1012.3 |
| 20260508102339 | 10 | 315 | 14.5 | 19.3 | 0.00 | 0.00 | 0.00 | 66 | 1012.3 |
| 20260508102239 | 10 | 209 | 12.9 | 20.9 | 0.00 | 0.00 | 0.00 | 66 | 1012.3 |
| 20260508102138 | 10 | 258 | 9.7 | 22.5 | 0.00 | 0.00 | 0.00 | 66 | 1012.3 |
| 20260508102036 | 11 | 199 | 11.3 | 22.5 | 0.00 | 0.00 | 0.00 | 66 | 1012.3 |
| 20260508101934 | 11 | 172 | 8.0 | 22.5 | 0.00 | 0.00 | 0.00 | 65 | 1012.3 |
| 20260508101832 | 11 | 154 | 11.3 | 22.5 | 0.00 | 0.00 | 0.00 | 65 | 1012.3 |
| 20260508101803 | 11 | 281 | 14.5 | 22.5 | 0.00 | 0.00 | 0.00 | 66 | 1012.3 |
| 20260508101649 | 11 | 195 | 16.1 | 22.5 | 0.00 | 0.00 | 0.00 | 65 | 1012.3 |
| 20260508101531 | 11 | 195 | 9.7 | 22.5 | 0.00 | 0.00 | 0.00 | 65 | 1012.3 |
| 20260508101429 | 11 | 145 | 14.5 | 22.5 | 0.00 | 0.00 | 0.00 | 64 | 1012.3 |
| 20260508101347 | 11 | 219 | 16.1 | 22.5 | 0.00 | 0.00 | 0.00 | 66 | 1012.2 |
| 20260508101226 | 11 | 154 | 12.9 | 19.3 | 0.00 | 0.00 | 0.00 | 67 | 1012.2 |
| 20260508101125 | 11 | 107 | 9.7 | 19.3 | 0.00 | 0.00 | 0.00 | 67 | 1012.2 |
| 20260508101043 | 11 | 172 | 11.3 | 19.3 | 0.00 | 0.00 | 0.00 | 66 | 1012.2 |
| 20260508100941 | 11 | 138 | 11.3 | 17.7 | 0.00 | 0.00 | 0.00 | 66 | 1012.2 |
| 20260508100900 | 11 | 195 | 11.3 | 20.9 | 0.00 | 0.00 | 0.00 | 66 | 1012.2 |
| 20260508100742 | 11 | 141 | 11.3 | 20.9 | 0.00 | 0.00 | 0.00 | 66 | 1012.2 |
| 20260508100639 | 11 | 261 | 12.9 | 20.9 | 0.00 | 0.00 | 0.00 | 65 | 1012.2 |
| 20260508100538 | 11 | 301 | 14.5 | 20.9 | 0.00 | 0.00 | 0.00 | 65 | 1012.2 |
| 20260508100436 | 11 | 250 | 11.3 | 20.9 | 0.00 | 0.00 | 0.00 | 65 | 1012.2 |
| 20260508100335 | 11 | 320 | 12.9 | 20.9 | 0.00 | 0.00 | 0.00 | 65 | 1012.2 |
| 20260508100303 | 11 | 230 | 11.3 | 20.9 | 0.00 | 0.00 | 0.00 | 65 | 1012.2 |
| 20260508100152 | 11 | 147 | 9.7 | 20.9 | 0.00 | 0.00 | 0.00 | 65 | 1012.2 |
| 20260508100032 | 11 | 175 | 12.9 | 20.9 | 0.00 | 0.00 | 0.00 | 64 | 1012.2 |
| 20260508095930 | 11 | 189 | 11.3 | 20.9 | 0.00 | 0.00 | 0.00 | 64 | 1012.2 |
| 20260508095830 | 11 | 198 | 11.3 | 20.9 | 0.00 | 0.00 | 0.00 | 63 | 1012.1 |
| 20260508095729 | 11 | 219 | 9.7 | 20.9 | 0.00 | 0.00 | 0.00 | 63 | 1012.1 |
| 20260508095626 | 11 | 175 | 11.3 | 20.9 | 0.00 | 0.00 | 0.00 | 64 | 1012.1 |
| 20260508095524 | 11 | 205 | 12.9 | 20.9 | 0.00 | 0.00 | 0.00 | 63 | 1012.1 |
| 20260508095443 | 11 | 264 | 12.9 | 20.9 | 0.00 | 0.00 | 0.00 | 64 | 1012.1 |
| 20260508095325 | 11 | 144 | 11.3 | 20.9 | 0.00 | 0.00 | 0.00 | 65 | 1012.1 |
| 20260508095243 | 11 | 184 | 11.3 | 20.9 | 0.00 | 0.00 | 0.00 | 65 | 1012.1 |
| 20260508095140 | 10 | 176 | 14.5 | 20.9 | 0.00 | 0.00 | 0.00 | 63 | 1012.1 |
| 20260508095039 | 10 | 198 | 11.3 | 20.9 | 0.00 | 0.00 | 0.00 | 63 | 1012.1 |
| 20260508094937 | 10 | 102 | 12.9 | 20.9 | 0.00 | 0.00 | 0.00 | 64 | 1012.1 |
| 20260508094836 | 10 | 109 | 12.9 | 22.5 | 0.00 | 0.00 | 0.00 | 64 | 1012.1 |
| 20260508094736 | 10 | 278 | 11.3 | 22.5 | 0.00 | 0.00 | 0.00 | 64 | 1012.1 |
| 20260508094709 | 10 | 315 | 14.5 | 22.5 | 0.00 | 0.00 | 0.00 | 63 | 1012.1 |
| 20260508094525 | 10 | 220 | 12.9 | 22.5 | 0.00 | 0.00 | 0.00 | 62 | 1012.1 |
| 20260508094443 | 10 | 72 | 12.9 | 22.5 | 0.00 | 0.00 | 0.00 | 63 | 1012.1 |
| 20260508094341 | 10 | 123 | 9.7 | 22.5 | 0.00 | 0.00 | 0.00 | 65 | 1011.9 |
| 20260508094259 | 10 | 113 | 11.3 | 22.5 | 0.00 | 0.00 | 0.00 | 65 | 1011.9 |
| 20260508094136 | 10 | 328 | 14.5 | 22.5 | 0.00 | 0.00 | 0.00 | 64 | 1011.9 |
| 20260508094034 | 10 | 313 | 17.7 | 22.5 | 0.00 | 0.00 | 0.00 | 64 | 1011.9 |
| 20260508093953 | 10 | 217 | 14.5 | 20.9 | 0.00 | 0.00 | 0.00 | 64 | 1011.9 |
| 20260508093834 | 10 | 114 | 16.1 | 20.9 | 0.00 | 0.00 | 0.00 | 63 | 1011.9 |
| 20260508093735 | 10 | 134 | 16.1 | 20.9 | 0.00 | 0.00 | 0.00 | 64 | 1011.9 |
| 20260508093634 | 10 | 96 | 12.9 | 20.9 | 0.00 | 0.00 | 0.00 | 64 | 1011.9 |
| 20260508093533 | 10 | 205 | 14.5 | 20.9 | 0.00 | 0.00 | 0.00 | 65 | 1011.9 |
| 20260508093432 | 10 | 133 | 16.1 | 20.9 | 0.00 | 0.00 | 0.00 | 64 | 1011.9 |
| 20260508093330 | 10 | 265 | 9.7 | 20.9 | 0.00 | 0.00 | 0.00 | 65 | 1011.9 |
| 20260508093229 | 10 | 215 | 11.3 | 20.9 | 0.00 | 0.00 | 0.00 | 64 | 1011.9 |
| 20260508093200 | 10 | 128 | 12.9 | 20.9 | 0.00 | 0.00 | 0.00 | 64 | 1011.9 |
| 20260508093041 | 10 | 102 | 12.9 | 20.9 | 0.00 | 0.00 | 0.00 | 65 | 1011.9 |
| 20260508092939 | 10 | 210 | 11.3 | 20.9 | 0.00 | 0.00 | 0.00 | 65 | 1011.9 |
| 20260508092837 | 10 | 289 | 12.9 | 19.3 | 0.00 | 0.00 | 0.00 | 65 | 1012.0 |
| 20260508092735 | 10 | 203 | 12.9 | 19.3 | 0.00 | 0.00 | 0.00 | 66 | 1012.0 |
| 20260508092634 | 10 | 261 | 12.9 | 19.3 | 0.00 | 0.00 | 0.00 | 65 | 1012.0 |
| 20260508092533 | 10 | 186 | 12.9 | 19.3 | 0.00 | 0.00 | 0.00 | 65 | 1012.0 |
| 20260508092435 | 10 | 199 | 9.7 | 17.7 | 0.00 | 0.00 | 0.00 | 64 | 1012.0 |
| 20260508092333 | 10 | 199 | 12.9 | 17.7 | 0.00 | 0.00 | 0.00 | 63 | 1012.0 |
| 20260508092251 | 10 | 234 | 14.5 | 20.9 | 0.00 | 0.00 | 0.00 | 65 | 1012.0 |
| 20260508092128 | 10 | 206 | 16.1 | 20.9 | 0.00 | 0.00 | 0.00 | 65 | 1012.0 |
| 20260508092027 | 10 | 333 | 11.3 | 20.9 | 0.00 | 0.00 | 0.00 | 65 | 1012.0 |
| 20260508091945 | 10 | 291 | 11.3 | 20.9 | 0.00 | 0.00 | 0.00 | 65 | 1012.0 |
| 20260508091843 | 10 | 107 | 11.3 | 20.9 | 0.00 | 0.00 | 0.00 | 65 | 1012.0 |
| 20260508091732 | 10 | 110 | 14.5 | 20.9 | 0.00 | 0.00 | 0.00 | 65 | 1012.0 |
| 20260508091646 | 10 | 224 | 14.5 | 20.9 | 0.00 | 0.00 | 0.00 | 65 | 1012.0 |
| 20260508091524 | 10 | 195 | 12.9 | 20.9 | 0.00 | 0.00 | 0.00 | 66 | 1012.0 |
| 20260508091427 | 10 | 247 | 14.5 | 20.9 | 0.00 | 0.00 | 0.00 | 66 | 1012.0 |
| 20260508091326 | 10 | 128 | 11.3 | 20.9 | 0.00 | 0.00 | 0.00 | 66 | 1011.9 |
| 20260508091244 | 10 | 309 | 11.3 | 20.9 | 0.00 | 0.00 | 0.00 | 66 | 1011.9 |
| 20260508091142 | 10 | 305 | 16.1 | 20.9 | 0.00 | 0.00 | 0.00 | 66 | 1011.9 |
| 20260508091040 | 10 | 126 | 14.5 | 22.5 | 0.00 | 0.00 | 0.00 | 67 | 1011.9 |
| 20260508090924 | 10 | 215 | 11.3 | 22.5 | 0.00 | 0.00 | 0.00 | 66 | 1011.9 |
| 20260508090846 | 10 | 251 | 11.3 | 22.5 | 0.00 | 0.00 | 0.00 | 67 | 1011.9 |
| 20260508090743 | 10 | 88 | 12.9 | 22.5 | 0.00 | 0.00 | 0.00 | 67 | 1011.9 |
| 20260508090639 | 10 | 292 | 14.5 | 22.5 | 0.00 | 0.00 | 0.00 | 67 | 1011.9 |
| 20260508090559 | 10 | 260 | 14.5 | 22.5 | 0.00 | 0.00 | 0.00 | 67 | 1011.9 |
| 20260508090434 | 10 | 312 | 14.5 | 22.5 | 0.00 | 0.00 | 0.00 | 67 | 1011.9 |
| 20260508090331 | 10 | 220 | 12.9 | 22.5 | 0.00 | 0.00 | 0.00 | 67 | 1011.9 |
| 20260508090240 | 10 | 192 | 17.7 | 22.5 | 0.00 | 0.00 | 0.00 | 67 | 1011.9 |
| 20260508090151 | 10 | 329 | 16.1 | 22.5 | 0.00 | 0.00 | 0.00 | 67 | 1011.9 |
| 20260508090031 | 10 | 80 | 14.5 | 19.3 | 0.00 | 0.00 | 0.00 | 68 | 1011.9 |
| 20260508085929 | 10 | 212 | 11.3 | 19.3 | 0.00 | 0.00 | 0.00 | 68 | 1011.9 |
| 20260508085847 | 10 | 223 | 14.5 | 19.3 | 0.00 | 0.00 | 0.00 | 68 | 1011.8 |
| 20260508085744 | 10 | 167 | 14.5 | 19.3 | 0.00 | 0.00 | 0.00 | 68 | 1011.8 |
| 20260508085642 | 10 | 188 | 16.1 | 19.3 | 0.00 | 0.00 | 0.00 | 68 | 1011.8 |
| 20260508085538 | 10 | 209 | 12.9 | 19.3 | 0.00 | 0.00 | 0.00 | 68 | 1011.8 |
| 20260508085437 | 10 | 313 | 11.3 | 19.3 | 0.00 | 0.00 | 0.00 | 68 | 1011.8 |
| 20260508085335 | 10 | 229 | 14.5 | 19.3 | 0.00 | 0.00 | 0.00 | 68 | 1011.8 |
| 20260508085239 | 10 | 232 | 12.9 | 19.3 | 0.00 | 0.00 | 0.00 | 68 | 1011.8 |
| 20260508085136 | 10 | 145 | 12.9 | 19.3 | 0.00 | 0.00 | 0.00 | 69 | 1011.8 |
| 20260508085033 | 10 | 236 | 14.5 | 19.3 | 0.00 | 0.00 | 0.00 | 69 | 1011.8 |
| 20260508084932 | 10 | 137 | 14.5 | 19.3 | 0.00 | 0.00 | 0.00 | 70 | 1011.8 |
| 20260508084830 | 10 | 230 | 12.9 | 19.3 | 0.00 | 0.00 | 0.00 | 70 | 1011.8 |
| 20260508084730 | 10 | 223 | 12.9 | 19.3 | 0.00 | 0.00 | 0.00 | 70 | 1011.8 |
| 20260508084700 | 10 | 328 | 11.3 | 19.3 | 0.00 | 0.00 | 0.00 | 70 | 1011.8 |
| 20260508084542 | 10 | 113 | 14.5 | 19.3 | 0.00 | 0.00 | 0.00 | 71 | 1011.8 |
| 20260508084440 | 10 | 185 | 12.9 | 19.3 | 0.00 | 0.00 | 0.00 | 71 | 1011.8 |
| 20260508084339 | 10 | 209 | 16.1 | 19.3 | 0.00 | 0.00 | 0.00 | 71 | 1011.7 |
| 20260508084237 | 10 | 332 | 12.9 | 19.3 | 0.00 | 0.00 | 0.00 | 71 | 1011.7 |
| 20260508084136 | 10 | 78 | 11.3 | 19.3 | 0.00 | 0.00 | 0.00 | 71 | 1011.7 |
| 20260508084034 | 10 | 226 | 14.5 | 19.3 | 0.00 | 0.00 | 0.00 | 72 | 1011.7 |
| 20260508083934 | 10 | 188 | 14.5 | 19.3 | 0.00 | 0.00 | 0.00 | 72 | 1011.7 |
| 20260508083836 | 10 | 285 | 11.3 | 19.3 | 0.00 | 0.00 | 0.00 | 72 | 1011.7 |
| 20260508083734 | 10 | 301 | 12.9 | 19.3 | 0.00 | 0.00 | 0.00 | 73 | 1011.7 |
| 20260508083653 | 10 | 168 | 12.9 | 19.3 | 0.00 | 0.00 | 0.00 | 73 | 1011.7 |
| 20260508083530 | 10 | 168 | 11.3 | 19.3 | 0.00 | 0.00 | 0.00 | 73 | 1011.7 |
| 20260508083429 | 10 | 258 | 12.9 | 19.3 | 0.00 | 0.00 | 0.00 | 73 | 1011.7 |
| 20260508083328 | 10 | 172 | 11.3 | 19.3 | 0.00 | 0.00 | 0.00 | 73 | 1011.7 |
| 20260508083237 | 10 | 195 | 16.1 | 19.3 | 0.00 | 0.00 | 0.00 | 73 | 1011.7 |
| 20260508083151 | 10 | 253 | 12.9 | 19.3 | 0.00 | 0.00 | 0.00 | 74 | 1011.7 |
| 20260508083047 | 10 | 212 | 12.9 | 19.3 | 0.00 | 0.00 | 0.00 | 74 | 1011.7 |
| 20260508082946 | 10 | 151 | 11.3 | 19.3 | 0.00 | 0.00 | 0.00 | 74 | 1011.7 |
| 20260508082843 | 10 | 198 | 12.9 | 19.3 | 0.00 | 0.00 | 0.00 | 74 | 1011.7 |
| 20260508082724 | 10 | 210 | 11.3 | 19.3 | 0.00 | 0.00 | 0.00 | 74 | 1011.7 |
| 20260508082641 | 10 | 172 | 12.9 | 19.3 | 0.00 | 0.00 | 0.00 | 74 | 1011.7 |
| 20260508082540 | 10 | 264 | 11.3 | 19.3 | 0.00 | 0.00 | 0.00 | 74 | 1011.7 |
| 20260508082435 | 10 | 137 | 12.9 | 19.3 | 0.00 | 0.00 | 0.00 | 74 | 1011.7 |
| 20260508082334 | 10 | 213 | 11.3 | 19.3 | 0.00 | 0.00 | 0.00 | 74 | 1011.7 |
| 20260508082236 | 10 | 244 | 11.3 | 19.3 | 0.00 | 0.00 | 0.00 | 74 | 1011.7 |
| 20260508082155 | 10 | 196 | 9.7 | 19.3 | 0.00 | 0.00 | 0.00 | 74 | 1011.7 |
| 20260508082034 | 10 | 192 | 11.3 | 19.3 | 0.00 | 0.00 | 0.00 | 74 | 1011.7 |
| 20260508081936 | 10 | 121 | 11.3 | 17.7 | 0.00 | 0.00 | 0.00 | 74 | 1011.7 |
| 20260508081854 | 10 | 150 | 11.3 | 17.7 | 0.00 | 0.00 | 0.00 | 74 | 1011.7 |
| 20260508081743 | 10 | 169 | 14.5 | 17.7 | 0.00 | 0.00 | 0.00 | 75 | 1011.7 |
| 20260508081651 | 10 | 162 | 9.7 | 17.7 | 0.00 | 0.00 | 0.00 | 75 | 1011.7 |
| 20260508081548 | 10 | 257 | 9.7 | 17.7 | 0.00 | 0.00 | 0.00 | 75 | 1011.7 |
| 20260508081424 | 10 | 147 | 8.0 | 17.7 | 0.00 | 0.00 | 0.00 | 75 | 1011.7 |
| 20260508081325 | 10 | 277 | 12.9 | 17.7 | 0.00 | 0.00 | 0.00 | 75 | 1011.7 |
| 20260508081243 | 10 | 299 | 12.9 | 17.7 | 0.00 | 0.00 | 0.00 | 75 | 1011.7 |
| 20260508081141 | 10 | 191 | 12.9 | 17.7 | 0.00 | 0.00 | 0.00 | 75 | 1011.7 |
| 20260508081040 | 10 | 182 | 12.9 | 17.7 | 0.00 | 0.00 | 0.00 | 75 | 1011.7 |
| 20260508080937 | 10 | 277 | 9.7 | 17.7 | 0.00 | 0.00 | 0.00 | 76 | 1011.7 |
| 20260508080834 | 10 | 82 | 8.0 | 17.7 | 0.00 | 0.00 | 0.00 | 76 | 1011.7 |
| 20260508080732 | 10 | 278 | 12.9 | 17.7 | 0.00 | 0.00 | 0.00 | 75 | 1011.7 |
| 20260508080631 | 10 | 275 | 11.3 | 17.7 | 0.00 | 0.00 | 0.00 | 75 | 1011.7 |
| 20260508080535 | 10 | 130 | 9.7 | 17.7 | 0.00 | 0.00 | 0.00 | 75 | 1011.7 |
| 20260508080455 | 10 | 316 | 9.7 | 17.7 | 0.00 | 0.00 | 0.00 | 75 | 1011.7 |
| 20260508080332 | 10 | 138 | 11.3 | 17.7 | 0.00 | 0.00 | 0.00 | 75 | 1011.7 |
| 20260508080250 | 10 | 282 | 11.3 | 17.7 | 0.00 | 0.00 | 0.00 | 75 | 1011.7 |
| 20260508080201 | 10 | 260 | 12.9 | 17.7 | 0.00 | 0.00 | 0.00 | 75 | 1011.7 |
| 20260508080039 | 10 | 222 | 12.9 | 17.7 | 0.00 | 0.00 | 0.00 | 76 | 1011.7 |
| 20260508075937 | 10 | 329 | 9.7 | 17.7 | 0.00 | 0.00 | 0.00 | 76 | 1011.7 |
| 20260508075836 | 10 | 72 | 9.7 | 17.7 | 0.00 | 0.00 | 0.00 | 76 | 1011.8 |
| 20260508075736 | 10 | 251 | 11.3 | 17.7 | 0.00 | 0.00 | 0.00 | 76 | 1011.8 |
| 20260508075635 | 10 | 222 | 12.9 | 17.7 | 0.00 | 0.00 | 0.00 | 75 | 1011.8 |
| 20260508075534 | 11 | 284 | 9.7 | 17.7 | 0.00 | 0.00 | 0.00 | 75 | 1011.8 |
| 20260508075432 | 11 | 240 | 9.7 | 17.7 | 0.00 | 0.00 | 0.00 | 75 | 1011.8 |
| 20260508075330 | 11 | 282 | 11.3 | 17.7 | 0.00 | 0.00 | 0.00 | 75 | 1011.8 |
| 20260508075229 | 11 | 323 | 8.0 | 17.7 | 0.00 | 0.00 | 0.00 | 75 | 1011.8 |
| 20260508075127 | 11 | 309 | 11.3 | 17.7 | 0.00 | 0.00 | 0.00 | 75 | 1011.8 |
| 20260508075030 | 11 | 112 | 9.7 | 17.7 | 0.00 | 0.00 | 0.00 | 75 | 1011.8 |
| 20260508074929 | 11 | 241 | 12.9 | 17.7 | 0.00 | 0.00 | 0.00 | 75 | 1011.8 |
| 20260508074827 | 11 | 329 | 9.7 | 17.7 | 0.00 | 0.00 | 0.00 | 75 | 1011.8 |
| 20260508074727 | 11 | 304 | 6.4 | 16.1 | 0.00 | 0.00 | 0.00 | 75 | 1011.8 |
| 20260508074656 | 11 | 226 | 11.3 | 19.3 | 0.00 | 0.00 | 0.00 | 75 | 1011.8 |
| 20260508074533 | 11 | 318 | 11.3 | 19.3 | 0.00 | 0.00 | 0.00 | 74 | 1011.8 |
| 20260508074452 | 11 | 298 | 9.7 | 19.3 | 0.00 | 0.00 | 0.00 | 74 | 1011.8 |
| 20260508074337 | 11 | 261 | 11.3 | 19.3 | 0.00 | 0.00 | 0.00 | 74 | 1011.7 |
| 20260508074234 | 11 | 280 | 11.3 | 19.3 | 0.00 | 0.00 | 0.00 | 75 | 1011.7 |
| 20260508074152 | 11 | 226 | 9.7 | 19.3 | 0.00 | 0.00 | 0.00 | 75 | 1011.7 |
| 20260508074050 | 11 | 223 | 9.7 | 19.3 | 0.00 | 0.00 | 0.00 | 74 | 1011.7 |
| 20260508073929 | 11 | 330 | 11.3 | 19.3 | 0.00 | 0.00 | 0.00 | 74 | 1011.7 |
| 20260508073847 | 11 | 112 | 14.5 | 19.3 | 0.00 | 0.00 | 0.00 | 74 | 1011.7 |
| 20260508073748 | 11 | 138 | 8.0 | 16.1 | 0.00 | 0.00 | 0.00 | 74 | 1011.7 |
| 20260508073646 | 11 | 237 | 11.3 | 16.1 | 0.00 | 0.00 | 0.00 | 74 | 1011.7 |
| 20260508073524 | 11 | 277 | 11.3 | 16.1 | 0.00 | 0.00 | 0.00 | 74 | 1011.7 |
| 20260508073429 | 11 | 151 | 9.7 | 16.1 | 0.00 | 0.00 | 0.00 | 74 | 1011.7 |
| 20260508073327 | 11 | 270 | 9.7 | 16.1 | 0.00 | 0.00 | 0.00 | 74 | 1011.7 |
| 20260508073226 | 11 | 244 | 11.3 | 16.1 | 0.00 | 0.00 | 0.00 | 74 | 1011.7 |
| 20260508073158 | 11 | 208 | 8.0 | 16.1 | 0.00 | 0.00 | 0.00 | 74 | 1011.7 |
| 20260508073039 | 11 | 323 | 6.4 | 16.1 | 0.00 | 0.00 | 0.00 | 74 | 1011.7 |
| 20260508072937 | 11 | 318 | 8.0 | 16.1 | 0.00 | 0.00 | 0.00 | 74 | 1011.7 |
| 20260508072835 | 11 | 313 | 11.3 | 16.1 | 0.00 | 0.00 | 0.00 | 74 | 1011.7 |
| 20260508072733 | 11 | 130 | 8.0 | 12.9 | 0.00 | 0.00 | 0.00 | 74 | 1011.7 |
| 20260508072656 | 11 | 312 | 11.3 | 12.9 | 0.00 | 0.00 | 0.00 | 74 | 1011.7 |
| 20260508072534 | 11 | 294 | 11.3 | 12.9 | 0.00 | 0.00 | 0.00 | 74 | 1011.7 |
| 20260508072433 | 11 | 220 | 9.7 | 14.5 | 0.00 | 0.00 | 0.00 | 74 | 1011.7 |
| 20260508072331 | 11 | 333 | 8.0 | 17.7 | 0.00 | 0.00 | 0.00 | 74 | 1011.7 |
| 20260508072232 | 11 | 193 | 9.7 | 17.7 | 0.00 | 0.00 | 0.00 | 74 | 1011.7 |
| 20260508072132 | 11 | 253 | 6.4 | 17.7 | 0.00 | 0.00 | 0.00 | 74 | 1011.7 |
| 20260508072030 | 11 | 150 | 9.7 | 17.7 | 0.00 | 0.00 | 0.00 | 73 | 1011.7 |
| 20260508071933 | 11 | 193 | 8.0 | 17.7 | 0.00 | 0.00 | 0.00 | 73 | 1011.7 |
| 20260508071832 | 11 | 268 | 8.0 | 17.7 | 0.00 | 0.00 | 0.00 | 73 | 1011.7 |
| 20260508071730 | 11 | 306 | 8.0 | 17.7 | 0.00 | 0.00 | 0.00 | 73 | 1011.7 |
| 20260508071659 | 11 | 199 | 9.7 | 17.7 | 0.00 | 0.00 | 0.00 | 73 | 1011.7 |
| 20260508071538 | 11 | 309 | 11.3 | 17.7 | 0.00 | 0.00 | 0.00 | 73 | 1011.7 |
| 20260508071436 | 11 | 332 | 11.3 | 17.7 | 0.00 | 0.00 | 0.00 | 73 | 1011.7 |
| 20260508071334 | 11 | 288 | 11.3 | 17.7 | 0.00 | 0.00 | 0.00 | 73 | 1012.1 |
| 20260508071236 | 11 | 198 | 11.3 | 12.9 | 0.00 | 0.00 | 0.00 | 72 | 1012.1 |
| 20260508071135 | 11 | 253 | 9.7 | 12.9 | 0.00 | 0.00 | 0.00 | 73 | 1012.1 |
| 20260508071032 | 11 | 188 | 9.7 | 12.9 | 0.00 | 0.00 | 0.00 | 73 | 1012.1 |
| 20260508070931 | 11 | 260 | 8.0 | 12.9 | 0.00 | 0.00 | 0.00 | 72 | 1012.1 |
| 20260508070849 | 11 | 138 | 8.0 | 16.1 | 0.00 | 0.00 | 0.00 | 72 | 1012.1 |
| 20260508070725 | 11 | 164 | 8.0 | 16.1 | 0.00 | 0.00 | 0.00 | 72 | 1012.1 |
| 20260508070645 | 11 | 196 | 8.0 | 16.1 | 0.00 | 0.00 | 0.00 | 72 | 1012.1 |
| 20260508070604 | 11 | 330 | 9.7 | 16.1 | 0.00 | 0.00 | 0.00 | 72 | 1012.1 |
| 20260508070424 | 11 | 328 | 11.3 | 16.1 | 0.00 | 0.00 | 0.00 | 72 | 1012.1 |
| 20260508070342 | 11 | 280 | 11.3 | 16.1 | 0.00 | 0.00 | 0.00 | 72 | 1012.1 |
| 20260508070259 | 11 | 271 | 11.3 | 16.1 | 0.00 | 0.00 | 0.00 | 72 | 1012.1 |
| 20260508070208 | 11 | 298 | 11.3 | 16.1 | 0.00 | 0.00 | 0.00 | 72 | 1012.1 |
| 20260508070024 | 11 | 289 | 12.9 | 16.1 | 0.00 | 0.00 | 0.00 | 72 | 1012.1 |
| 20260508065924 | 11 | 325 | 9.7 | 16.1 | 0.00 | 0.00 | 0.00 | 72 | 1012.1 |
| 20260508065824 | 11 | 332 | 11.3 | 16.1 | 0.00 | 0.00 | 0.00 | 71 | 1012.1 |
| 20260508065743 | 11 | 164 | 11.3 | 17.7 | 0.00 | 0.00 | 0.00 | 71 | 1012.1 |
| 20260508065641 | 11 | 332 | 11.3 | 17.7 | 0.00 | 0.00 | 0.00 | 71 | 1012.1 |
| 20260508065559 | 11 | 332 | 9.7 | 17.7 | 0.00 | 0.00 | 0.00 | 71 | 1012.1 |
| 20260508065441 | 11 | 298 | 11.3 | 17.7 | 0.00 | 0.00 | 0.00 | 71 | 1012.1 |
| 20260508065340 | 11 | 260 | 11.3 | 17.7 | 0.00 | 0.00 | 0.00 | 71 | 1012.1 |
| 20260508065240 | 11 | 277 | 9.7 | 17.7 | 0.00 | 0.00 | 0.00 | 71 | 1012.1 |
| 20260508065140 | 11 | 113 | 9.7 | 17.7 | 0.00 | 0.00 | 0.00 | 71 | 1012.1 |
| 20260508065039 | 11 | 329 | 11.3 | 17.7 | 0.00 | 0.00 | 0.00 | 70 | 1012.1 |
| 20260508064937 | 11 | 313 | 8.0 | 17.7 | 0.00 | 0.00 | 0.00 | 71 | 1012.1 |
| 20260508064840 | 11 | 120 | 12.9 | 17.7 | 0.00 | 0.00 | 0.00 | 70 | 1012.1 |
| 20260508064739 | 11 | 254 | 9.7 | 16.1 | 0.00 | 0.00 | 0.00 | 70 | 1012.1 |
| 20260508064648 | 11 | 203 | 11.3 | 16.1 | 0.00 | 0.00 | 0.00 | 70 | 1012.1 |
| 20260508064526 | 11 | 272 | 8.0 | 16.1 | 0.00 | 0.00 | 0.00 | 71 | 1012.1 |
| 20260508064443 | 11 | 88 | 8.0 | 16.1 | 0.00 | 0.00 | 0.00 | 70 | 1012.1 |
| 20260508064342 | 11 | 319 | 11.3 | 16.1 | 0.00 | 0.00 | 0.00 | 71 | 1012.4 |
| 20260508064301 | 11 | 76 | 9.7 | 16.1 | 0.00 | 0.00 | 0.00 | 71 | 1012.4 |
| 20260508064139 | 11 | 176 | 9.7 | 16.1 | 0.00 | 0.00 | 0.00 | 70 | 1012.4 |
| 20260508064041 | 11 | 257 | 8.0 | 16.1 | 0.00 | 0.00 | 0.00 | 70 | 1012.4 |
| 20260508063940 | 11 | 265 | 9.7 | 16.1 | 0.00 | 0.00 | 0.00 | 70 | 1012.4 |
| 20260508063838 | 11 | 186 | 9.7 | 16.1 | 0.00 | 0.00 | 0.00 | 69 | 1012.4 |
| 20260508063737 | 11 | 280 | 9.7 | 16.1 | 0.00 | 0.00 | 0.00 | 69 | 1012.4 |
| 20260508063636 | 11 | 162 | 11.3 | 16.1 | 0.00 | 0.00 | 0.00 | 69 | 1012.4 |
| 20260508063537 | 11 | 137 | 11.3 | 16.1 | 0.00 | 0.00 | 0.00 | 69 | 1012.4 |
| 20260508063436 | 11 | 40 | 9.7 | 16.1 | 0.00 | 0.00 | 0.00 | 69 | 1012.4 |
| 20260508063339 | 11 | 182 | 9.7 | 16.1 | 0.00 | 0.00 | 0.00 | 69 | 1012.4 |
| 20260508063257 | 11 | 143 | 11.3 | 16.1 | 0.00 | 0.00 | 0.00 | 69 | 1012.4 |
| 20260508063208 | 11 | 332 | 12.9 | 16.1 | 0.00 | 0.00 | 0.00 | 68 | 1012.4 |
| 20260508063045 | 11 | 332 | 9.7 | 16.1 | 0.00 | 0.00 | 0.00 | 68 | 1012.4 |
| 20260508062942 | 11 | 161 | 8.0 | 16.1 | 0.00 | 0.00 | 0.00 | 68 | 1012.4 |
| 20260508062840 | 11 | 285 | 6.4 | 16.1 | 0.00 | 0.00 | 0.00 | 68 | 1012.4 |
| 20260508062738 | 11 | 234 | 11.3 | 16.1 | 0.00 | 0.00 | 0.00 | 68 | 1012.4 |
| 20260508062636 | 11 | 206 | 9.7 | 16.1 | 0.00 | 0.00 | 0.00 | 68 | 1012.4 |
| 20260508062534 | 11 | 208 | 9.7 | 16.1 | 0.00 | 0.00 | 0.00 | 68 | 1012.4 |
| 20260508062436 | 11 | 230 | 9.7 | 17.7 | 0.00 | 0.00 | 0.00 | 68 | 1012.4 |
| 20260508062339 | 11 | 264 | 9.7 | 17.7 | 0.00 | 0.00 | 0.00 | 68 | 1012.4 |
| 20260508062237 | 11 | 236 | 11.3 | 17.7 | 0.00 | 0.00 | 0.00 | 68 | 1012.4 |
| 20260508062135 | 12 | 332 | 9.7 | 17.7 | 0.00 | 0.00 | 0.00 | 68 | 1012.4 |
| 20260508062033 | 12 | 248 | 8.0 | 17.7 | 0.00 | 0.00 | 0.00 | 68 | 1012.4 |
| 20260508061931 | 12 | 323 | 9.7 | 17.7 | 0.00 | 0.00 | 0.00 | 68 | 1012.4 |
| 20260508061849 | 12 | 110 | 8.0 | 17.7 | 0.00 | 0.00 | 0.00 | 68 | 1012.4 |
| 20260508061737 | 12 | 333 | 6.4 | 17.7 | 0.00 | 0.00 | 0.00 | 68 | 1012.4 |
| 20260508061651 | 12 | 71 | 8.0 | 17.7 | 0.00 | 0.00 | 0.00 | 68 | 1012.4 |
| 20260508061528 | 12 | 311 | 11.3 | 17.7 | 0.00 | 0.00 | 0.00 | 68 | 1012.4 |
| 20260508061427 | 12 | 229 | 8.0 | 17.7 | 0.00 | 0.00 | 0.00 | 68 | 1012.4 |
| 20260508061326 | 12 | 315 | 12.9 | 17.7 | 0.00 | 0.00 | 0.00 | 68 | 1012.5 |
| 20260508061244 | 12 | 196 | 11.3 | 17.7 | 0.00 | 0.00 | 0.00 | 69 | 1012.5 |
| 20260508061142 | 12 | 294 | 6.4 | 14.5 | 0.00 | 0.00 | 0.00 | 69 | 1012.5 |
| 20260508061040 | 12 | 332 | 6.4 | 14.5 | 0.00 | 0.00 | 0.00 | 68 | 1012.5 |
| 20260508060942 | 12 | 213 | 9.7 | 14.5 | 0.00 | 0.00 | 0.00 | 68 | 1012.5 |
| 20260508060840 | 12 | 107 | 9.7 | 14.5 | 0.00 | 0.00 | 0.00 | 68 | 1012.5 |
| 20260508060800 | 12 | 161 | 9.7 | 17.7 | 0.00 | 0.00 | 0.00 | 68 | 1012.5 |
| 20260508060640 | 12 | 316 | 9.7 | 17.7 | 0.00 | 0.00 | 0.00 | 68 | 1012.5 |
| 20260508060538 | 12 | 184 | 8.0 | 17.7 | 0.00 | 0.00 | 0.00 | 68 | 1012.5 |
| 20260508060456 | 12 | 258 | 6.4 | 17.7 | 0.00 | 0.00 | 0.00 | 67 | 1012.5 |
| 20260508060334 | 12 | 319 | 11.3 | 17.7 | 0.00 | 0.00 | 0.00 | 67 | 1012.5 |
| 20260508060232 | 12 | 164 | 9.7 | 17.7 | 0.00 | 0.00 | 0.00 | 68 | 1012.5 |
| 20260508060206 | 12 | 172 | 9.7 | 17.7 | 0.00 | 0.00 | 0.00 | 68 | 1012.5 |
| 20260508060103 | 12 | 148 | 9.7 | 17.7 | 0.00 | 0.00 | 0.00 | 68 | 1012.5 |
| 20260508055940 | 12 | 260 | 11.3 | 17.7 | 0.00 | 0.00 | 0.00 | 68 | 1012.5 |
| 20260508055839 | 12 | 330 | 8.0 | 16.1 | 0.00 | 0.00 | 0.00 | 68 | 1012.7 |
| 20260508055737 | 12 | 164 | 9.7 | 16.1 | 0.00 | 0.00 | 0.00 | 68 | 1012.7 |
| 20260508055636 | 12 | 85 | 11.3 | 16.1 | 0.00 | 0.00 | 0.00 | 68 | 1012.7 |
| 20260508055533 | 12 | 322 | 8.0 | 16.1 | 0.00 | 0.00 | 0.00 | 68 | 1012.7 |
| 20260508055436 | 12 | 320 | 9.7 | 16.1 | 0.00 | 0.00 | 0.00 | 68 | 1012.7 |
| 20260508055334 | 12 | 192 | 9.7 | 16.1 | 0.00 | 0.00 | 0.00 | 69 | 1012.7 |
| 20260508055231 | 12 | 113 | 11.3 | 16.1 | 0.00 | 0.00 | 0.00 | 68 | 1012.7 |
| 20260508055130 | 12 | 332 | 8.0 | 16.1 | 0.00 | 0.00 | 0.00 | 68 | 1012.7 |
| 20260508055028 | 12 | 271 | 8.0 | 16.1 | 0.00 | 0.00 | 0.00 | 68 | 1012.7 |
| 20260508054946 | 12 | 315 | 6.4 | 16.1 | 0.00 | 0.00 | 0.00 | 67 | 1012.7 |
| 20260508054904 | 12 | 329 | 4.8 | 16.1 | 0.00 | 0.00 | 0.00 | 66 | 1012.7 |
| 20260508054738 | 12 | 216 | 11.3 | 16.1 | 0.00 | 0.00 | 0.00 | 67 | 1012.7 |
| 20260508054648 | 12 | 237 | 6.4 | 16.1 | 0.00 | 0.00 | 0.00 | 67 | 1012.7 |
| 20260508054525 | 12 | 292 | 8.0 | 16.1 | 0.00 | 0.00 | 0.00 | 67 | 1012.7 |
| 20260508054444 | 12 | 282 | 4.8 | 16.1 | 0.00 | 0.00 | 0.00 | 67 | 1012.7 |
| 20260508054341 | 12 | 200 | 6.4 | 16.1 | 0.00 | 0.00 | 0.00 | 66 | 1012.6 |
| 20260508054240 | 12 | 244 | 9.7 | 16.1 | 0.00 | 0.00 | 0.00 | 66 | 1012.6 |
| 20260508054139 | 12 | 208 | 11.3 | 16.1 | 0.00 | 0.00 | 0.00 | 67 | 1012.6 |
| 20260508054038 | 12 | 325 | 9.7 | 16.1 | 0.00 | 0.00 | 0.00 | 68 | 1012.6 |
| 20260508053940 | 12 | 148 | 8.0 | 16.1 | 0.00 | 0.00 | 0.00 | 67 | 1012.6 |
| 20260508053841 | 12 | 93 | 9.7 | 16.1 | 0.00 | 0.00 | 0.00 | 67 | 1012.6 |
| 20260508053738 | 12 | 282 | 9.7 | 16.1 | 0.00 | 0.00 | 0.00 | 67 | 1012.6 |
| 20260508053637 | 12 | 121 | 6.4 | 12.9 | 0.00 | 0.00 | 0.00 | 67 | 1012.6 |
| 20260508053535 | 12 | 210 | 8.0 | 12.9 | 0.00 | 0.00 | 0.00 | 67 | 1012.6 |
| 20260508053433 | 12 | 282 | 9.7 | 12.9 | 0.00 | 0.00 | 0.00 | 68 | 1012.6 |
| 20260508053336 | 12 | 216 | 8.0 | 12.9 | 0.00 | 0.00 | 0.00 | 67 | 1012.6 |
| 20260508053256 | 12 | 308 | 4.8 | 12.9 | 0.00 | 0.00 | 0.00 | 66 | 1012.6 |
| 20260508053227 | 12 | 104 | 6.4 | 12.9 | 0.00 | 0.00 | 0.00 | 65 | 1012.6 |
| 20260508053042 | 12 | 320 | 6.4 | 12.9 | 0.00 | 0.00 | 0.00 | 65 | 1012.6 |
| 20260508053001 | 12 | 308 | 4.8 | 12.9 | 0.00 | 0.00 | 0.00 | 65 | 1012.6 |
| 20260508052838 | 12 | 281 | 6.4 | 12.9 | 0.00 | 0.00 | 0.00 | 66 | 1012.6 |
| 20260508052736 | 12 | 224 | 6.4 | 12.9 | 0.00 | 0.00 | 0.00 | 66 | 1012.6 |
| 20260508052635 | 12 | 209 | 8.0 | 12.9 | 0.00 | 0.00 | 0.00 | 65 | 1012.6 |
| 20260508052534 | 12 | 140 | 8.0 | 12.9 | 0.00 | 0.00 | 0.00 | 65 | 1012.6 |
| 20260508052457 | 12 | 244 | 4.8 | 12.9 | 0.00 | 0.00 | 0.00 | 65 | 1012.6 |
| 20260508052334 | 12 | 330 | 6.4 | 12.9 | 0.00 | 0.00 | 0.00 | 65 | 1012.6 |
| 20260508052232 | 12 | 313 | 8.0 | 12.9 | 0.00 | 0.00 | 0.00 | 65 | 1012.6 |
| 20260508052130 | 12 | 76 | 11.3 | 12.9 | 0.00 | 0.00 | 0.00 | 65 | 1012.6 |
| 20260508052029 | 12 | 175 | 9.7 | 12.9 | 0.00 | 0.00 | 0.00 | 66 | 1012.6 |
| 20260508051929 | 12 | 329 | 8.0 | 12.9 | 0.00 | 0.00 | 0.00 | 65 | 1012.6 |
| 20260508051827 | 12 | 79 | 6.4 | 12.9 | 0.00 | 0.00 | 0.00 | 64 | 1012.6 |
| 20260508051741 | 12 | 195 | 9.7 | 12.9 | 0.00 | 0.00 | 0.00 | 64 | 1012.6 |
| 20260508051651 | 12 | 210 | 9.7 | 12.9 | 0.00 | 0.00 | 0.00 | 64 | 1012.6 |
| 20260508051529 | 12 | 76 | 9.7 | 12.9 | 0.00 | 0.00 | 0.00 | 65 | 1012.6 |
| 20260508051426 | 12 | 124 | 9.7 | 12.9 | 0.00 | 0.00 | 0.00 | 65 | 1012.6 |
| 20260508051344 | 12 | 329 | 4.8 | 11.3 | 0.00 | 0.00 | 0.00 | 65 | 1012.6 |
| 20260508051242 | 12 | 205 | 4.8 | 11.3 | 0.00 | 0.00 | 0.00 | 65 | 1012.6 |
| 20260508051140 | 12 | 274 | 6.4 | 11.3 | 0.00 | 0.00 | 0.00 | 65 | 1012.6 |
| 20260508051040 | 12 | 229 | 4.8 | 11.3 | 0.00 | 0.00 | 0.00 | 65 | 1012.6 |
| 20260508051003 | 12 | 165 | 6.4 | 11.3 | 0.00 | 0.00 | 0.00 | 66 | 1012.6 |
| 20260508050839 | 12 | 291 | 6.4 | 11.3 | 0.00 | 0.00 | 0.00 | 68 | 1012.6 |
| 20260508050759 | 12 | 323 | 6.4 | 11.3 | 0.00 | 0.00 | 0.00 | 68 | 1012.6 |
| 20260508050636 | 12 | 295 | 8.0 | 11.3 | 0.00 | 0.00 | 0.00 | 68 | 1012.6 |
| 20260508050533 | 12 | 212 | 3.2 | 9.7 | 0.00 | 0.00 | 0.00 | 67 | 1012.6 |
| 20260508050432 | 12 | 330 | 1.6 | 9.7 | 0.00 | 0.00 | 0.00 | 66 | 1012.6 |
| 20260508050350 | 12 | 333 | 3.2 | 9.7 | 0.00 | 0.00 | 0.00 | 66 | 1012.6 |
| 20260508050248 | 12 | 233 | 4.8 | 9.7 | 0.00 | 0.00 | 0.00 | 65 | 1012.6 |
| 20260508050156 | 12 | 329 | 3.2 | 9.7 | 0.00 | 0.00 | 0.00 | 65 | 1012.6 |
| 20260508050038 | 12 | 260 | 3.2 | 9.7 | 0.00 | 0.00 | 0.00 | 66 | 1012.6 |
| 20260508045935 | 12 | 137 | 4.8 | 11.3 | 0.00 | 0.00 | 0.00 | 67 | 1012.6 |
| 20260508045834 | 12 | 329 | 4.8 | 11.3 | 0.00 | 0.00 | 0.00 | 66 | 1012.4 |
| 20260508045755 | 12 | 330 | 6.4 | 11.3 | 0.00 | 0.00 | 0.00 | 65 | 1012.4 |
| 20260508045632 | 12 | 332 | 6.4 | 11.3 | 0.00 | 0.00 | 0.00 | 65 | 1012.4 |
| 20260508045531 | 12 | 332 | 6.4 | 11.3 | 0.00 | 0.00 | 0.00 | 66 | 1012.4 |
| 20260508045431 | 12 | 332 | 6.4 | 12.9 | 0.00 | 0.00 | 0.00 | 66 | 1012.4 |
| 20260508045337 | 12 | 332 | 4.8 | 12.9 | 0.00 | 0.00 | 0.00 | 66 | 1012.4 |
| 20260508045235 | 12 | 330 | 8.0 | 12.9 | 0.00 | 0.00 | 0.00 | 67 | 1012.4 |
| 20260508045133 | 12 | 220 | 6.4 | 12.9 | 0.00 | 0.00 | 0.00 | 67 | 1012.4 |
| 20260508045032 | 12 | 215 | 3.2 | 12.9 | 0.00 | 0.00 | 0.00 | 66 | 1012.4 |
| 20260508044932 | 12 | 240 | 3.2 | 12.9 | 0.00 | 0.00 | 0.00 | 66 | 1012.4 |
| 20260508044829 | 12 | 330 | 4.8 | 12.9 | 0.00 | 0.00 | 0.00 | 66 | 1012.4 |
| 20260508044749 | 12 | 329 | 4.8 | 12.9 | 0.00 | 0.00 | 0.00 | 66 | 1012.4 |
| 20260508044658 | 13 | 332 | 4.8 | 12.9 | 0.00 | 0.00 | 0.00 | 66 | 1012.4 |
| 20260508044540 | 13 | 330 | 1.6 | 9.7 | 0.00 | 0.00 | 0.00 | 65 | 1012.4 |
| 20260508044440 | 13 | 332 | 3.2 | 11.3 | 0.00 | 0.00 | 0.00 | 66 | 1012.4 |
| 20260508044337 | 13 | 333 | 4.8 | 11.3 | 0.00 | 0.00 | 0.00 | 66 | 1012.3 |
| 20260508044236 | 13 | 332 | 8.0 | 11.3 | 0.00 | 0.00 | 0.00 | 65 | 1012.3 |
| 20260508044135 | 13 | 277 | 8.0 | 11.3 | 0.00 | 0.00 | 0.00 | 65 | 1012.3 |
| 20260508044053 | 13 | 244 | 3.2 | 11.3 | 0.00 | 0.00 | 0.00 | 65 | 1012.3 |
| 20260508043931 | 13 | 333 | 1.6 | 11.3 | 0.00 | 0.00 | 0.00 | 64 | 1012.3 |
| 20260508043834 | 13 | 168 | 3.2 | 12.9 | 0.00 | 0.00 | 0.00 | 65 | 1012.3 |
| 20260508043732 | 13 | 330 | 4.8 | 12.9 | 0.00 | 0.00 | 0.00 | 66 | 1012.3 |
| 20260508043650 | 13 | 332 | 4.8 | 12.9 | 0.00 | 0.00 | 0.00 | 65 | 1012.3 |
| 20260508043527 | 13 | 281 | 4.8 | 12.9 | 0.00 | 0.00 | 0.00 | 65 | 1012.3 |
| 20260508043425 | 13 | 224 | 1.6 | 12.9 | 0.00 | 0.00 | 0.00 | 65 | 1012.3 |
| 20260508043326 | 13 | 148 | 6.4 | 12.9 | 0.00 | 0.00 | 0.00 | 65 | 1012.3 |
| 20260508043226 | 13 | 332 | 8.0 | 12.9 | 0.00 | 0.00 | 0.00 | 65 | 1012.3 |
| 20260508043200 | 13 | 229 | 3.2 | 12.9 | 0.00 | 0.00 | 0.00 | 65 | 1012.3 |
| 20260508043036 | 13 | 333 | 3.2 | 12.9 | 0.00 | 0.00 | 0.00 | 66 | 1012.3 |
| 20260508042935 | 13 | 226 | 9.7 | 12.9 | 0.00 | 0.00 | 0.00 | 66 | 1012.3 |
| 20260508042834 | 13 | 240 | 3.2 | 12.9 | 0.00 | 0.00 | 0.00 | 65 | 1012.5 |
| 20260508042733 | 13 | 284 | 8.0 | 12.9 | 0.00 | 0.00 | 0.00 | 65 | 1012.5 |
| 20260508042632 | 13 | 241 | 4.8 | 9.7 | 0.00 | 0.00 | 0.00 | 65 | 1012.5 |
| 20260508042530 | 13 | 291 | 4.8 | 9.7 | 0.00 | 0.00 | 0.00 | 65 | 1012.5 |
| 20260508042432 | 13 | 332 | 4.8 | 9.7 | 0.00 | 0.00 | 0.00 | 65 | 1012.5 |
| 20260508042330 | 13 | 213 | 3.2 | 9.7 | 0.00 | 0.00 | 0.00 | 65 | 1012.5 |
| 20260508042249 | 13 | 328 | 3.2 | 9.7 | 0.00 | 0.00 | 0.00 | 64 | 1012.5 |
| 20260508042129 | 13 | 333 | 4.8 | 9.7 | 0.00 | 0.00 | 0.00 | 64 | 1012.5 |
| 20260508042027 | 13 | 332 | 6.4 | 9.7 | 0.00 | 0.00 | 0.00 | 63 | 1012.5 |
| 20260508041926 | 13 | 326 | 3.2 | 12.9 | 0.00 | 0.00 | 0.00 | 64 | 1012.5 |
| 20260508041826 | 13 | 236 | 8.0 | 12.9 | 0.00 | 0.00 | 0.00 | 64 | 1012.5 |
| 20260508041757 | 13 | 131 | 4.8 | 12.9 | 0.00 | 0.00 | 0.00 | 65 | 1012.5 |
| 20260508041649 | 13 | 333 | 3.2 | 12.9 | 0.00 | 0.00 | 0.00 | 65 | 1012.5 |
| 20260508041527 | 13 | 202 | 4.8 | 12.9 | 0.00 | 0.00 | 0.00 | 64 | 1012.5 |
| 20260508041425 | 13 | 210 | 6.4 | 12.9 | 0.00 | 0.00 | 0.00 | 65 | 1012.5 |
| 20260508041343 | 13 | 188 | 4.8 | 12.9 | 0.00 | 0.00 | 0.00 | 64 | 1012.7 |
| 20260508041243 | 13 | 296 | 4.8 | 12.9 | 0.00 | 0.00 | 0.00 | 64 | 1012.7 |
| 20260508041142 | 13 | 237 | 8.0 | 12.9 | 0.00 | 0.00 | 0.00 | 63 | 1012.7 |
| 20260508041041 | 13 | 332 | 6.4 | 12.9 | 0.00 | 0.00 | 0.00 | 64 | 1012.7 |
| 20260508040924 | 13 | 316 | 3.2 | 11.3 | 0.00 | 0.00 | 0.00 | 64 | 1012.7 |
| 20260508040843 | 13 | 294 | 1.6 | 12.9 | 0.00 | 0.00 | 0.00 | 65 | 1012.7 |
| 20260508040741 | 13 | 127 | 1.6 | 12.9 | 0.00 | 0.00 | 0.00 | 65 | 1012.7 |
| 20260508040640 | 13 | 288 | 4.8 | 12.9 | 0.00 | 0.00 | 0.00 | 64 | 1012.7 |
| 20260508040539 | 13 | 226 | 3.2 | 12.9 | 0.00 | 0.00 | 0.00 | 63 | 1012.7 |
| 20260508040438 | 13 | 212 | 3.2 | 12.9 | 0.00 | 0.00 | 0.00 | 63 | 1012.7 |
| 20260508040336 | 13 | 272 | 4.8 | 12.9 | 0.00 | 0.00 | 0.00 | 63 | 1012.7 |
| 20260508040242 | 13 | 328 | 4.8 | 12.9 | 0.00 | 0.00 | 0.00 | 63 | 1012.7 |
| 20260508040212 | 13 | 150 | 3.2 | 12.9 | 0.00 | 0.00 | 0.00 | 63 | 1012.7 |
| 20260508040028 | 13 | 27 | 9.7 | 12.9 | 0.00 | 0.00 | 0.00 | 63 | 1012.7 |
| 20260508035927 | 13 | 88 | 4.8 | 11.3 | 0.00 | 0.00 | 0.00 | 63 | 1012.7 |
| 20260508035845 | 13 | 332 | 6.4 | 11.3 | 0.00 | 0.00 | 0.00 | 62 | 1012.6 |
| 20260508035742 | 13 | 323 | 4.8 | 11.3 | 0.00 | 0.00 | 0.00 | 62 | 1012.6 |
| 20260508035642 | 13 | 76 | 3.2 | 11.3 | 0.00 | 0.00 | 0.00 | 62 | 1012.6 |
| 20260508035541 | 13 | 104 | 4.8 | 11.3 | 0.00 | 0.00 | 0.00 | 62 | 1012.6 |
| 20260508035459 | 13 | 313 | 8.0 | 11.3 | 0.00 | 0.00 | 0.00 | 63 | 1012.6 |
| 20260508035341 | 13 | 112 | 4.8 | 11.3 | 0.00 | 0.00 | 0.00 | 63 | 1012.6 |
| 20260508035240 | 13 | 325 | 4.8 | 11.3 | 0.00 | 0.00 | 0.00 | 62 | 1012.6 |
| 20260508035138 | 13 | 330 | 6.4 | 11.3 | 0.00 | 0.00 | 0.00 | 63 | 1012.6 |
| 20260508035036 | 13 | 203 | 6.4 | 9.7 | 0.00 | 0.00 | 0.00 | 63 | 1012.6 |
| 20260508034935 | 13 | 200 | 6.4 | 9.7 | 0.00 | 0.00 | 0.00 | 62 | 1012.6 |
| 20260508034853 | 13 | 309 | 6.4 | 9.7 | 0.00 | 0.00 | 0.00 | 62 | 1012.6 |
| 20260508034740 | 13 | 318 | 4.8 | 9.7 | 0.00 | 0.00 | 0.00 | 62 | 1012.6 |
| 20260508034653 | 13 | 330 | 3.2 | 9.7 | 0.00 | 0.00 | 0.00 | 61 | 1012.6 |
| 20260508034532 | 13 | 326 | 3.2 | 9.7 | 0.00 | 0.00 | 0.00 | 61 | 1012.6 |
| 20260508034430 | 13 | 275 | 8.0 | 9.7 | 0.00 | 0.00 | 0.00 | 61 | 1012.6 |
| 20260508034348 | 13 | 322 | 6.4 | 9.7 | 0.00 | 0.00 | 0.00 | 62 | 1012.7 |
| 20260508034307 | 13 | 251 | 6.4 | 9.7 | 0.00 | 0.00 | 0.00 | 62 | 1012.7 |
| 20260508034204 | 13 | 332 | 6.4 | 11.3 | 0.00 | 0.00 | 0.00 | 61 | 1012.7 |
| 20260508034102 | 13 | 333 | 6.4 | 11.3 | 0.00 | 0.00 | 0.00 | 61 | 1012.7 |
| 20260508033940 | 13 | 350 | 6.4 | 11.3 | 0.00 | 0.00 | 0.00 | 61 | 1012.7 |
| 20260508033839 | 13 | 330 | 8.0 | 11.3 | 0.00 | 0.00 | 0.00 | 61 | 1012.7 |
| 20260508033741 | 13 | 359 | 4.8 | 11.3 | 0.00 | 0.00 | 0.00 | 61 | 1012.7 |
| 20260508033700 | 13 | 333 | 4.8 | 11.3 | 0.00 | 0.00 | 0.00 | 63 | 1012.7 |
| 20260508033536 | 13 | 332 | 6.4 | 11.3 | 0.00 | 0.00 | 0.00 | 62 | 1012.7 |
| 20260508033435 | 13 | 339 | 4.8 | 11.3 | 0.00 | 0.00 | 0.00 | 62 | 1012.7 |
| 20260508033334 | 13 | 360 | 8.0 | 12.9 | 0.00 | 0.00 | 0.00 | 62 | 1012.7 |
| 20260508033252 | 13 | 113 | 6.4 | 12.9 | 0.00 | 0.00 | 0.00 | 62 | 1012.7 |
| 20260508033223 | 13 | 330 | 4.8 | 12.9 | 0.00 | 0.00 | 0.00 | 61 | 1012.7 |
| 20260508033039 | 13 | 360 | 6.4 | 12.9 | 0.00 | 0.00 | 0.00 | 60 | 1012.7 |
| 20260508032941 | 13 | 332 | 4.8 | 12.9 | 0.00 | 0.00 | 0.00 | 60 | 1012.7 |
| 20260508032840 | 14 | 359 | 4.8 | 12.9 | 0.00 | 0.00 | 0.00 | 59 | 1012.5 |
| 20260508032759 | 14 | 342 | 4.8 | 12.9 | 0.00 | 0.00 | 0.00 | 61 | 1012.5 |
| 20260508032637 | 14 | 333 | 8.0 | 12.9 | 0.00 | 0.00 | 0.00 | 59 | 1012.5 |
| 20260508032535 | 14 | 330 | 8.0 | 12.9 | 0.00 | 0.00 | 0.00 | 59 | 1012.5 |
| 20260508032434 | 14 | 346 | 8.0 | 12.9 | 0.00 | 0.00 | 0.00 | 59 | 1012.5 |
| 20260508032332 | 14 | 333 | 8.0 | 12.9 | 0.00 | 0.00 | 0.00 | 59 | 1012.5 |
| 20260508032234 | 14 | 332 | 8.0 | 12.9 | 0.00 | 0.00 | 0.00 | 59 | 1012.5 |
| 20260508032132 | 14 | 333 | 9.7 | 12.9 | 0.00 | 0.00 | 0.00 | 58 | 1012.5 |
| 20260508032030 | 14 | 349 | 9.7 | 12.9 | 0.00 | 0.00 | 0.00 | 58 | 1012.5 |
| 20260508031929 | 14 | 332 | 8.0 | 12.9 | 0.00 | 0.00 | 0.00 | 59 | 1012.5 |
| 20260508031827 | 14 | 352 | 11.3 | 12.9 | 0.00 | 0.00 | 0.00 | 59 | 1012.5 |
| 20260508031736 | 14 | 329 | 4.8 | 12.9 | 0.00 | 0.00 | 0.00 | 60 | 1012.5 |
| 20260508031645 | 14 | 306 | 9.7 | 14.5 | 0.00 | 0.00 | 0.00 | 59 | 1012.5 |
| 20260508031526 | 14 | 332 | 6.4 | 16.1 | 0.00 | 0.00 | 0.00 | 59 | 1012.5 |
| 20260508031425 | 14 | 328 | 9.7 | 16.1 | 0.00 | 0.00 | 0.00 | 57 | 1012.5 |
| 20260508031344 | 14 | 335 | 8.0 | 16.1 | 0.00 | 0.00 | 0.00 | 57 | 1012.7 |
| 20260508031242 | 14 | 330 | 9.7 | 16.1 | 0.00 | 0.00 | 0.00 | 57 | 1012.7 |
| 20260508031142 | 14 | 350 | 4.8 | 16.1 | 0.00 | 0.00 | 0.00 | 59 | 1012.7 |
| 20260508031041 | 14 | 332 | 8.0 | 16.1 | 0.00 | 0.00 | 0.00 | 59 | 1012.7 |
| 20260508030940 | 14 | 332 | 9.7 | 16.1 | 0.00 | 0.00 | 0.00 | 60 | 1012.7 |
| 20260508030841 | 14 | 332 | 9.7 | 16.1 | 0.00 | 0.00 | 0.00 | 59 | 1012.7 |
| 20260508030740 | 14 | 346 | 8.0 | 16.1 | 0.00 | 0.00 | 0.00 | 58 | 1012.7 |
| 20260508030639 | 14 | 323 | 9.7 | 16.1 | 0.00 | 0.00 | 0.00 | 59 | 1012.7 |
| 20260508030536 | 14 | 335 | 8.0 | 16.1 | 0.00 | 0.00 | 0.00 | 59 | 1012.7 |
| 20260508030434 | 14 | 328 | 8.0 | 16.1 | 0.00 | 0.00 | 0.00 | 59 | 1012.7 |
| 20260508030332 | 14 | 329 | 8.0 | 16.1 | 0.00 | 0.00 | 0.00 | 58 | 1012.7 |
| 20260508030231 | 14 | 330 | 6.4 | 16.1 | 0.00 | 0.00 | 0.00 | 57 | 1012.7 |
| 20260508030206 | 14 | 330 | 8.0 | 16.1 | 0.00 | 0.00 | 0.00 | 57 | 1012.7 |
| 20260508030103 | 14 | 330 | 9.7 | 16.1 | 0.00 | 0.00 | 0.00 | 58 | 1012.7 |
| 20260508025941 | 14 | 330 | 9.7 | 14.5 | 0.00 | 0.00 | 0.00 | 58 | 1012.7 |
| 20260508025839 | 14 | 330 | 9.7 | 14.5 | 0.00 | 0.00 | 0.00 | 57 | 1012.5 |
| 20260508025738 | 14 | 360 | 9.7 | 14.5 | 0.00 | 0.00 | 0.00 | 57 | 1012.5 |
| 20260508025636 | 14 | 347 | 6.4 | 14.5 | 0.00 | 0.00 | 0.00 | 56 | 1012.5 |
| 20260508025535 | 14 | 319 | 8.0 | 14.5 | 0.00 | 0.00 | 0.00 | 57 | 1012.5 |
| 20260508025455 | 14 | 330 | 9.7 | 14.5 | 0.00 | 0.00 | 0.00 | 57 | 1012.5 |
| 20260508025337 | 14 | 330 | 11.3 | 14.5 | 0.00 | 0.00 | 0.00 | 58 | 1012.5 |
| 20260508025236 | 14 | 340 | 8.0 | 14.5 | 0.00 | 0.00 | 0.00 | 58 | 1012.5 |
| 20260508025134 | 14 | 329 | 8.0 | 16.1 | 0.00 | 0.00 | 0.00 | 57 | 1012.5 |
| 20260508025033 | 14 | 343 | 6.4 | 16.1 | 0.00 | 0.00 | 0.00 | 58 | 1012.5 |
| 20260508024931 | 14 | 330 | 9.7 | 16.1 | 0.00 | 0.00 | 0.00 | 57 | 1012.5 |
| 20260508024827 | 14 | 352 | 6.4 | 16.1 | 0.00 | 0.00 | 0.00 | 56 | 1012.5 |
| 20260508024726 | 14 | 339 | 8.0 | 16.1 | 0.00 | 0.00 | 0.00 | 56 | 1012.5 |
| 20260508024657 | 14 | 342 | 9.7 | 16.1 | 0.00 | 0.00 | 0.00 | 56 | 1012.5 |
| 20260508024559 | 14 | 332 | 8.0 | 16.1 | 0.00 | 0.00 | 0.00 | 57 | 1012.5 |
| 20260508024436 | 14 | 329 | 8.0 | 16.1 | 0.00 | 0.00 | 0.00 | 57 | 1012.5 |
| 20260508024334 | 14 | 329 | 11.3 | 16.1 | 0.00 | 0.00 | 0.00 | 56 | 1012.5 |
| 20260508024235 | 14 | 326 | 6.4 | 12.9 | 0.00 | 0.00 | 0.00 | 57 | 1012.5 |
| 20260508024132 | 14 | 330 | 9.7 | 12.9 | 0.00 | 0.00 | 0.00 | 59 | 1012.5 |
| 20260508024030 | 14 | 346 | 9.7 | 12.9 | 0.00 | 0.00 | 0.00 | 58 | 1012.5 |
| 20260508023929 | 14 | 332 | 8.0 | 12.9 | 0.00 | 0.00 | 0.00 | 57 | 1012.5 |
| 20260508023852 | 14 | 342 | 8.0 | 12.9 | 0.00 | 0.00 | 0.00 | 56 | 1012.5 |
| 20260508023729 | 14 | 330 | 8.0 | 12.9 | 0.00 | 0.00 | 0.00 | 58 | 1012.5 |
| 20260508023627 | 14 | 336 | 6.4 | 12.9 | 0.00 | 0.00 | 0.00 | 57 | 1012.5 |
| 20260508023526 | 14 | 333 | 9.7 | 12.9 | 0.00 | 0.00 | 0.00 | 57 | 1012.5 |
| 20260508023426 | 14 | 330 | 8.0 | 12.9 | 0.00 | 0.00 | 0.00 | 57 | 1012.5 |
| 20260508023324 | 14 | 332 | 8.0 | 12.9 | 0.00 | 0.00 | 0.00 | 57 | 1012.5 |
| 20260508023243 | 14 | 93 | 8.0 | 12.9 | 0.00 | 0.00 | 0.00 | 57 | 1012.5 |
| 20260508023158 | 14 | 336 | 6.4 | 12.9 | 0.00 | 0.00 | 0.00 | 57 | 1012.5 |
| 20260508023055 | 14 | 329 | 8.0 | 12.9 | 0.00 | 0.00 | 0.00 | 57 | 1012.5 |
| 20260508022932 | 14 | 85 | 8.0 | 12.9 | 0.00 | 0.00 | 0.00 | 58 | 1012.5 |
| 20260508022830 | 14 | 282 | 9.7 | 12.9 | 0.00 | 0.00 | 0.00 | 59 | 1012.3 |
| 20260508022749 | 14 | 332 | 4.8 | 12.9 | 0.00 | 0.00 | 0.00 | 59 | 1012.3 |
| 20260508022628 | 14 | 336 | 8.0 | 12.9 | 0.00 | 0.00 | 0.00 | 59 | 1012.3 |
| 20260508022526 | 14 | 349 | 9.7 | 12.9 | 0.00 | 0.00 | 0.00 | 58 | 1012.3 |
| 20260508022424 | 14 | 306 | 6.4 | 12.9 | 0.00 | 0.00 | 0.00 | 57 | 1012.3 |
| 20260508022327 | 14 | 102 | 4.8 | 12.9 | 0.00 | 0.00 | 0.00 | 57 | 1012.3 |
| 20260508022226 | 14 | 330 | 11.3 | 12.9 | 0.00 | 0.00 | 0.00 | 56 | 1012.3 |
| 20260508022124 | 14 | 329 | 8.0 | 12.9 | 0.00 | 0.00 | 0.00 | 56 | 1012.3 |
| 20260508022042 | 14 | 329 | 8.0 | 12.9 | 0.00 | 0.00 | 0.00 | 57 | 1012.3 |
| 20260508021941 | 14 | 330 | 6.4 | 12.9 | 0.00 | 0.00 | 0.00 | 57 | 1012.3 |
| 20260508021838 | 14 | 332 | 6.4 | 12.9 | 0.00 | 0.00 | 0.00 | 57 | 1012.3 |
| 20260508021736 | 14 | 332 | 9.7 | 12.9 | 0.00 | 0.00 | 0.00 | 56 | 1012.3 |
| 20260508021644 | 14 | 333 | 8.0 | 12.9 | 0.00 | 0.00 | 0.00 | 56 | 1012.3 |
| 20260508021527 | 14 | 325 | 9.7 | 12.9 | 0.00 | 0.00 | 0.00 | 57 | 1012.3 |
| 20260508021445 | 14 | 326 | 9.7 | 12.9 | 0.00 | 0.00 | 0.00 | 58 | 1012.3 |
| 20260508021342 | 14 | 333 | 8.0 | 12.9 | 0.00 | 0.00 | 0.00 | 57 | 1012.3 |
| 20260508021240 | 14 | 329 | 9.7 | 12.9 | 0.00 | 0.00 | 0.00 | 58 | 1012.3 |
| 20260508021139 | 14 | 333 | 9.7 | 12.9 | 0.00 | 0.00 | 0.00 | 56 | 1012.3 |
| 20260508021038 | 14 | 332 | 4.8 | 12.9 | 0.00 | 0.00 | 0.00 | 58 | 1012.3 |
| 20260508020937 | 14 | 339 | 4.8 | 12.9 | 0.00 | 0.00 | 0.00 | 58 | 1012.3 |
| 20260508020838 | 14 | 330 | 6.4 | 12.9 | 0.00 | 0.00 | 0.00 | 58 | 1012.3 |
| 20260508020736 | 14 | 328 | 8.0 | 12.9 | 0.00 | 0.00 | 0.00 | 57 | 1012.3 |
| 20260508020635 | 14 | 335 | 8.0 | 12.9 | 0.00 | 0.00 | 0.00 | 58 | 1012.3 |
| 20260508020534 | 14 | 326 | 11.3 | 12.9 | 0.00 | 0.00 | 0.00 | 57 | 1012.3 |
| 20260508020453 | 14 | 330 | 8.0 | 11.3 | 0.00 | 0.00 | 0.00 | 56 | 1012.3 |
| 20260508020330 | 14 | 332 | 8.0 | 11.3 | 0.00 | 0.00 | 0.00 | 57 | 1012.3 |
| 20260508020228 | 14 | 339 | 9.7 | 11.3 | 0.00 | 0.00 | 0.00 | 57 | 1012.3 |
| 20260508020158 | 14 | 332 | 9.7 | 11.3 | 0.00 | 0.00 | 0.00 | 57 | 1012.3 |
| 20260508020039 | 14 | 332 | 8.0 | 11.3 | 0.00 | 0.00 | 0.00 | 56 | 1012.3 |
| 20260508015938 | 14 | 344 | 6.4 | 12.9 | 0.00 | 0.00 | 0.00 | 57 | 1012.3 |
| 20260508015837 | 14 | 330 | 8.0 | 12.9 | 0.00 | 0.00 | 0.00 | 59 | 1012.1 |
| 20260508015736 | 14 | 332 | 8.0 | 12.9 | 0.00 | 0.00 | 0.00 | 59 | 1012.1 |
| 20260508015634 | 14 | 333 | 6.4 | 12.9 | 0.00 | 0.00 | 0.00 | 59 | 1012.1 |
| 20260508015532 | 14 | 328 | 6.4 | 12.9 | 0.00 | 0.00 | 0.00 | 59 | 1012.1 |
| 20260508015434 | 14 | 332 | 4.8 | 12.9 | 0.00 | 0.00 | 0.00 | 60 | 1012.1 |
| 20260508015332 | 14 | 323 | 6.4 | 12.9 | 0.00 | 0.00 | 0.00 | 60 | 1012.1 |
| 20260508015229 | 14 | 340 | 6.4 | 12.9 | 0.00 | 0.00 | 0.00 | 59 | 1012.1 |
| 20260508015129 | 14 | 332 | 8.0 | 16.1 | 0.00 | 0.00 | 0.00 | 59 | 1012.1 |
| 20260508015028 | 14 | 330 | 6.4 | 16.1 | 0.00 | 0.00 | 0.00 | 59 | 1012.1 |
| 20260508014927 | 14 | 329 | 4.8 | 16.1 | 0.00 | 0.00 | 0.00 | 59 | 1012.1 |
| 20260508014826 | 14 | 339 | 8.0 | 16.1 | 0.00 | 0.00 | 0.00 | 59 | 1012.1 |
| 20260508014745 | 14 | 332 | 8.0 | 16.1 | 0.00 | 0.00 | 0.00 | 59 | 1012.1 |
| 20260508014718 | 14 | 332 | 8.0 | 16.1 | 0.00 | 0.00 | 0.00 | 59 | 1012.1 |
| 20260508014538 | 14 | 329 | 9.7 | 16.1 | 0.00 | 0.00 | 0.00 | 59 | 1012.1 |
| 20260508014438 | 14 | 347 | 8.0 | 16.1 | 0.00 | 0.00 | 0.00 | 59 | 1012.1 |
| 20260508014358 | 14 | 339 | 8.0 | 16.1 | 0.00 | 0.00 | 0.00 | 60 | 1012.0 |
| 20260508014236 | 14 | 332 | 11.3 | 16.1 | 0.00 | 0.00 | 0.00 | 60 | 1012.0 |
| 20260508014135 | 14 | 332 | 8.0 | 12.9 | 0.00 | 0.00 | 0.00 | 61 | 1012.0 |
| 20260508014033 | 14 | 332 | 8.0 | 12.9 | 0.00 | 0.00 | 0.00 | 60 | 1012.0 |
| 20260508013935 | 14 | 329 | 4.8 | 12.9 | 0.00 | 0.00 | 0.00 | 60 | 1012.0 |
| 20260508013833 | 14 | 336 | 8.0 | 12.9 | 0.00 | 0.00 | 0.00 | 60 | 1012.0 |
| 20260508013732 | 14 | 335 | 9.7 | 14.5 | 0.00 | 0.00 | 0.00 | 59 | 1012.0 |
| 20260508013629 | 14 | 332 | 9.7 | 14.5 | 0.00 | 0.00 | 0.00 | 60 | 1012.0 |
| 20260508013528 | 14 | 344 | 9.7 | 14.5 | 0.00 | 0.00 | 0.00 | 60 | 1012.0 |
| 20260508013427 | 14 | 339 | 9.7 | 14.5 | 0.00 | 0.00 | 0.00 | 61 | 1012.0 |
| 20260508013325 | 14 | 332 | 6.4 | 14.5 | 0.00 | 0.00 | 0.00 | 62 | 1012.0 |
| 20260508013227 | 14 | 329 | 9.7 | 14.5 | 0.00 | 0.00 | 0.00 | 61 | 1012.0 |
| 20260508013158 | 14 | 339 | 6.4 | 14.5 | 0.00 | 0.00 | 0.00 | 61 | 1012.0 |
| 20260508013035 | 14 | 339 | 9.7 | 14.5 | 0.00 | 0.00 | 0.00 | 62 | 1012.0 |
| 20260508012934 | 14 | 332 | 8.0 | 14.5 | 0.00 | 0.00 | 0.00 | 62 | 1012.0 |
| 20260508012831 | 14 | 333 | 6.4 | 16.1 | 0.00 | 0.00 | 0.00 | 62 | 1011.8 |
| 20260508012734 | 14 | 339 | 8.0 | 16.1 | 0.00 | 0.00 | 0.00 | 61 | 1011.8 |
| 20260508012632 | 14 | 330 | 6.4 | 16.1 | 0.00 | 0.00 | 0.00 | 61 | 1011.8 |
| 20260508012535 | 14 | 333 | 6.4 | 16.1 | 0.00 | 0.00 | 0.00 | 61 | 1011.8 |
| 20260508012434 | 14 | 326 | 8.0 | 16.1 | 0.00 | 0.00 | 0.00 | 60 | 1011.8 |
| 20260508012332 | 14 | 339 | 8.0 | 16.1 | 0.00 | 0.00 | 0.00 | 60 | 1011.8 |
| 20260508012232 | 14 | 330 | 8.0 | 16.1 | 0.00 | 0.00 | 0.00 | 60 | 1011.8 |
| 20260508012128 | 14 | 329 | 3.2 | 16.1 | 0.00 | 0.00 | 0.00 | 59 | 1011.8 |
| 20260508012027 | 14 | 344 | 9.7 | 16.1 | 0.00 | 0.00 | 0.00 | 60 | 1011.8 |
| 20260508011927 | 14 | 340 | 6.4 | 12.9 | 0.00 | 0.00 | 0.00 | 60 | 1011.8 |
| 20260508011831 | 14 | 328 | 9.7 | 12.9 | 0.00 | 0.00 | 0.00 | 60 | 1011.8 |
| 20260508011749 | 14 | 330 | 9.7 | 12.9 | 0.00 | 0.00 | 0.00 | 61 | 1011.8 |
| 20260508011719 | 14 | 323 | 8.0 | 12.9 | 0.00 | 0.00 | 0.00 | 62 | 1011.8 |
| 20260508011536 | 14 | 332 | 6.4 | 12.9 | 0.00 | 0.00 | 0.00 | 62 | 1011.8 |
| 20260508011434 | 14 | 333 | 3.2 | 11.3 | 0.00 | 0.00 | 0.00 | 61 | 1011.8 |
| 20260508011332 | 14 | 329 | 8.0 | 11.3 | 0.00 | 0.00 | 0.00 | 60 | 1011.5 |
| 20260508011232 | 14 | 332 | 4.8 | 12.9 | 0.00 | 0.00 | 0.00 | 62 | 1011.5 |
| 20260508011150 | 14 | 340 | 6.4 | 12.9 | 0.00 | 0.00 | 0.00 | 62 | 1011.5 |
| 20260508011030 | 14 | 329 | 3.2 | 12.9 | 0.00 | 0.00 | 0.00 | 62 | 1011.5 |
| 20260508010928 | 14 | 329 | 8.0 | 16.1 | 0.00 | 0.00 | 0.00 | 61 | 1011.5 |
| 20260508010827 | 14 | 329 | 6.4 | 16.1 | 0.00 | 0.00 | 0.00 | 61 | 1011.5 |
| 20260508010725 | 14 | 332 | 6.4 | 16.1 | 0.00 | 0.00 | 0.00 | 60 | 1011.5 |
| 20260508010624 | 14 | 332 | 9.7 | 16.1 | 0.00 | 0.00 | 0.00 | 60 | 1011.5 |
| 20260508010542 | 14 | 332 | 8.0 | 16.1 | 0.00 | 0.00 | 0.00 | 60 | 1011.5 |
| 20260508010442 | 14 | 336 | 8.0 | 16.1 | 0.00 | 0.00 | 0.00 | 61 | 1011.5 |
| 20260508010324 | 14 | 332 | 8.0 | 16.1 | 0.00 | 0.00 | 0.00 | 60 | 1011.5 |
| 20260508010243 | 14 | 335 | 8.0 | 16.1 | 0.00 | 0.00 | 0.00 | 60 | 1011.5 |
| 20260508010214 | 14 | 332 | 11.3 | 16.1 | 0.00 | 0.00 | 0.00 | 60 | 1011.5 |
| 20260508010049 | 14 | 332 | 6.4 | 12.9 | 0.00 | 0.00 | 0.00 | 60 | 1011.5 |
| 20260508005929 | 14 | 330 | 8.0 | 12.9 | 0.00 | 0.00 | 0.00 | 61 | 1011.5 |
| 20260508005828 | 14 | 330 | 4.8 | 12.9 | 0.00 | 0.00 | 0.00 | 62 | 1011.6 |
| 20260508005726 | 14 | 337 | 6.4 | 12.9 | 0.00 | 0.00 | 0.00 | 62 | 1011.6 |
| 20260508005628 | 14 | 332 | 8.0 | 12.9 | 0.00 | 0.00 | 0.00 | 62 | 1011.6 |
| 20260508005531 | 14 | 326 | 6.4 | 12.9 | 0.00 | 0.00 | 0.00 | 62 | 1011.6 |
| 20260508005454 | 14 | 333 | 9.7 | 12.9 | 0.00 | 0.00 | 0.00 | 62 | 1011.6 |
| 20260508005331 | 14 | 330 | 3.2 | 12.9 | 0.00 | 0.00 | 0.00 | 61 | 1011.6 |
| 20260508005253 | 14 | 332 | 4.8 | 12.9 | 0.00 | 0.00 | 0.00 | 62 | 1011.6 |
| 20260508005131 | 14 | 332 | 6.4 | 12.9 | 0.00 | 0.00 | 0.00 | 62 | 1011.6 |
| 20260508005029 | 14 | 332 | 4.8 | 12.9 | 0.00 | 0.00 | 0.00 | 62 | 1011.6 |
| 20260508004929 | 14 | 333 | 8.0 | 12.9 | 0.00 | 0.00 | 0.00 | 61 | 1011.6 |
| 20260508004831 | 14 | 332 | 9.7 | 12.9 | 0.00 | 0.00 | 0.00 | 63 | 1011.6 |
| 20260508004802 | 14 | 332 | 8.0 | 12.9 | 0.00 | 0.00 | 0.00 | 63 | 1011.6 |
| 20260508004651 | 14 | 330 | 8.0 | 12.9 | 0.00 | 0.00 | 0.00 | 63 | 1011.6 |
| 20260508004529 | 15 | 332 | 6.4 | 11.3 | 0.00 | 0.00 | 0.00 | 63 | 1011.6 |
| 20260508004447 | 15 | 332 | 3.2 | 11.3 | 0.00 | 0.00 | 0.00 | 63 | 1011.6 |
| 20260508004405 | 15 | 332 | 6.4 | 11.3 | 0.00 | 0.00 | 0.00 | 63 | 1011.6 |
| 20260508004242 | 15 | 332 | 3.2 | 11.3 | 0.00 | 0.00 | 0.00 | 63 | 1011.6 |
| 20260508004202 | 15 | 332 | 6.4 | 11.3 | 0.00 | 0.00 | 0.00 | 63 | 1011.6 |
| 20260508004040 | 15 | 333 | 6.4 | 11.3 | 0.00 | 0.00 | 0.00 | 63 | 1011.6 |
| 20260508003943 | 15 | 332 | 4.8 | 11.3 | 0.00 | 0.00 | 0.00 | 64 | 1011.6 |
| 20260508003902 | 15 | 332 | 6.4 | 11.3 | 0.00 | 0.00 | 0.00 | 65 | 1011.6 |
| 20260508003739 | 15 | 332 | 6.4 | 11.3 | 0.00 | 0.00 | 0.00 | 64 | 1011.6 |
| 20260508003636 | 15 | 326 | 6.4 | 11.3 | 0.00 | 0.00 | 0.00 | 63 | 1011.6 |
| 20260508003535 | 15 | 335 | 6.4 | 11.3 | 0.00 | 0.00 | 0.00 | 63 | 1011.6 |
| 20260508003433 | 15 | 332 | 8.0 | 11.3 | 0.00 | 0.00 | 0.00 | 63 | 1011.6 |
| 20260508003331 | 15 | 326 | 6.4 | 11.3 | 0.00 | 0.00 | 0.00 | 63 | 1011.6 |
| 20260508003234 | 15 | 330 | 6.4 | 11.3 | 0.00 | 0.00 | 0.00 | 64 | 1011.6 |
| 20260508003205 | 15 | 332 | 4.8 | 11.3 | 0.00 | 0.00 | 0.00 | 64 | 1011.6 |
| 20260508003042 | 15 | 332 | 4.8 | 11.3 | 0.00 | 0.00 | 0.00 | 64 | 1011.6 |
| 20260508002939 | 15 | 330 | 4.8 | 11.3 | 0.00 | 0.00 | 0.00 | 64 | 1011.6 |
| 20260508002837 | 15 | 326 | 3.2 | 11.3 | 0.00 | 0.00 | 0.00 | 64 | 1011.2 |
| 20260508002736 | 15 | 332 | 6.4 | 11.3 | 0.00 | 0.00 | 0.00 | 64 | 1011.2 |
| 20260508002634 | 15 | 332 | 6.4 | 11.3 | 0.00 | 0.00 | 0.00 | 63 | 1011.2 |
| 20260508002553 | 15 | 332 | 9.7 | 11.3 | 0.00 | 0.00 | 0.00 | 63 | 1011.2 |
| 20260508002434 | 15 | 330 | 6.4 | 12.9 | 0.00 | 0.00 | 0.00 | 62 | 1011.2 |
| 20260508002333 | 15 | 332 | 4.8 | 12.9 | 0.00 | 0.00 | 0.00 | 62 | 1011.2 |
| 20260508002231 | 15 | 330 | 6.4 | 12.9 | 0.00 | 0.00 | 0.00 | 62 | 1011.2 |
| 20260508002130 | 15 | 332 | 4.8 | 12.9 | 0.00 | 0.00 | 0.00 | 62 | 1011.2 |
| 20260508002028 | 15 | 330 | 8.0 | 12.9 | 0.00 | 0.00 | 0.00 | 62 | 1011.2 |
| 20260508001926 | 15 | 332 | 4.8 | 12.9 | 0.00 | 0.00 | 0.00 | 62 | 1011.2 |
| 20260508001830 | 15 | 325 | 6.4 | 12.9 | 0.00 | 0.00 | 0.00 | 62 | 1011.2 |
| 20260508001739 | 15 | 330 | 8.0 | 12.9 | 0.00 | 0.00 | 0.00 | 61 | 1011.2 |
| 20260508001648 | 15 | 333 | 8.0 | 12.9 | 0.00 | 0.00 | 0.00 | 61 | 1011.2 |
| 20260508001526 | 15 | 322 | 6.4 | 12.9 | 0.00 | 0.00 | 0.00 | 62 | 1011.2 |
| 20260508001424 | 15 | 330 | 6.4 | 12.9 | 0.00 | 0.00 | 0.00 | 62 | 1011.2 |
| 20260508001342 | 15 | 332 | 8.0 | 12.9 | 0.00 | 0.00 | 0.00 | 62 | 1011.0 |
| 20260508001240 | 15 | 332 | 6.4 | 12.9 | 0.00 | 0.00 | 0.00 | 61 | 1011.0 |
| 20260508001138 | 15 | 332 | 8.0 | 12.9 | 0.00 | 0.00 | 0.00 | 62 | 1011.0 |
| 20260508001101 | 15 | 328 | 8.0 | 12.9 | 0.00 | 0.00 | 0.00 | 63 | 1011.0 |
| 20260508000939 | 15 | 332 | 9.7 | 12.9 | 0.00 | 0.00 | 0.00 | 62 | 1011.0 |
| 20260508000837 | 15 | 335 | 6.4 | 12.9 | 0.00 | 0.00 | 0.00 | 63 | 1011.0 |
| 20260508000735 | 15 | 332 | 6.4 | 12.9 | 0.00 | 0.00 | 0.00 | 62 | 1011.0 |
| 20260508000633 | 15 | 330 | 4.8 | 12.9 | 0.00 | 0.00 | 0.00 | 62 | 1011.0 |
| 20260508000533 | 15 | 332 | 4.8 | 12.9 | 0.00 | 0.00 | 0.00 | 61 | 1011.0 |
| 20260508000452 | 15 | 330 | 4.8 | 12.9 | 0.00 | 0.00 | 0.00 | 62 | 1011.0 |
| 20260508000334 | 15 | 332 | 6.4 | 12.9 | 0.00 | 0.00 | 0.00 | 62 | 1011.0 |
| 20260508000234 | 15 | 332 | 4.8 | 12.9 | 0.00 | 0.00 | 0.00 | 62 | 1011.0 |
| 20260508000205 | 15 | 330 | 6.4 | 12.9 | 0.00 | 0.00 | 0.00 | 62 | 1011.0 |
| 20260508000041 | 15 | 329 | 6.4 | 11.3 | 0.00 | 0.00 | 0.00 | 62 | 1011.0 |
| 20260507235940 | 15 | 329 | 9.7 | 11.3 | 0.00 | 0.00 | 0.00 | 62 | 1011.0 |
| 20260507235858 | 15 | 332 | 4.8 | 11.3 | 0.00 | 0.00 | 0.00 | 62 | 1011.0 |
| 20260507235736 | 15 | 330 | 4.8 | 12.9 | 0.00 | 0.00 | 0.00 | 62 | 1011.0 |
| 20260507235633 | 15 | 329 | 4.8 | 12.9 | 0.00 | 0.00 | 0.00 | 62 | 1011.0 |
| 20260507235536 | 15 | 332 | 6.4 | 12.9 | 0.00 | 0.00 | 0.00 | 62 | 1011.0 |
| 20260507235439 | 15 | 333 | 8.0 | 12.9 | 0.00 | 0.00 | 0.00 | 62 | 1011.0 |
| 20260507235337 | 15 | 329 | 6.4 | 12.9 | 0.00 | 0.00 | 0.00 | 62 | 1011.0 |
| 20260507235235 | 15 | 323 | 6.4 | 12.9 | 0.00 | 0.00 | 0.00 | 62 | 1011.0 |
| 20260507235133 | 15 | 329 | 6.4 | 12.9 | 0.00 | 0.00 | 0.00 | 61 | 1011.0 |
| 20260507235030 | 15 | 332 | 6.4 | 12.9 | 0.00 | 0.00 | 0.00 | 61 | 1011.0 |
| 20260507234929 | 15 | 330 | 8.0 | 12.9 | 0.00 | 0.00 | 0.00 | 62 | 1011.0 |
| 20260507234832 | 15 | 329 | 6.4 | 9.7 | 0.00 | 0.00 | 0.00 | 61 | 1011.0 |
| 20260507234740 | 15 | 330 | 6.4 | 9.7 | 0.00 | 0.00 | 0.00 | 62 | 1011.0 |
| 20260507234648 | 15 | 323 | 6.4 | 9.7 | 0.00 | 0.00 | 0.00 | 63 | 1011.0 |
| 20260507234527 | 15 | 320 | 3.2 | 9.7 | 0.00 | 0.00 | 0.00 | 62 | 1011.0 |
| 20260507234447 | 15 | 328 | 4.8 | 11.3 | 0.00 | 0.00 | 0.00 | 62 | 1011.0 |
| 20260507234325 | 15 | 329 | 6.4 | 11.3 | 0.00 | 0.00 | 0.00 | 61 | 1010.9 |
| 20260507234244 | 15 | 328 | 6.4 | 11.3 | 0.00 | 0.00 | 0.00 | 61 | 1010.9 |
| 20260507234204 | 15 | 333 | 4.8 | 11.3 | 0.00 | 0.00 | 0.00 | 62 | 1010.9 |
| 20260507234045 | 15 | 332 | 6.4 | 11.3 | 0.00 | 0.00 | 0.00 | 63 | 1010.9 |
| 20260507233943 | 15 | 330 | 3.2 | 11.3 | 0.00 | 0.00 | 0.00 | 64 | 1010.9 |
| 20260507233841 | 15 | 325 | 4.8 | 11.3 | 0.00 | 0.00 | 0.00 | 63 | 1010.9 |
| 20260507233739 | 15 | 328 | 8.0 | 11.3 | 0.00 | 0.00 | 0.00 | 63 | 1010.9 |
| 20260507233636 | 15 | 330 | 9.7 | 11.3 | 0.00 | 0.00 | 0.00 | 62 | 1010.9 |
| 20260507233554 | 15 | 323 | 6.4 | 11.3 | 0.00 | 0.00 | 0.00 | 62 | 1010.9 |
| 20260507233431 | 15 | 329 | 6.4 | 11.3 | 0.00 | 0.00 | 0.00 | 62 | 1010.9 |
| 20260507233329 | 15 | 335 | 9.7 | 11.3 | 0.00 | 0.00 | 0.00 | 64 | 1010.9 |
| 20260507233238 | 15 | 328 | 6.4 | 12.9 | 0.00 | 0.00 | 0.00 | 63 | 1010.9 |
| 20260507233152 | 15 | 343 | 3.2 | 12.9 | 0.00 | 0.00 | 0.00 | 63 | 1010.9 |
| 20260507233048 | 15 | 328 | 3.2 | 12.9 | 0.00 | 0.00 | 0.00 | 63 | 1010.9 |
| 20260507232946 | 15 | 337 | 6.4 | 12.9 | 0.00 | 0.00 | 0.00 | 63 | 1010.9 |
| 20260507232904 | 15 | 328 | 4.8 | 12.9 | 0.00 | 0.00 | 0.00 | 63 | 1010.9 |
| 20260507232742 | 15 | 328 | 4.8 | 12.9 | 0.00 | 0.00 | 0.00 | 63 | 1010.9 |
| 20260507232659 | 15 | 330 | 4.8 | 12.9 | 0.00 | 0.00 | 0.00 | 62 | 1010.9 |
| 20260507232537 | 15 | 330 | 4.8 | 12.9 | 0.00 | 0.00 | 0.00 | 62 | 1010.9 |
| 20260507232456 | 16 | 330 | 8.0 | 12.9 | 0.00 | 0.00 | 0.00 | 62 | 1010.9 |
| 20260507232333 | 16 | 329 | 1.6 | 12.9 | 0.00 | 0.00 | 0.00 | 63 | 1010.9 |
| 20260507232253 | 16 | 339 | 4.8 | 12.9 | 0.00 | 0.00 | 0.00 | 61 | 1010.9 |
| 20260507232135 | 16 | 325 | 8.0 | 14.5 | 0.00 | 0.00 | 0.00 | 61 | 1010.9 |
| 20260507232032 | 16 | 330 | 4.8 | 14.5 | 0.00 | 0.00 | 0.00 | 60 | 1010.9 |
| 20260507231932 | 16 | 337 | 4.8 | 14.5 | 0.00 | 0.00 | 0.00 | 62 | 1010.9 |
| 20260507231831 | 16 | 335 | 9.7 | 14.5 | 0.00 | 0.00 | 0.00 | 62 | 1010.9 |
| 20260507231729 | 16 | 330 | 3.2 | 14.5 | 0.00 | 0.00 | 0.00 | 61 | 1010.9 |
| 20260507231659 | 16 | 332 | 6.4 | 14.5 | 0.00 | 0.00 | 0.00 | 61 | 1010.9 |
| 20260507231537 | 16 | 340 | 8.0 | 14.5 | 0.00 | 0.00 | 0.00 | 62 | 1010.9 |
| 20260507231438 | 16 | 322 | 6.4 | 14.5 | 0.00 | 0.00 | 0.00 | 62 | 1010.9 |
| 20260507231337 | 16 | 326 | 6.4 | 14.5 | 0.00 | 0.00 | 0.00 | 62 | 1010.8 |
| 20260507231236 | 16 | 333 | 9.7 | 14.5 | 0.00 | 0.00 | 0.00 | 62 | 1010.8 |
| 20260507231134 | 16 | 330 | 6.4 | 14.5 | 0.00 | 0.00 | 0.00 | 62 | 1010.8 |
| 20260507231033 | 16 | 330 | 6.4 | 14.5 | 0.00 | 0.00 | 0.00 | 62 | 1010.8 |
| 20260507230930 | 16 | 330 | 4.8 | 14.5 | 0.00 | 0.00 | 0.00 | 62 | 1010.8 |
| 20260507230849 | 16 | 330 | 6.4 | 14.5 | 0.00 | 0.00 | 0.00 | 62 | 1010.8 |
| 20260507230730 | 16 | 332 | 8.0 | 16.1 | 0.00 | 0.00 | 0.00 | 62 | 1010.8 |
| 20260507230628 | 16 | 329 | 4.8 | 17.7 | 0.00 | 0.00 | 0.00 | 62 | 1010.8 |
| 20260507230528 | 16 | 329 | 6.4 | 17.7 | 0.00 | 0.00 | 0.00 | 63 | 1010.8 |
| 20260507230430 | 16 | 328 | 4.8 | 17.7 | 0.00 | 0.00 | 0.00 | 63 | 1010.8 |
| 20260507230329 | 16 | 350 | 8.0 | 17.7 | 0.00 | 0.00 | 0.00 | 62 | 1010.8 |
| 20260507230238 | 16 | 330 | 4.8 | 17.7 | 0.00 | 0.00 | 0.00 | 62 | 1010.8 |
| 20260507230148 | 16 | 332 | 6.4 | 17.7 | 0.00 | 0.00 | 0.00 | 62 | 1010.8 |
| 20260507230028 | 16 | 328 | 9.7 | 17.7 | 0.00 | 0.00 | 0.00 | 62 | 1010.8 |
| 20260507225927 | 16 | 330 | 6.4 | 17.7 | 0.00 | 0.00 | 0.00 | 63 | 1010.8 |
| 20260507225827 | 16 | 330 | 8.0 | 17.7 | 0.00 | 0.00 | 0.00 | 62 | 1010.9 |
| 20260507225745 | 16 | 329 | 3.2 | 14.5 | 0.00 | 0.00 | 0.00 | 62 | 1010.9 |
| 20260507225704 | 16 | 343 | 3.2 | 14.5 | 0.00 | 0.00 | 0.00 | 62 | 1010.9 |
| 20260507225602 | 16 | 328 | 3.2 | 14.5 | 0.00 | 0.00 | 0.00 | 62 | 1010.9 |
| 20260507225500 | 16 | 325 | 6.4 | 14.5 | 0.00 | 0.00 | 0.00 | 62 | 1010.9 |
| 20260507225337 | 16 | 328 | 3.2 | 14.5 | 0.00 | 0.00 | 0.00 | 62 | 1010.9 |
| 20260507225234 | 16 | 329 | 6.4 | 14.5 | 0.00 | 0.00 | 0.00 | 63 | 1010.9 |
| 20260507225136 | 16 | 320 | 6.4 | 14.5 | 0.00 | 0.00 | 0.00 | 63 | 1010.9 |
| 20260507225054 | 16 | 326 | 8.0 | 14.5 | 0.00 | 0.00 | 0.00 | 63 | 1010.9 |
| 20260507224931 | 16 | 330 | 9.7 | 14.5 | 0.00 | 0.00 | 0.00 | 62 | 1010.9 |
| 20260507224829 | 16 | 330 | 8.0 | 12.9 | 0.00 | 0.00 | 0.00 | 62 | 1010.9 |
| 20260507224738 | 16 | 332 | 8.0 | 12.9 | 0.00 | 0.00 | 0.00 | 63 | 1010.9 |
| 20260507224648 | 16 | 320 | 6.4 | 12.9 | 0.00 | 0.00 | 0.00 | 62 | 1010.9 |
| 20260507224526 | 16 | 332 | 3.2 | 9.7 | 0.00 | 0.00 | 0.00 | 63 | 1010.9 |
| 20260507224424 | 16 | 330 | 1.6 | 11.3 | 0.00 | 0.00 | 0.00 | 62 | 1010.9 |
| 20260507224326 | 16 | 329 | 3.2 | 11.3 | 0.00 | 0.00 | 0.00 | 62 | 1010.8 |
| 20260507224225 | 16 | 328 | 4.8 | 11.3 | 0.00 | 0.00 | 0.00 | 62 | 1010.8 |
| 20260507224143 | 16 | 329 | 4.8 | 11.3 | 0.00 | 0.00 | 0.00 | 63 | 1010.8 |
| 20260507224042 | 16 | 326 | 8.0 | 11.3 | 0.00 | 0.00 | 0.00 | 63 | 1010.8 |
| 20260507223941 | 16 | 326 | 4.8 | 12.9 | 0.00 | 0.00 | 0.00 | 62 | 1010.8 |
| 20260507223858 | 16 | 330 | 1.6 | 12.9 | 0.00 | 0.00 | 0.00 | 62 | 1010.8 |
| 20260507223736 | 16 | 336 | 4.8 | 12.9 | 0.00 | 0.00 | 0.00 | 63 | 1010.8 |
| 20260507223634 | 16 | 330 | 9.7 | 12.9 | 0.00 | 0.00 | 0.00 | 62 | 1010.8 |
| 20260507223536 | 16 | 329 | 3.2 | 12.9 | 0.00 | 0.00 | 0.00 | 62 | 1010.8 |
| 20260507223435 | 16 | 339 | 1.6 | 12.9 | 0.00 | 0.00 | 0.00 | 61 | 1010.8 |
| 20260507223333 | 16 | 332 | 3.2 | 12.9 | 0.00 | 0.00 | 0.00 | 61 | 1010.8 |
| 20260507223251 | 16 | 330 | 6.4 | 12.9 | 0.00 | 0.00 | 0.00 | 61 | 1010.8 |
| 20260507223222 | 16 | 349 | 8.0 | 12.9 | 0.00 | 0.00 | 0.00 | 61 | 1010.8 |
| 20260507223037 | 16 | 328 | 4.8 | 12.9 | 0.00 | 0.00 | 0.00 | 61 | 1010.8 |
| 20260507222936 | 16 | 330 | 3.2 | 11.3 | 0.00 | 0.00 | 0.00 | 60 | 1010.8 |
| 20260507222836 | 16 | 329 | 6.4 | 11.3 | 0.00 | 0.00 | 0.00 | 61 | 1010.8 |
| 20260507222740 | 16 | 344 | 6.4 | 12.9 | 0.00 | 0.00 | 0.00 | 60 | 1010.8 |
| 20260507222659 | 16 | 342 | 4.8 | 12.9 | 0.00 | 0.00 | 0.00 | 61 | 1010.8 |
| 20260507222536 | 16 | 322 | 1.6 | 12.9 | 0.00 | 0.00 | 0.00 | 60 | 1010.8 |
| 20260507222435 | 16 | 332 | 4.8 | 17.7 | 0.00 | 0.00 | 0.00 | 60 | 1010.8 |
| 20260507222333 | 16 | 332 | 4.8 | 17.7 | 0.00 | 0.00 | 0.00 | 61 | 1010.8 |
| 20260507222251 | 16 | 330 | 6.4 | 17.7 | 0.00 | 0.00 | 0.00 | 62 | 1010.8 |
| 20260507222149 | 16 | 339 | 4.8 | 17.7 | 0.00 | 0.00 | 0.00 | 61 | 1010.8 |
| 20260507222025 | 16 | 328 | 6.4 | 17.7 | 0.00 | 0.00 | 0.00 | 61 | 1010.8 |
| 20260507221928 | 16 | 326 | 6.4 | 17.7 | 0.00 | 0.00 | 0.00 | 61 | 1010.8 |
| 20260507221827 | 16 | 328 | 4.8 | 17.7 | 0.00 | 0.00 | 0.00 | 62 | 1010.8 |
| 20260507221745 | 16 | 332 | 4.8 | 17.7 | 0.00 | 0.00 | 0.00 | 63 | 1010.8 |
| 20260507221654 | 16 | 330 | 8.0 | 17.7 | 0.00 | 0.00 | 0.00 | 63 | 1010.8 |
| 20260507221533 | 16 | 333 | 4.8 | 17.7 | 0.00 | 0.00 | 0.00 | 64 | 1010.8 |
| 20260507221431 | 16 | 330 | 4.8 | 17.7 | 0.00 | 0.00 | 0.00 | 63 | 1010.8 |
| 20260507221331 | 16 | 330 | 1.6 | 17.7 | 0.00 | 0.00 | 0.00 | 61 | 1010.7 |
| 20260507221228 | 16 | 329 | 3.2 | 17.7 | 0.00 | 0.00 | 0.00 | 62 | 1010.7 |
| 20260507221131 | 16 | 330 | 4.8 | 17.7 | 0.00 | 0.00 | 0.00 | 60 | 1010.7 |
| 20260507221029 | 16 | 330 | 6.4 | 17.7 | 0.00 | 0.00 | 0.00 | 60 | 1010.7 |
| 20260507220927 | 16 | 330 | 11.3 | 22.5 | 0.00 | 0.00 | 0.00 | 61 | 1010.7 |
| 20260507220825 | 16 | 330 | 11.3 | 22.5 | 0.00 | 0.00 | 0.00 | 62 | 1010.7 |
| 20260507220724 | 16 | 329 | 11.3 | 22.5 | 0.00 | 0.00 | 0.00 | 60 | 1010.7 |
| 20260507220643 | 16 | 328 | 9.7 | 22.5 | 0.00 | 0.00 | 0.00 | 59 | 1010.7 |